﻿<?xml version="1.0" encoding="utf-8"?><gpx creator="Garmin Desktop App" version="1.1" xsi:schemaLocation="http://www.topografix.com/GPX/1/1 http://www.topografix.com/GPX/1/1/gpx.xsd http://www.garmin.com/xmlschemas/WaypointExtension/v1 http://www8.garmin.com/xmlschemas/WaypointExtensionv1.xsd http://www.garmin.com/xmlschemas/TrackPointExtension/v1 http://www.garmin.com/xmlschemas/TrackPointExtensionv1.xsd http://www.garmin.com/xmlschemas/GpxExtensions/v3 http://www8.garmin.com/xmlschemas/GpxExtensionsv3.xsd http://www.garmin.com/xmlschemas/ActivityExtension/v1 http://www8.garmin.com/xmlschemas/ActivityExtensionv1.xsd http://www.garmin.com/xmlschemas/AdventuresExtensions/v1 http://www8.garmin.com/xmlschemas/AdventuresExtensionv1.xsd http://www.garmin.com/xmlschemas/PressureExtension/v1 http://www.garmin.com/xmlschemas/PressureExtensionv1.xsd http://www.garmin.com/xmlschemas/TripExtensions/v1 http://www.garmin.com/xmlschemas/TripExtensionsv1.xsd http://www.garmin.com/xmlschemas/TripMetaDataExtensions/v1 http://www.garmin.com/xmlschemas/TripMetaDataExtensionsv1.xsd http://www.garmin.com/xmlschemas/ViaPointTransportationModeExtensions/v1 http://www.garmin.com/xmlschemas/ViaPointTransportationModeExtensionsv1.xsd http://www.garmin.com/xmlschemas/CreationTimeExtension/v1 http://www.garmin.com/xmlschemas/CreationTimeExtensionsv1.xsd http://www.garmin.com/xmlschemas/AccelerationExtension/v1 http://www.garmin.com/xmlschemas/AccelerationExtensionv1.xsd http://www.garmin.com/xmlschemas/PowerExtension/v1 http://www.garmin.com/xmlschemas/PowerExtensionv1.xsd http://www.garmin.com/xmlschemas/VideoExtension/v1 http://www.garmin.com/xmlschemas/VideoExtensionv1.xsd" xmlns="http://www.topografix.com/GPX/1/1" xmlns:xsi="http://www.w3.org/2001/XMLSchema-instance" xmlns:wptx1="http://www.garmin.com/xmlschemas/WaypointExtension/v1" xmlns:gpxtrx="http://www.garmin.com/xmlschemas/GpxExtensions/v3" xmlns:gpxtpx="http://www.garmin.com/xmlschemas/TrackPointExtension/v1" xmlns:gpxx="http://www.garmin.com/xmlschemas/GpxExtensions/v3" xmlns:trp="http://www.garmin.com/xmlschemas/TripExtensions/v1" xmlns:adv="http://www.garmin.com/xmlschemas/AdventuresExtensions/v1" xmlns:prs="http://www.garmin.com/xmlschemas/PressureExtension/v1" xmlns:tmd="http://www.garmin.com/xmlschemas/TripMetaDataExtensions/v1" xmlns:vptm="http://www.garmin.com/xmlschemas/ViaPointTransportationModeExtensions/v1" xmlns:ctx="http://www.garmin.com/xmlschemas/CreationTimeExtension/v1" xmlns:gpxacc="http://www.garmin.com/xmlschemas/AccelerationExtension/v1" xmlns:gpxpx="http://www.garmin.com/xmlschemas/PowerExtension/v1" xmlns:vidx1="http://www.garmin.com/xmlschemas/VideoExtension/v1">

  <metadata>
    <link href="http://www.garmin.com">
      <text>Garmin International</text>
    </link>
    <time>2026-08-21T12:55:36Z</time>
    <bounds maxlat="59.112879261374474" maxlon="30.502929417416453" minlat="59.10461587831378" minlon="30.481680035591125" />
  </metadata>

  <trk>
    <name>2026-08-20 18:47:03</name>
    <extensions>
      <gpxx:TrackExtension>
        <gpxx:DisplayColor>Yellow</gpxx:DisplayColor>
      </gpxx:TrackExtension>
    </extensions>
    <trkseg>
      <trkpt lat="59.11287029273808" lon="30.481761340051889">
        <ele>60.219999999999999</ele>
        <time>2026-08-20T10:15:14Z</time>
      </trkpt>
      <trkpt lat="59.112870041280985" lon="30.481764189898968">
        <ele>61.659999999999997</ele>
        <time>2026-08-20T10:15:34Z</time>
      </trkpt>
      <trkpt lat="59.112869622185826" lon="30.481766117736697">
        <ele>62.619999999999997</ele>
        <time>2026-08-20T10:15:59Z</time>
      </trkpt>
      <trkpt lat="59.112875573337078" lon="30.481747845187783">
        <ele>61.18</ele>
        <time>2026-08-20T10:16:11Z</time>
      </trkpt>
      <trkpt lat="59.112875824794173" lon="30.481739798560739">
        <ele>61.18</ele>
        <time>2026-08-20T10:16:27Z</time>
      </trkpt>
      <trkpt lat="59.112873561680317" lon="30.481739463284612">
        <ele>61.18</ele>
        <time>2026-08-20T10:16:44Z</time>
      </trkpt>
      <trkpt lat="59.112867778167129" lon="30.481738038361073">
        <ele>60.700000000000003</ele>
        <time>2026-08-20T10:17:01Z</time>
      </trkpt>
      <trkpt lat="59.112865850329399" lon="30.481741726398468">
        <ele>60.700000000000003</ele>
        <time>2026-08-20T10:17:18Z</time>
      </trkpt>
      <trkpt lat="59.112865095958114" lon="30.481684980913997">
        <ele>60.700000000000003</ele>
        <time>2026-08-20T10:17:28Z</time>
      </trkpt>
      <trkpt lat="59.112866269424558" lon="30.481680035591125">
        <ele>60.700000000000003</ele>
        <time>2026-08-20T10:17:46Z</time>
      </trkpt>
      <trkpt lat="59.112875489518046" lon="30.48171054571867">
        <ele>62.140000000000001</ele>
        <time>2026-08-20T10:18:02Z</time>
      </trkpt>
      <trkpt lat="59.112870879471302" lon="30.481719430536032">
        <ele>60.700000000000003</ele>
        <time>2026-08-20T10:18:12Z</time>
      </trkpt>
      <trkpt lat="59.112870208919048" lon="30.481719262897968">
        <ele>60.700000000000003</ele>
        <time>2026-08-20T10:18:30Z</time>
      </trkpt>
      <trkpt lat="59.112865179777145" lon="30.481731751933694">
        <ele>60.700000000000003</ele>
        <time>2026-08-20T10:18:46Z</time>
      </trkpt>
      <trkpt lat="59.112870125100017" lon="30.481738122180104">
        <ele>60.700000000000003</ele>
        <time>2026-08-20T10:19:10Z</time>
      </trkpt>
      <trkpt lat="59.112874567508698" lon="30.481762429699302">
        <ele>60.700000000000003</ele>
        <time>2026-08-20T10:19:34Z</time>
      </trkpt>
      <trkpt lat="59.112874148413539" lon="30.481788832694292">
        <ele>60.700000000000003</ele>
        <time>2026-08-20T10:19:48Z</time>
      </trkpt>
      <trkpt lat="59.112867442891002" lon="30.481813894584775">
        <ele>60.219999999999999</ele>
        <time>2026-08-20T10:20:05Z</time>
      </trkpt>
      <trkpt lat="59.112873394042253" lon="30.481816744431853">
        <ele>61.659999999999997</ele>
        <time>2026-08-20T10:20:19Z</time>
      </trkpt>
      <trkpt lat="59.112879261374474" lon="30.481829233467579">
        <ele>60.219999999999999</ele>
        <time>2026-08-20T10:20:47Z</time>
      </trkpt>
      <trkpt lat="59.112871382385492" lon="30.481844656169415">
        <ele>60.219999999999999</ele>
        <time>2026-08-20T10:21:04Z</time>
      </trkpt>
      <trkpt lat="59.112843554466963" lon="30.48198957927525">
        <ele>60.219999999999999</ele>
        <time>2026-08-20T10:21:18Z</time>
      </trkpt>
      <trkpt lat="59.112839698791504" lon="30.482057891786098">
        <ele>60.219999999999999</ele>
        <time>2026-08-20T10:21:33Z</time>
      </trkpt>
      <trkpt lat="59.112838106229901" lon="30.482077840715647">
        <ele>61.18</ele>
        <time>2026-08-20T10:21:50Z</time>
      </trkpt>
      <trkpt lat="59.112809272482991" lon="30.482075242325664">
        <ele>61.18</ele>
        <time>2026-08-20T10:22:02Z</time>
      </trkpt>
      <trkpt lat="59.112799130380154" lon="30.482056550681591">
        <ele>59.740000000000002</ele>
        <time>2026-08-20T10:22:17Z</time>
      </trkpt>
      <trkpt lat="59.112805332988501" lon="30.482082283124328">
        <ele>59.259999999999998</ele>
        <time>2026-08-20T10:22:41Z</time>
      </trkpt>
      <trkpt lat="59.112764010205865" lon="30.482092509046197">
        <ele>59.259999999999998</ele>
        <time>2026-08-20T10:22:59Z</time>
      </trkpt>
      <trkpt lat="59.11273542791605" lon="30.482079684734344">
        <ele>58.780000000000001</ele>
        <time>2026-08-20T10:23:18Z</time>
      </trkpt>
      <trkpt lat="59.112679101526737" lon="30.482081612572074">
        <ele>60.219999999999999</ele>
        <time>2026-08-20T10:23:24Z</time>
      </trkpt>
      <trkpt lat="59.11261573433876" lon="30.482076331973076">
        <ele>60.219999999999999</ele>
        <time>2026-08-20T10:23:40Z</time>
      </trkpt>
      <trkpt lat="59.11258396692574" lon="30.482094353064895">
        <ele>58.780000000000001</ele>
        <time>2026-08-20T10:23:46Z</time>
      </trkpt>
      <trkpt lat="59.112523617222905" lon="30.482109440490603">
        <ele>58.780000000000001</ele>
        <time>2026-08-20T10:24:00Z</time>
      </trkpt>
      <trkpt lat="59.112443318590522" lon="30.482144309207797">
        <ele>60.219999999999999</ele>
        <time>2026-08-20T10:24:09Z</time>
      </trkpt>
      <trkpt lat="59.112423285841942" lon="30.482149925082922">
        <ele>60.219999999999999</ele>
        <time>2026-08-20T10:24:11Z</time>
      </trkpt>
      <trkpt lat="59.112256402149796" lon="30.482210777699947">
        <ele>58.780000000000001</ele>
        <time>2026-08-20T10:24:27Z</time>
      </trkpt>
      <trkpt lat="59.112139223143458" lon="30.482215387746692">
        <ele>58.780000000000001</ele>
        <time>2026-08-20T10:24:40Z</time>
      </trkpt>
      <trkpt lat="59.112117597833276" lon="30.482258638367057">
        <ele>58.780000000000001</ele>
        <time>2026-08-20T10:24:58Z</time>
      </trkpt>
      <trkpt lat="59.112093709409237" lon="30.482274228706956">
        <ele>58.780000000000001</ele>
        <time>2026-08-20T10:25:09Z</time>
      </trkpt>
      <trkpt lat="59.112019026651978" lon="30.482283867895603">
        <ele>58.780000000000001</ele>
        <time>2026-08-20T10:25:23Z</time>
      </trkpt>
      <trkpt lat="59.111984996125102" lon="30.482296189293265">
        <ele>58.299999999999997</ele>
        <time>2026-08-20T10:25:43Z</time>
      </trkpt>
      <trkpt lat="59.111820878461003" lon="30.482305577024817">
        <ele>59.740000000000002</ele>
        <time>2026-08-20T10:25:59Z</time>
      </trkpt>
      <trkpt lat="59.111769581213593" lon="30.482315802946687">
        <ele>58.299999999999997</ele>
        <time>2026-08-20T10:26:09Z</time>
      </trkpt>
      <trkpt lat="59.111746279522777" lon="30.482325609773397">
        <ele>59.740000000000002</ele>
        <time>2026-08-20T10:26:15Z</time>
      </trkpt>
      <trkpt lat="59.111727923154831" lon="30.482321418821812">
        <ele>58.299999999999997</ele>
        <time>2026-08-20T10:26:20Z</time>
      </trkpt>
      <trkpt lat="59.111717194318771" lon="30.482323179021478">
        <ele>58.299999999999997</ele>
        <time>2026-08-20T10:26:38Z</time>
      </trkpt>
      <trkpt lat="59.111550059169531" lon="30.482403142377734">
        <ele>58.299999999999997</ele>
        <time>2026-08-20T10:26:55Z</time>
      </trkpt>
      <trkpt lat="59.111510664224625" lon="30.482415296137333">
        <ele>58.299999999999997</ele>
        <time>2026-08-20T10:26:59Z</time>
      </trkpt>
      <trkpt lat="59.111345540732145" lon="30.482447566464543">
        <ele>57.82</ele>
        <time>2026-08-20T10:27:14Z</time>
      </trkpt>
      <trkpt lat="59.111119983717799" lon="30.482512442395091">
        <ele>57.340000000000003</ele>
        <time>2026-08-20T10:27:30Z</time>
      </trkpt>
      <trkpt lat="59.111042702570558" lon="30.482559716328979">
        <ele>58.780000000000001</ele>
        <time>2026-08-20T10:27:35Z</time>
      </trkpt>
      <trkpt lat="59.110923428088427" lon="30.48257103189826">
        <ele>58.780000000000001</ele>
        <time>2026-08-20T10:27:49Z</time>
      </trkpt>
      <trkpt lat="59.110915884375572" lon="30.482573043555021">
        <ele>58.780000000000001</ele>
        <time>2026-08-20T10:27:50Z</time>
      </trkpt>
      <trkpt lat="59.110855450853705" lon="30.482591651380062">
        <ele>57.340000000000003</ele>
        <time>2026-08-20T10:28:08Z</time>
      </trkpt>
      <trkpt lat="59.11085712723434" lon="30.482600200921297">
        <ele>58.780000000000001</ele>
        <time>2026-08-20T10:28:26Z</time>
      </trkpt>
      <trkpt lat="59.110821252688766" lon="30.482606487348676">
        <ele>57.82</ele>
        <time>2026-08-20T10:28:52Z</time>
      </trkpt>
      <trkpt lat="59.110788479447365" lon="30.482619060203433">
        <ele>57.82</ele>
        <time>2026-08-20T10:29:14Z</time>
      </trkpt>
      <trkpt lat="59.110776409506798" lon="30.482623251155019">
        <ele>57.82</ele>
        <time>2026-08-20T10:29:16Z</time>
      </trkpt>
      <trkpt lat="59.110629474744201" lon="30.482683852314949">
        <ele>57.82</ele>
        <time>2026-08-20T10:29:31Z</time>
      </trkpt>
      <trkpt lat="59.110495699569583" lon="30.482692234218121">
        <ele>57.82</ele>
        <time>2026-08-20T10:29:46Z</time>
      </trkpt>
      <trkpt lat="59.110374078154564" lon="30.482728444039822">
        <ele>57.82</ele>
        <time>2026-08-20T10:29:57Z</time>
      </trkpt>
      <trkpt lat="59.110168637707829" lon="30.482746884226799">
        <ele>57.82</ele>
        <time>2026-08-20T10:30:11Z</time>
      </trkpt>
      <trkpt lat="59.110077191144228" lon="30.482755098491907">
        <ele>57.82</ele>
        <time>2026-08-20T10:30:23Z</time>
      </trkpt>
      <trkpt lat="59.109977362677455" lon="30.482806647196412">
        <ele>57.82</ele>
        <time>2026-08-20T10:30:39Z</time>
      </trkpt>
      <trkpt lat="59.109932519495487" lon="30.482815448194742">
        <ele>57.82</ele>
        <time>2026-08-20T10:30:43Z</time>
      </trkpt>
      <trkpt lat="59.109739568084478" lon="30.482903877273202">
        <ele>57.82</ele>
        <time>2026-08-20T10:30:56Z</time>
      </trkpt>
      <trkpt lat="59.109590202569962" lon="30.482932711020112">
        <ele>57.340000000000003</ele>
        <time>2026-08-20T10:31:10Z</time>
      </trkpt>
      <trkpt lat="59.10954418592155" lon="30.482933381572366">
        <ele>57.340000000000003</ele>
        <time>2026-08-20T10:31:13Z</time>
      </trkpt>
      <trkpt lat="59.109386019408703" lon="30.482964729890227">
        <ele>57.340000000000003</ele>
        <time>2026-08-20T10:31:26Z</time>
      </trkpt>
      <trkpt lat="59.109292812645435" lon="30.482994904741645">
        <ele>57.340000000000003</ele>
        <time>2026-08-20T10:31:38Z</time>
      </trkpt>
      <trkpt lat="59.10927495919168" lon="30.482985014095902">
        <ele>57.340000000000003</ele>
        <time>2026-08-20T10:32:00Z</time>
      </trkpt>
      <trkpt lat="59.10930865444243" lon="30.48314074985683">
        <ele>57.82</ele>
        <time>2026-08-20T10:32:18Z</time>
      </trkpt>
      <trkpt lat="59.109316533431411" lon="30.483189951628447">
        <ele>57.82</ele>
        <time>2026-08-20T10:32:35Z</time>
      </trkpt>
      <trkpt lat="59.109377134591341" lon="30.48331618309021">
        <ele>57.82</ele>
        <time>2026-08-20T10:32:49Z</time>
      </trkpt>
      <trkpt lat="59.109378308057785" lon="30.483320960775018">
        <ele>56.859999999999999</ele>
        <time>2026-08-20T10:33:12Z</time>
      </trkpt>
      <trkpt lat="59.109349306672812" lon="30.483401343226433">
        <ele>56.859999999999999</ele>
        <time>2026-08-20T10:33:32Z</time>
      </trkpt>
      <trkpt lat="59.109280910342932" lon="30.483416011556983">
        <ele>57.82</ele>
        <time>2026-08-20T10:33:48Z</time>
      </trkpt>
      <trkpt lat="59.10920262336731" lon="30.483440905809402">
        <ele>57.82</ele>
        <time>2026-08-20T10:34:06Z</time>
      </trkpt>
      <trkpt lat="59.109104722738266" lon="30.483490778133273">
        <ele>57.82</ele>
        <time>2026-08-20T10:34:23Z</time>
      </trkpt>
      <trkpt lat="59.109058454632759" lon="30.483489772304893">
        <ele>57.82</ele>
        <time>2026-08-20T10:34:46Z</time>
      </trkpt>
      <trkpt lat="59.10902040079236" lon="30.483520366251469">
        <ele>56.369999999999997</ele>
        <time>2026-08-20T10:35:10Z</time>
      </trkpt>
      <trkpt lat="59.108975809067488" lon="30.483540818095207">
        <ele>57.82</ele>
        <time>2026-08-20T10:35:20Z</time>
      </trkpt>
      <trkpt lat="59.108950244262815" lon="30.483556073158979">
        <ele>56.859999999999999</ele>
        <time>2026-08-20T10:35:27Z</time>
      </trkpt>
      <trkpt lat="59.108777074143291" lon="30.483625140041113">
        <ele>56.859999999999999</ele>
        <time>2026-08-20T10:35:45Z</time>
      </trkpt>
      <trkpt lat="59.108592169359326" lon="30.483654895797372">
        <ele>56.369999999999997</ele>
        <time>2026-08-20T10:36:02Z</time>
      </trkpt>
      <trkpt lat="59.10852880217135" lon="30.483632432296872">
        <ele>57.340000000000003</ele>
        <time>2026-08-20T10:36:15Z</time>
      </trkpt>
      <trkpt lat="59.108438612893224" lon="30.4836396407336">
        <ele>56.369999999999997</ele>
        <time>2026-08-20T10:36:26Z</time>
      </trkpt>
      <trkpt lat="59.10839980468154" lon="30.483670402318239">
        <ele>57.340000000000003</ele>
        <time>2026-08-20T10:36:34Z</time>
      </trkpt>
      <trkpt lat="59.108391338959336" lon="30.483669647946954">
        <ele>56.369999999999997</ele>
        <time>2026-08-20T10:36:39Z</time>
      </trkpt>
      <trkpt lat="59.108361080288887" lon="30.483727147802711">
        <ele>54.93</ele>
        <time>2026-08-20T10:36:59Z</time>
      </trkpt>
      <trkpt lat="59.108241051435471" lon="30.483882715925574">
        <ele>56.369999999999997</ele>
        <time>2026-08-20T10:37:18Z</time>
      </trkpt>
      <trkpt lat="59.108117586001754" lon="30.483944155275822">
        <ele>56.369999999999997</ele>
        <time>2026-08-20T10:37:33Z</time>
      </trkpt>
      <trkpt lat="59.108097301796079" lon="30.483948681503534">
        <ele>55.409999999999997</ele>
        <time>2026-08-20T10:37:36Z</time>
      </trkpt>
      <trkpt lat="59.107992360368371" lon="30.484004253521562">
        <ele>56.369999999999997</ele>
        <time>2026-08-20T10:37:51Z</time>
      </trkpt>
      <trkpt lat="59.107976099476218" lon="30.484000649303198">
        <ele>55.409999999999997</ele>
        <time>2026-08-20T10:38:00Z</time>
      </trkpt>
      <trkpt lat="59.10788674838841" lon="30.484008695930243">
        <ele>55.409999999999997</ele>
        <time>2026-08-20T10:38:14Z</time>
      </trkpt>
      <trkpt lat="59.107881048694253" lon="30.484005259349942">
        <ele>55.409999999999997</ele>
        <time>2026-08-20T10:38:15Z</time>
      </trkpt>
      <trkpt lat="59.107815837487578" lon="30.484053287655115">
        <ele>56.369999999999997</ele>
        <time>2026-08-20T10:38:28Z</time>
      </trkpt>
      <trkpt lat="59.107790943235159" lon="30.484096705913544">
        <ele>55.890000000000001</ele>
        <time>2026-08-20T10:38:41Z</time>
      </trkpt>
      <trkpt lat="59.107767138630152" lon="30.484127467498183">
        <ele>56.369999999999997</ele>
        <time>2026-08-20T10:39:03Z</time>
      </trkpt>
      <trkpt lat="59.107719864696264" lon="30.484151523560286">
        <ele>56.369999999999997</ele>
        <time>2026-08-20T10:39:21Z</time>
      </trkpt>
      <trkpt lat="59.107711315155029" lon="30.484167030081153">
        <ele>54.93</ele>
        <time>2026-08-20T10:39:27Z</time>
      </trkpt>
      <trkpt lat="59.107524482533336" lon="30.484341541305184">
        <ele>56.369999999999997</ele>
        <time>2026-08-20T10:39:43Z</time>
      </trkpt>
      <trkpt lat="59.107454074546695" lon="30.484453607350588">
        <ele>56.369999999999997</ele>
        <time>2026-08-20T10:39:59Z</time>
      </trkpt>
      <trkpt lat="59.107433874160051" lon="30.484470874071121">
        <ele>56.369999999999997</ele>
        <time>2026-08-20T10:40:16Z</time>
      </trkpt>
      <trkpt lat="59.107394982129335" lon="30.484504485502839">
        <ele>56.369999999999997</ele>
        <time>2026-08-20T10:40:45Z</time>
      </trkpt>
      <trkpt lat="59.107385762035847" lon="30.484585957601666">
        <ele>54.93</ele>
        <time>2026-08-20T10:41:11Z</time>
      </trkpt>
      <trkpt lat="59.107399675995111" lon="30.484647480770946">
        <ele>54.93</ele>
        <time>2026-08-20T10:41:28Z</time>
      </trkpt>
      <trkpt lat="59.107395233586431" lon="30.484678912907839">
        <ele>54.93</ele>
        <time>2026-08-20T10:41:57Z</time>
      </trkpt>
      <trkpt lat="59.107384840026498" lon="30.484737250953913">
        <ele>54.93</ele>
        <time>2026-08-20T10:42:16Z</time>
      </trkpt>
      <trkpt lat="59.107389785349369" lon="30.484936740249395">
        <ele>54.93</ele>
        <time>2026-08-20T10:42:34Z</time>
      </trkpt>
      <trkpt lat="59.107417529448867" lon="30.485065151005983">
        <ele>54.93</ele>
        <time>2026-08-20T10:42:48Z</time>
      </trkpt>
      <trkpt lat="59.107460528612137" lon="30.485234297811985">
        <ele>56.369999999999997</ele>
        <time>2026-08-20T10:43:06Z</time>
      </trkpt>
      <trkpt lat="59.107464468106627" lon="30.485295904800296">
        <ele>54.93</ele>
        <time>2026-08-20T10:43:15Z</time>
      </trkpt>
      <trkpt lat="59.107465976849198" lon="30.485308645293117">
        <ele>54.93</ele>
        <time>2026-08-20T10:43:35Z</time>
      </trkpt>
      <trkpt lat="59.107459522783756" lon="30.485326750203967">
        <ele>54.93</ele>
        <time>2026-08-20T10:43:51Z</time>
      </trkpt>
      <trkpt lat="59.107418954372406" lon="30.485374946147203">
        <ele>54.93</ele>
        <time>2026-08-20T10:44:09Z</time>
      </trkpt>
      <trkpt lat="59.107413254678249" lon="30.485469913110137">
        <ele>54.93</ele>
        <time>2026-08-20T10:44:23Z</time>
      </trkpt>
      <trkpt lat="59.10742842592299" lon="30.485633779317141">
        <ele>54.93</ele>
        <time>2026-08-20T10:44:41Z</time>
      </trkpt>
      <trkpt lat="59.107411243021488" lon="30.485673928633332">
        <ele>54.93</ele>
        <time>2026-08-20T10:45:01Z</time>
      </trkpt>
      <trkpt lat="59.107408812269568" lon="30.485729584470391">
        <ele>54.93</ele>
        <time>2026-08-20T10:45:20Z</time>
      </trkpt>
      <trkpt lat="59.107416272163391" lon="30.4857705719769">
        <ele>56.369999999999997</ele>
        <time>2026-08-20T10:45:42Z</time>
      </trkpt>
      <trkpt lat="59.10744016058743" lon="30.485918428748846">
        <ele>56.369999999999997</ele>
        <time>2026-08-20T10:46:01Z</time>
      </trkpt>
      <trkpt lat="59.107464887201786" lon="30.486118588596582">
        <ele>56.369999999999997</ele>
        <time>2026-08-20T10:46:19Z</time>
      </trkpt>
      <trkpt lat="59.107473101466894" lon="30.486201234161854">
        <ele>54.93</ele>
        <time>2026-08-20T10:46:40Z</time>
      </trkpt>
      <trkpt lat="59.107484584674239" lon="30.486278599128127">
        <ele>56.369999999999997</ele>
        <time>2026-08-20T10:46:51Z</time>
      </trkpt>
      <trkpt lat="59.107493637129664" lon="30.486275497823954">
        <ele>55.409999999999997</ele>
        <time>2026-08-20T10:47:09Z</time>
      </trkpt>
      <trkpt lat="59.107483997941017" lon="30.486317491158843">
        <ele>55.409999999999997</ele>
        <time>2026-08-20T10:47:28Z</time>
      </trkpt>
      <trkpt lat="59.10741769708693" lon="30.486506503075361">
        <ele>55.409999999999997</ele>
        <time>2026-08-20T10:47:46Z</time>
      </trkpt>
      <trkpt lat="59.10741769708693" lon="30.486518824473023">
        <ele>56.859999999999999</ele>
        <time>2026-08-20T10:47:49Z</time>
      </trkpt>
      <trkpt lat="59.107408309355378" lon="30.486535504460335">
        <ele>55.409999999999997</ele>
        <time>2026-08-20T10:47:54Z</time>
      </trkpt>
      <trkpt lat="59.107381738722324" lon="30.486563835293055">
        <ele>56.859999999999999</ele>
        <time>2026-08-20T10:48:06Z</time>
      </trkpt>
      <trkpt lat="59.10734536126256" lon="30.4866339918226">
        <ele>55.890000000000001</ele>
        <time>2026-08-20T10:48:23Z</time>
      </trkpt>
      <trkpt lat="59.10733949393034" lon="30.486717140302062">
        <ele>55.409999999999997</ele>
        <time>2026-08-20T10:48:37Z</time>
      </trkpt>
      <trkpt lat="59.107350055128336" lon="30.486888717859983">
        <ele>55.409999999999997</ele>
        <time>2026-08-20T10:48:56Z</time>
      </trkpt>
      <trkpt lat="59.107336224988103" lon="30.486973877996206">
        <ele>55.409999999999997</ele>
        <time>2026-08-20T10:49:16Z</time>
      </trkpt>
      <trkpt lat="59.107290543615818" lon="30.487184599041939">
        <ele>55.409999999999997</ele>
        <time>2026-08-20T10:49:35Z</time>
      </trkpt>
      <trkpt lat="59.107278473675251" lon="30.487265568226576">
        <ele>55.409999999999997</ele>
        <time>2026-08-20T10:49:55Z</time>
      </trkpt>
      <trkpt lat="59.107345445081592" lon="30.48748467117548">
        <ele>55.409999999999997</ele>
        <time>2026-08-20T10:50:10Z</time>
      </trkpt>
      <trkpt lat="59.107365729287267" lon="30.487582571804523">
        <ele>55.409999999999997</ele>
        <time>2026-08-20T10:50:32Z</time>
      </trkpt>
      <trkpt lat="59.107380816712976" lon="30.48766597174108">
        <ele>56.369999999999997</ele>
        <time>2026-08-20T10:50:35Z</time>
      </trkpt>
      <trkpt lat="59.107407806441188" lon="30.487758172675967">
        <ele>56.369999999999997</ele>
        <time>2026-08-20T10:50:48Z</time>
      </trkpt>
      <trkpt lat="59.107444267719984" lon="30.48785456456244">
        <ele>55.890000000000001</ele>
        <time>2026-08-20T10:51:06Z</time>
      </trkpt>
      <trkpt lat="59.107504785060883" lon="30.488107614219189">
        <ele>55.890000000000001</ele>
        <time>2026-08-20T10:51:26Z</time>
      </trkpt>
      <trkpt lat="59.107581730931997" lon="30.488276258111">
        <ele>55.890000000000001</ele>
        <time>2026-08-20T10:51:43Z</time>
      </trkpt>
      <trkpt lat="59.107637470588088" lon="30.48847708851099">
        <ele>57.340000000000003</ele>
        <time>2026-08-20T10:51:53Z</time>
      </trkpt>
      <trkpt lat="59.107666304334998" lon="30.488540204241872">
        <ele>56.369999999999997</ele>
        <time>2026-08-20T10:52:05Z</time>
      </trkpt>
      <trkpt lat="59.107679212465882" lon="30.488559566438198">
        <ele>55.890000000000001</ele>
        <time>2026-08-20T10:52:22Z</time>
      </trkpt>
      <trkpt lat="59.107660856097937" lon="30.488560907542706">
        <ele>55.890000000000001</ele>
        <time>2026-08-20T10:52:36Z</time>
      </trkpt>
      <trkpt lat="59.107668064534664" lon="30.488712368533015">
        <ele>57.340000000000003</ele>
        <time>2026-08-20T10:52:46Z</time>
      </trkpt>
      <trkpt lat="59.107624813914299" lon="30.488830888643861">
        <ele>55.890000000000001</ele>
        <time>2026-08-20T10:53:08Z</time>
      </trkpt>
      <trkpt lat="59.107536803930998" lon="30.489117046818137">
        <ele>55.890000000000001</ele>
        <time>2026-08-20T10:53:26Z</time>
      </trkpt>
      <trkpt lat="59.1075056232512" lon="30.489145377650857">
        <ele>55.409999999999997</ele>
        <time>2026-08-20T10:54:00Z</time>
      </trkpt>
      <trkpt lat="59.107522470876575" lon="30.489136325195432">
        <ele>55.890000000000001</ele>
        <time>2026-08-20T10:54:29Z</time>
      </trkpt>
      <trkpt lat="59.107525739818811" lon="30.48916457220912">
        <ele>55.409999999999997</ele>
        <time>2026-08-20T10:54:48Z</time>
      </trkpt>
      <trkpt lat="59.107490619644523" lon="30.489358110353351">
        <ele>55.409999999999997</ele>
        <time>2026-08-20T10:55:07Z</time>
      </trkpt>
      <trkpt lat="59.107468826696277" lon="30.489459866657853">
        <ele>55.409999999999997</ele>
        <time>2026-08-20T10:55:19Z</time>
      </trkpt>
      <trkpt lat="59.107480812817812" lon="30.489499345421791">
        <ele>55.409999999999997</ele>
        <time>2026-08-20T10:55:38Z</time>
      </trkpt>
      <trkpt lat="59.107472011819482" lon="30.489703444764018">
        <ele>55.409999999999997</ele>
        <time>2026-08-20T10:55:57Z</time>
      </trkpt>
      <trkpt lat="59.107471676543355" lon="30.489830430597067">
        <ele>54.93</ele>
        <time>2026-08-20T10:56:15Z</time>
      </trkpt>
      <trkpt lat="59.107467737048864" lon="30.489892205223441">
        <ele>56.369999999999997</ele>
        <time>2026-08-20T10:56:21Z</time>
      </trkpt>
      <trkpt lat="59.107541413977742" lon="30.49024298787117">
        <ele>56.369999999999997</ele>
        <time>2026-08-20T10:56:39Z</time>
      </trkpt>
      <trkpt lat="59.107578210532665" lon="30.490317167714238">
        <ele>56.369999999999997</ele>
        <time>2026-08-20T10:56:58Z</time>
      </trkpt>
      <trkpt lat="59.107623472809792" lon="30.490468209609389">
        <ele>56.369999999999997</ele>
        <time>2026-08-20T10:57:16Z</time>
      </trkpt>
      <trkpt lat="59.107631854712963" lon="30.490511963143945">
        <ele>56.369999999999997</ele>
        <time>2026-08-20T10:57:32Z</time>
      </trkpt>
      <trkpt lat="59.107586089521646" lon="30.490737017244101">
        <ele>56.369999999999997</ele>
        <time>2026-08-20T10:57:50Z</time>
      </trkpt>
      <trkpt lat="59.107607128098607" lon="30.490809855982661">
        <ele>56.859999999999999</ele>
        <time>2026-08-20T10:58:10Z</time>
      </trkpt>
      <trkpt lat="59.107630010694265" lon="30.490944301709533">
        <ele>56.859999999999999</ele>
        <time>2026-08-20T10:58:29Z</time>
      </trkpt>
      <trkpt lat="59.107646690681577" lon="30.491028456017375">
        <ele>56.859999999999999</ele>
        <time>2026-08-20T10:58:48Z</time>
      </trkpt>
      <trkpt lat="59.107660185545683" lon="30.491189304739237">
        <ele>56.859999999999999</ele>
        <time>2026-08-20T10:59:08Z</time>
      </trkpt>
      <trkpt lat="59.107665466144681" lon="30.491443444043398">
        <ele>56.859999999999999</ele>
        <time>2026-08-20T10:59:24Z</time>
      </trkpt>
      <trkpt lat="59.107694886624813" lon="30.491640921682119">
        <ele>56.859999999999999</ele>
        <time>2026-08-20T10:59:42Z</time>
      </trkpt>
      <trkpt lat="59.107695054262877" lon="30.491691967472434">
        <ele>57.340000000000003</ele>
        <time>2026-08-20T11:00:01Z</time>
      </trkpt>
      <trkpt lat="59.107697317376733" lon="30.491698840633035">
        <ele>55.890000000000001</ele>
        <time>2026-08-20T11:00:03Z</time>
      </trkpt>
      <trkpt lat="59.107704609632492" lon="30.491749802604318">
        <ele>55.409999999999997</ele>
        <time>2026-08-20T11:00:33Z</time>
      </trkpt>
      <trkpt lat="59.107701173052192" lon="30.491810403764248">
        <ele>55.409999999999997</ele>
        <time>2026-08-20T11:00:53Z</time>
      </trkpt>
      <trkpt lat="59.107707208022475" lon="30.491885505616665">
        <ele>56.369999999999997</ele>
        <time>2026-08-20T11:01:12Z</time>
      </trkpt>
      <trkpt lat="59.10771475173533" lon="30.491976030170918">
        <ele>56.369999999999997</ele>
        <time>2026-08-20T11:01:30Z</time>
      </trkpt>
      <trkpt lat="59.107716260477901" lon="30.49221315421164">
        <ele>56.369999999999997</ele>
        <time>2026-08-20T11:01:45Z</time>
      </trkpt>
      <trkpt lat="59.107695389539003" lon="30.49229227937758">
        <ele>57.82</ele>
        <time>2026-08-20T11:01:56Z</time>
      </trkpt>
      <trkpt lat="59.10770351998508" lon="30.492370566353202">
        <ele>55.890000000000001</ele>
        <time>2026-08-20T11:02:14Z</time>
      </trkpt>
      <trkpt lat="59.107691114768386" lon="30.492412224411964">
        <ele>55.890000000000001</ele>
        <time>2026-08-20T11:02:35Z</time>
      </trkpt>
      <trkpt lat="59.107673093676567" lon="30.492461258545518">
        <ele>55.890000000000001</ele>
        <time>2026-08-20T11:02:53Z</time>
      </trkpt>
      <trkpt lat="59.107664544135332" lon="30.492499060928822">
        <ele>55.890000000000001</ele>
        <time>2026-08-20T11:03:09Z</time>
      </trkpt>
      <trkpt lat="59.107655324041843" lon="30.492530828341842">
        <ele>55.890000000000001</ele>
        <time>2026-08-20T11:03:26Z</time>
      </trkpt>
      <trkpt lat="59.107653312385082" lon="30.49256594851613">
        <ele>55.890000000000001</ele>
        <time>2026-08-20T11:03:47Z</time>
      </trkpt>
      <trkpt lat="59.107655324041843" lon="30.492551364004612">
        <ele>56.859999999999999</ele>
        <time>2026-08-20T11:03:57Z</time>
      </trkpt>
      <trkpt lat="59.107661191374063" lon="30.492552788928151">
        <ele>55.409999999999997</ele>
        <time>2026-08-20T11:04:03Z</time>
      </trkpt>
      <trkpt lat="59.107682062312961" lon="30.492560751736164">
        <ele>55.409999999999997</ele>
        <time>2026-08-20T11:04:22Z</time>
      </trkpt>
      <trkpt lat="59.107708297669888" lon="30.492572905495763">
        <ele>56.859999999999999</ele>
        <time>2026-08-20T11:04:26Z</time>
      </trkpt>
      <trkpt lat="59.107744842767715" lon="30.492547508329153">
        <ele>56.859999999999999</ele>
        <time>2026-08-20T11:04:42Z</time>
      </trkpt>
      <trkpt lat="59.107790105044842" lon="30.492583885788918">
        <ele>56.859999999999999</ele>
        <time>2026-08-20T11:05:04Z</time>
      </trkpt>
      <trkpt lat="59.107810137793422" lon="30.492613893002272">
        <ele>55.890000000000001</ele>
        <time>2026-08-20T11:05:27Z</time>
      </trkpt>
      <trkpt lat="59.107817094773054" lon="30.492684636265039">
        <ele>55.890000000000001</ele>
        <time>2026-08-20T11:05:44Z</time>
      </trkpt>
      <trkpt lat="59.107816843315959" lon="30.492711123079062">
        <ele>55.409999999999997</ele>
        <time>2026-08-20T11:05:49Z</time>
      </trkpt>
      <trkpt lat="59.107764288783073" lon="30.492821848019958">
        <ele>55.409999999999997</ele>
        <time>2026-08-20T11:06:08Z</time>
      </trkpt>
      <trkpt lat="59.107744172215462" lon="30.492976410314441">
        <ele>55.409999999999997</ele>
        <time>2026-08-20T11:06:24Z</time>
      </trkpt>
      <trkpt lat="59.10772942006588" lon="30.493102390319109">
        <ele>55.409999999999997</ele>
        <time>2026-08-20T11:06:39Z</time>
      </trkpt>
      <trkpt lat="59.107715925201774" lon="30.493151927366853">
        <ele>55.409999999999997</ele>
        <time>2026-08-20T11:06:54Z</time>
      </trkpt>
      <trkpt lat="59.107718607410789" lon="30.493201464414597">
        <ele>56.859999999999999</ele>
        <time>2026-08-20T11:07:08Z</time>
      </trkpt>
      <trkpt lat="59.107721541076899" lon="30.493205906823277">
        <ele>56.859999999999999</ele>
        <time>2026-08-20T11:07:10Z</time>
      </trkpt>
      <trkpt lat="59.107729671522975" lon="30.493256449699402">
        <ele>57.340000000000003</ele>
        <time>2026-08-20T11:07:25Z</time>
      </trkpt>
      <trkpt lat="59.1077318508178" lon="30.493264999240637">
        <ele>55.890000000000001</ele>
        <time>2026-08-20T11:07:26Z</time>
      </trkpt>
      <trkpt lat="59.107744423672557" lon="30.493390895426273">
        <ele>55.409999999999997</ele>
        <time>2026-08-20T11:07:40Z</time>
      </trkpt>
      <trkpt lat="59.10774752497673" lon="30.493431212380528">
        <ele>56.369999999999997</ele>
        <time>2026-08-20T11:07:53Z</time>
      </trkpt>
      <trkpt lat="59.107748866081238" lon="30.493536405265331">
        <ele>56.369999999999997</ele>
        <time>2026-08-20T11:08:04Z</time>
      </trkpt>
      <trkpt lat="59.107730342075229" lon="30.493707060813904">
        <ele>56.369999999999997</ele>
        <time>2026-08-20T11:08:18Z</time>
      </trkpt>
      <trkpt lat="59.107769401744008" lon="30.493775540962815">
        <ele>55.409999999999997</ele>
        <time>2026-08-20T11:08:34Z</time>
      </trkpt>
      <trkpt lat="59.107771497219801" lon="30.4938436858356">
        <ele>56.369999999999997</ele>
        <time>2026-08-20T11:08:48Z</time>
      </trkpt>
      <trkpt lat="59.10777191631496" lon="30.49384611658752">
        <ele>55.409999999999997</ele>
        <time>2026-08-20T11:08:50Z</time>
      </trkpt>
      <trkpt lat="59.107798403128982" lon="30.493983579799533">
        <ele>55.409999999999997</ele>
        <time>2026-08-20T11:09:11Z</time>
      </trkpt>
      <trkpt lat="59.107821369543672" lon="30.494348611682653">
        <ele>55.409999999999997</ele>
        <time>2026-08-20T11:09:33Z</time>
      </trkpt>
      <trkpt lat="59.1077870875597" lon="30.494608618319035">
        <ele>55.409999999999997</ele>
        <time>2026-08-20T11:09:49Z</time>
      </trkpt>
      <trkpt lat="59.107793038710952" lon="30.494638038799167">
        <ele>55.409999999999997</ele>
        <time>2026-08-20T11:10:05Z</time>
      </trkpt>
      <trkpt lat="59.107799911871552" lon="30.494679193943739">
        <ele>55.409999999999997</ele>
        <time>2026-08-20T11:10:24Z</time>
      </trkpt>
      <trkpt lat="59.107789015397429" lon="30.494736358523369">
        <ele>54.93</ele>
        <time>2026-08-20T11:10:41Z</time>
      </trkpt>
      <trkpt lat="59.107773089781404" lon="30.494816321879625">
        <ele>54.450000000000003</ele>
        <time>2026-08-20T11:10:56Z</time>
      </trkpt>
      <trkpt lat="59.107743753120303" lon="30.494971303269267">
        <ele>54.450000000000003</ele>
        <time>2026-08-20T11:11:14Z</time>
      </trkpt>
      <trkpt lat="59.107740484178066" lon="30.494981864467263">
        <ele>55.890000000000001</ele>
        <time>2026-08-20T11:11:17Z</time>
      </trkpt>
      <trkpt lat="59.107707710936666" lon="30.495109939947724">
        <ele>53.969999999999999</ele>
        <time>2026-08-20T11:11:49Z</time>
      </trkpt>
      <trkpt lat="59.107695138081908" lon="30.495153274387121">
        <ele>55.409999999999997</ele>
        <time>2026-08-20T11:12:00Z</time>
      </trkpt>
      <trkpt lat="59.107686672359705" lon="30.495185209438205">
        <ele>53.969999999999999</ele>
        <time>2026-08-20T11:12:20Z</time>
      </trkpt>
      <trkpt lat="59.107701759785414" lon="30.495205074548721">
        <ele>53.969999999999999</ele>
        <time>2026-08-20T11:12:38Z</time>
      </trkpt>
      <trkpt lat="59.107736628502607" lon="30.495280846953392">
        <ele>54.93</ele>
        <time>2026-08-20T11:13:01Z</time>
      </trkpt>
      <trkpt lat="59.107755487784743" lon="30.4953339882195">
        <ele>53.490000000000002</ele>
        <time>2026-08-20T11:13:20Z</time>
      </trkpt>
      <trkpt lat="59.107769317924976" lon="30.495408000424504">
        <ele>53.009999999999998</ele>
        <time>2026-08-20T11:13:40Z</time>
      </trkpt>
      <trkpt lat="59.107779376208782" lon="30.495539009571075">
        <ele>53.009999999999998</ele>
        <time>2026-08-20T11:13:57Z</time>
      </trkpt>
      <trkpt lat="59.107801085337996" lon="30.495746545493603">
        <ele>53.009999999999998</ele>
        <time>2026-08-20T11:14:09Z</time>
      </trkpt>
      <trkpt lat="59.107855316251516" lon="30.4959159437567">
        <ele>53.009999999999998</ele>
        <time>2026-08-20T11:14:28Z</time>
      </trkpt>
      <trkpt lat="59.107910552993417" lon="30.496096154674888">
        <ele>53.009999999999998</ele>
        <time>2026-08-20T11:14:45Z</time>
      </trkpt>
      <trkpt lat="59.107931507751346" lon="30.496285920962691">
        <ele>53.009999999999998</ele>
        <time>2026-08-20T11:15:05Z</time>
      </trkpt>
      <trkpt lat="59.107927400618792" lon="30.496431430801749">
        <ele>52.530000000000001</ele>
        <time>2026-08-20T11:15:21Z</time>
      </trkpt>
      <trkpt lat="59.107952546328306" lon="30.496685905382037">
        <ele>52.530000000000001</ele>
        <time>2026-08-20T11:15:40Z</time>
      </trkpt>
      <trkpt lat="59.107976015657187" lon="30.496906852349639">
        <ele>52.530000000000001</ele>
        <time>2026-08-20T11:15:54Z</time>
      </trkpt>
      <trkpt lat="59.107977608218789" lon="30.497006177902222">
        <ele>53.969999999999999</ele>
        <time>2026-08-20T11:16:15Z</time>
      </trkpt>
      <trkpt lat="59.107982804998755" lon="30.497019086033106">
        <ele>52.530000000000001</ele>
        <time>2026-08-20T11:16:18Z</time>
      </trkpt>
      <trkpt lat="59.108026055619121" lon="30.497113633900881">
        <ele>52.530000000000001</ele>
        <time>2026-08-20T11:16:36Z</time>
      </trkpt>
      <trkpt lat="59.108063690364361" lon="30.49726216122508">
        <ele>52.530000000000001</ele>
        <time>2026-08-20T11:16:54Z</time>
      </trkpt>
      <trkpt lat="59.108106438070536" lon="30.49739652313292">
        <ele>52.049999999999997</ele>
        <time>2026-08-20T11:17:11Z</time>
      </trkpt>
      <trkpt lat="59.108108030632138" lon="30.497400546446443">
        <ele>53.490000000000002</ele>
        <time>2026-08-20T11:17:12Z</time>
      </trkpt>
      <trkpt lat="59.108137954026461" lon="30.497467936947942">
        <ele>52.049999999999997</ele>
        <time>2026-08-20T11:17:29Z</time>
      </trkpt>
      <trkpt lat="59.108153376728296" lon="30.497531723231077">
        <ele>52.049999999999997</ele>
        <time>2026-08-20T11:17:43Z</time>
      </trkpt>
      <trkpt lat="59.108176594600081" lon="30.497627696022391">
        <ele>52.049999999999997</ele>
        <time>2026-08-20T11:17:59Z</time>
      </trkpt>
      <trkpt lat="59.10817458294332" lon="30.497650662437081">
        <ele>53.490000000000002</ele>
        <time>2026-08-20T11:18:02Z</time>
      </trkpt>
      <trkpt lat="59.108202327042818" lon="30.49771755002439">
        <ele>53.490000000000002</ele>
        <time>2026-08-20T11:18:22Z</time>
      </trkpt>
      <trkpt lat="59.108231160789728" lon="30.497853169217706">
        <ele>52.530000000000001</ele>
        <time>2026-08-20T11:18:37Z</time>
      </trkpt>
      <trkpt lat="59.10820048302412" lon="30.498006641864777">
        <ele>52.530000000000001</ele>
        <time>2026-08-20T11:18:52Z</time>
      </trkpt>
      <trkpt lat="59.108181791380048" lon="30.498090460896492">
        <ele>52.530000000000001</ele>
        <time>2026-08-20T11:19:05Z</time>
      </trkpt>
      <trkpt lat="59.108154969289899" lon="30.498190959915519">
        <ele>52.530000000000001</ele>
        <time>2026-08-20T11:19:19Z</time>
      </trkpt>
      <trkpt lat="59.108121274039149" lon="30.498310988768935">
        <ele>52.530000000000001</ele>
        <time>2026-08-20T11:19:32Z</time>
      </trkpt>
      <trkpt lat="59.108103588223457" lon="30.498528918251395">
        <ele>52.530000000000001</ele>
        <time>2026-08-20T11:19:45Z</time>
      </trkpt>
      <trkpt lat="59.108100151643157" lon="30.498596392571926">
        <ele>52.530000000000001</ele>
        <time>2026-08-20T11:19:58Z</time>
      </trkpt>
      <trkpt lat="59.108101576566696" lon="30.49864643253386">
        <ele>52.530000000000001</ele>
        <time>2026-08-20T11:20:12Z</time>
      </trkpt>
      <trkpt lat="59.108100738376379" lon="30.498706111684442">
        <ele>52.530000000000001</ele>
        <time>2026-08-20T11:20:35Z</time>
      </trkpt>
      <trkpt lat="59.108097888529301" lon="30.498754810541868">
        <ele>52.530000000000001</ele>
        <time>2026-08-20T11:20:59Z</time>
      </trkpt>
      <trkpt lat="59.108082382008433" lon="30.498811975121498">
        <ele>52.530000000000001</ele>
        <time>2026-08-20T11:21:13Z</time>
      </trkpt>
      <trkpt lat="59.10807684995234" lon="30.498926471918821">
        <ele>52.530000000000001</ele>
        <time>2026-08-20T11:21:26Z</time>
      </trkpt>
      <trkpt lat="59.108068132773042" lon="30.499010793864727">
        <ele>52.530000000000001</ele>
        <time>2026-08-20T11:21:39Z</time>
      </trkpt>
      <trkpt lat="59.108049524948001" lon="30.499119758605957">
        <ele>52.530000000000001</ele>
        <time>2026-08-20T11:21:52Z</time>
      </trkpt>
      <trkpt lat="59.108045501634479" lon="30.499165691435337">
        <ele>53.969999999999999</ele>
        <time>2026-08-20T11:21:56Z</time>
      </trkpt>
      <trkpt lat="59.10804558545351" lon="30.499195866286755">
        <ele>52.530000000000001</ele>
        <time>2026-08-20T11:21:59Z</time>
      </trkpt>
      <trkpt lat="59.108017841354012" lon="30.49935151822865">
        <ele>53.490000000000002</ele>
        <time>2026-08-20T11:22:14Z</time>
      </trkpt>
      <trkpt lat="59.108014572411776" lon="30.499369623139501">
        <ele>52.530000000000001</ele>
        <time>2026-08-20T11:22:20Z</time>
      </trkpt>
      <trkpt lat="59.108009291812778" lon="30.499426703900099">
        <ele>52.530000000000001</ele>
        <time>2026-08-20T11:22:36Z</time>
      </trkpt>
      <trkpt lat="59.108022283762693" lon="30.499645471572876">
        <ele>52.049999999999997</ele>
        <time>2026-08-20T11:22:51Z</time>
      </trkpt>
      <trkpt lat="59.10803091712296" lon="30.499693667516112">
        <ele>52.049999999999997</ele>
        <time>2026-08-20T11:22:56Z</time>
      </trkpt>
      <trkpt lat="59.108043238520622" lon="30.499808331951499">
        <ele>53.009999999999998</ele>
        <time>2026-08-20T11:23:08Z</time>
      </trkpt>
      <trkpt lat="59.108053212985396" lon="30.49985577352345">
        <ele>51.57</ele>
        <time>2026-08-20T11:23:20Z</time>
      </trkpt>
      <trkpt lat="59.108075173571706" lon="30.499921320006251">
        <ele>51.57</ele>
        <time>2026-08-20T11:23:35Z</time>
      </trkpt>
      <trkpt lat="59.108082884922624" lon="30.500039421021938">
        <ele>51.57</ele>
        <time>2026-08-20T11:23:47Z</time>
      </trkpt>
      <trkpt lat="59.108090344816446" lon="30.500165149569511">
        <ele>52.530000000000001</ele>
        <time>2026-08-20T11:23:59Z</time>
      </trkpt>
      <trkpt lat="59.108071066439152" lon="30.500341672450304">
        <ele>52.530000000000001</ele>
        <time>2026-08-20T11:24:13Z</time>
      </trkpt>
      <trkpt lat="59.108074251562357" lon="30.500438064336777">
        <ele>52.530000000000001</ele>
        <time>2026-08-20T11:24:25Z</time>
      </trkpt>
      <trkpt lat="59.108087662607431" lon="30.500479219481349">
        <ele>51.090000000000003</ele>
        <time>2026-08-20T11:24:36Z</time>
      </trkpt>
      <trkpt lat="59.10812177695334" lon="30.500611402094364">
        <ele>51.090000000000003</ele>
        <time>2026-08-20T11:24:51Z</time>
      </trkpt>
      <trkpt lat="59.108124375343323" lon="30.500741237774491">
        <ele>51.090000000000003</ele>
        <time>2026-08-20T11:25:05Z</time>
      </trkpt>
      <trkpt lat="59.108127392828465" lon="30.500805862247944">
        <ele>51.090000000000003</ele>
        <time>2026-08-20T11:25:22Z</time>
      </trkpt>
      <trkpt lat="59.108127979561687" lon="30.500809466466308">
        <ele>52.530000000000001</ele>
        <time>2026-08-20T11:25:23Z</time>
      </trkpt>
      <trkpt lat="59.108101576566696" lon="30.500947432592511">
        <ele>52.530000000000001</ele>
        <time>2026-08-20T11:25:40Z</time>
      </trkpt>
      <trkpt lat="59.108043406158686" lon="30.501003842800856">
        <ele>51.090000000000003</ele>
        <time>2026-08-20T11:25:54Z</time>
      </trkpt>
      <trkpt lat="59.108035191893578" lon="30.501028820872307">
        <ele>52.530000000000001</ele>
        <time>2026-08-20T11:25:59Z</time>
      </trkpt>
      <trkpt lat="59.108034521341324" lon="30.501111131161451">
        <ele>50.609999999999999</ele>
        <time>2026-08-20T11:26:06Z</time>
      </trkpt>
      <trkpt lat="59.108048686757684" lon="30.501169553026557">
        <ele>50.609999999999999</ele>
        <time>2026-08-20T11:26:21Z</time>
      </trkpt>
      <trkpt lat="59.108058158308268" lon="30.501199224963784">
        <ele>52.049999999999997</ele>
        <time>2026-08-20T11:26:37Z</time>
      </trkpt>
      <trkpt lat="59.108063774183393" lon="30.501212887465954">
        <ele>50.609999999999999</ele>
        <time>2026-08-20T11:26:43Z</time>
      </trkpt>
      <trkpt lat="59.108088165521622" lon="30.501294611021876">
        <ele>52.530000000000001</ele>
        <time>2026-08-20T11:27:03Z</time>
      </trkpt>
      <trkpt lat="59.108087243512273" lon="30.50134020857513">
        <ele>52.530000000000001</ele>
        <time>2026-08-20T11:27:13Z</time>
      </trkpt>
      <trkpt lat="59.108101492747664" lon="30.501467697322369">
        <ele>51.090000000000003</ele>
        <time>2026-08-20T11:27:22Z</time>
      </trkpt>
      <trkpt lat="59.108140468597412" lon="30.501533914357424">
        <ele>51.090000000000003</ele>
        <time>2026-08-20T11:27:39Z</time>
      </trkpt>
      <trkpt lat="59.108145162463188" lon="30.501566184684634">
        <ele>51.090000000000003</ele>
        <time>2026-08-20T11:28:05Z</time>
      </trkpt>
      <trkpt lat="59.108145413920283" lon="30.501583870500326">
        <ele>51.090000000000003</ele>
        <time>2026-08-20T11:28:06Z</time>
      </trkpt>
      <trkpt lat="59.108207440003753" lon="30.501719992607832">
        <ele>51.090000000000003</ele>
        <time>2026-08-20T11:28:26Z</time>
      </trkpt>
      <trkpt lat="59.108228562399745" lon="30.501816971227527">
        <ele>50.130000000000003</ele>
        <time>2026-08-20T11:28:49Z</time>
      </trkpt>
      <trkpt lat="59.108223281800747" lon="30.501972120255232">
        <ele>50.130000000000003</ele>
        <time>2026-08-20T11:29:06Z</time>
      </trkpt>
      <trkpt lat="59.108181456103921" lon="30.502062393352389">
        <ele>50.130000000000003</ele>
        <time>2026-08-20T11:29:24Z</time>
      </trkpt>
      <trkpt lat="59.108155304566026" lon="30.502089466899633">
        <ele>50.130000000000003</ele>
        <time>2026-08-20T11:29:38Z</time>
      </trkpt>
      <trkpt lat="59.108156561851501" lon="30.502099189907312">
        <ele>51.57</ele>
        <time>2026-08-20T11:29:44Z</time>
      </trkpt>
      <trkpt lat="59.108144072815776" lon="30.502157276496291">
        <ele>51.090000000000003</ele>
        <time>2026-08-20T11:30:05Z</time>
      </trkpt>
      <trkpt lat="59.108143737539649" lon="30.502166748046875">
        <ele>51.090000000000003</ele>
        <time>2026-08-20T11:30:06Z</time>
      </trkpt>
      <trkpt lat="59.108139043673873" lon="30.50219239667058">
        <ele>51.57</ele>
        <time>2026-08-20T11:30:23Z</time>
      </trkpt>
      <trkpt lat="59.108147593215108" lon="30.502241011708975">
        <ele>50.130000000000003</ele>
        <time>2026-08-20T11:30:41Z</time>
      </trkpt>
      <trkpt lat="59.108135104179382" lon="30.502310246229172">
        <ele>50.130000000000003</ele>
        <time>2026-08-20T11:30:59Z</time>
      </trkpt>
      <trkpt lat="59.108135607093573" lon="30.502346204593778">
        <ele>51.090000000000003</ele>
        <time>2026-08-20T11:31:18Z</time>
      </trkpt>
      <trkpt lat="59.108133427798748" lon="30.502358945086598">
        <ele>50.130000000000003</ele>
        <time>2026-08-20T11:31:24Z</time>
      </trkpt>
      <trkpt lat="59.108132086694241" lon="30.502392640337348">
        <ele>50.130000000000003</ele>
        <time>2026-08-20T11:31:40Z</time>
      </trkpt>
      <trkpt lat="59.10812621936202" lon="30.502402447164059">
        <ele>51.090000000000003</ele>
        <time>2026-08-20T11:31:44Z</time>
      </trkpt>
      <trkpt lat="59.108125045895576" lon="30.502465395256877">
        <ele>50.130000000000003</ele>
        <time>2026-08-20T11:32:01Z</time>
      </trkpt>
      <trkpt lat="59.108120687305927" lon="30.502492804080248">
        <ele>51.090000000000003</ele>
        <time>2026-08-20T11:32:10Z</time>
      </trkpt>
      <trkpt lat="59.108087243512273" lon="30.50255985930562">
        <ele>51.090000000000003</ele>
        <time>2026-08-20T11:32:42Z</time>
      </trkpt>
      <trkpt lat="59.108075760304928" lon="30.502566481009126">
        <ele>51.090000000000003</ele>
        <time>2026-08-20T11:33:03Z</time>
      </trkpt>
      <trkpt lat="59.108062097802758" lon="30.502575617283583">
        <ele>51.090000000000003</ele>
        <time>2026-08-20T11:33:19Z</time>
      </trkpt>
      <trkpt lat="59.107982302084565" lon="30.502539072185755">
        <ele>51.090000000000003</ele>
        <time>2026-08-20T11:33:32Z</time>
      </trkpt>
      <trkpt lat="59.107933435589075" lon="30.502590872347355">
        <ele>51.090000000000003</ele>
        <time>2026-08-20T11:33:44Z</time>
      </trkpt>
      <trkpt lat="59.107816843315959" lon="30.502603696659207">
        <ele>50.130000000000003</ele>
        <time>2026-08-20T11:33:57Z</time>
      </trkpt>
      <trkpt lat="59.107724810019135" lon="30.502568576484919">
        <ele>50.130000000000003</ele>
        <time>2026-08-20T11:34:09Z</time>
      </trkpt>
      <trkpt lat="59.10765171982348" lon="30.502559524029493">
        <ele>51.090000000000003</ele>
        <time>2026-08-20T11:34:25Z</time>
      </trkpt>
      <trkpt lat="59.107634788379073" lon="30.502556841820478">
        <ele>51.57</ele>
        <time>2026-08-20T11:34:39Z</time>
      </trkpt>
      <trkpt lat="59.107618862763047" lon="30.502568744122982">
        <ele>50.609999999999999</ele>
        <time>2026-08-20T11:35:07Z</time>
      </trkpt>
      <trkpt lat="59.107613749802113" lon="30.50256522372365">
        <ele>50.609999999999999</ele>
        <time>2026-08-20T11:35:30Z</time>
      </trkpt>
      <trkpt lat="59.107610145583749" lon="30.502566900104284">
        <ele>50.609999999999999</ele>
        <time>2026-08-20T11:35:46Z</time>
      </trkpt>
      <trkpt lat="59.107610816136003" lon="30.502555752173066">
        <ele>49.649999999999999</ele>
        <time>2026-08-20T11:36:05Z</time>
      </trkpt>
      <trkpt lat="59.107621880248189" lon="30.502505544573069">
        <ele>51.090000000000003</ele>
        <time>2026-08-20T11:36:19Z</time>
      </trkpt>
      <trkpt lat="59.107615342363715" lon="30.502373864874244">
        <ele>51.090000000000003</ele>
        <time>2026-08-20T11:36:36Z</time>
      </trkpt>
      <trkpt lat="59.107611067593098" lon="30.502323992550373">
        <ele>51.090000000000003</ele>
        <time>2026-08-20T11:36:53Z</time>
      </trkpt>
      <trkpt lat="59.107624143362045" lon="30.502209914848208">
        <ele>51.090000000000003</ele>
        <time>2026-08-20T11:37:09Z</time>
      </trkpt>
      <trkpt lat="59.107624730095267" lon="30.502197174355388">
        <ele>50.130000000000003</ele>
        <time>2026-08-20T11:37:13Z</time>
      </trkpt>
      <trkpt lat="59.107634201645851" lon="30.502105392515659">
        <ele>51.090000000000003</ele>
        <time>2026-08-20T11:37:22Z</time>
      </trkpt>
      <trkpt lat="59.107630094513297" lon="30.50196273252368">
        <ele>50.130000000000003</ele>
        <time>2026-08-20T11:37:37Z</time>
      </trkpt>
      <trkpt lat="59.107581563293934" lon="30.501760980114341">
        <ele>51.090000000000003</ele>
        <time>2026-08-20T11:37:51Z</time>
      </trkpt>
      <trkpt lat="59.107565050944686" lon="30.501656793057919">
        <ele>50.609999999999999</ele>
        <time>2026-08-20T11:38:08Z</time>
      </trkpt>
      <trkpt lat="59.107578126713634" lon="30.501555791124701">
        <ele>51.57</ele>
        <time>2026-08-20T11:38:23Z</time>
      </trkpt>
      <trkpt lat="59.107578713446856" lon="30.501550426706672">
        <ele>51.57</ele>
        <time>2026-08-20T11:38:24Z</time>
      </trkpt>
      <trkpt lat="59.107563123106956" lon="30.501332329586148">
        <ele>50.609999999999999</ele>
        <time>2026-08-20T11:38:38Z</time>
      </trkpt>
      <trkpt lat="59.107565805315971" lon="30.501257563009858">
        <ele>50.609999999999999</ele>
        <time>2026-08-20T11:38:53Z</time>
      </trkpt>
      <trkpt lat="59.107546778395772" lon="30.501152705401182">
        <ele>50.609999999999999</ele>
        <time>2026-08-20T11:39:12Z</time>
      </trkpt>
      <trkpt lat="59.107548957690597" lon="30.501115825027227">
        <ele>50.609999999999999</ele>
        <time>2026-08-20T11:39:39Z</time>
      </trkpt>
      <trkpt lat="59.10754669457674" lon="30.50106855109334">
        <ele>51.57</ele>
        <time>2026-08-20T11:39:59Z</time>
      </trkpt>
      <trkpt lat="59.107544431462884" lon="30.501006441190839">
        <ele>50.130000000000003</ele>
        <time>2026-08-20T11:40:14Z</time>
      </trkpt>
      <trkpt lat="59.107536049559712" lon="30.50090778619051">
        <ele>52.049999999999997</ele>
        <time>2026-08-20T11:40:20Z</time>
      </trkpt>
      <trkpt lat="59.107542084529996" lon="30.500889094546437">
        <ele>50.609999999999999</ele>
        <time>2026-08-20T11:40:23Z</time>
      </trkpt>
      <trkpt lat="59.107498414814472" lon="30.500736376270652">
        <ele>52.049999999999997</ele>
        <time>2026-08-20T11:40:37Z</time>
      </trkpt>
      <trkpt lat="59.107488356530666" lon="30.500702597200871">
        <ele>50.609999999999999</ele>
        <time>2026-08-20T11:40:43Z</time>
      </trkpt>
      <trkpt lat="59.107479220256209" lon="30.500664375722408">
        <ele>51.57</ele>
        <time>2026-08-20T11:40:50Z</time>
      </trkpt>
      <trkpt lat="59.107467653229833" lon="30.500614251941442">
        <ele>50.609999999999999</ele>
        <time>2026-08-20T11:41:05Z</time>
      </trkpt>
      <trkpt lat="59.10748366266489" lon="30.500512830913067">
        <ele>50.609999999999999</ele>
        <time>2026-08-20T11:41:20Z</time>
      </trkpt>
      <trkpt lat="59.107478214427829" lon="30.500428006052971">
        <ele>50.609999999999999</ele>
        <time>2026-08-20T11:41:33Z</time>
      </trkpt>
      <trkpt lat="59.107491374015808" lon="30.500378636643291">
        <ele>50.130000000000003</ele>
        <time>2026-08-20T11:41:49Z</time>
      </trkpt>
      <trkpt lat="59.10753739066422" lon="30.500259026885033">
        <ele>50.130000000000003</ele>
        <time>2026-08-20T11:42:05Z</time>
      </trkpt>
      <trkpt lat="59.107551304623485" lon="30.500235557556152">
        <ele>51.57</ele>
        <time>2026-08-20T11:42:09Z</time>
      </trkpt>
      <trkpt lat="59.10755985416472" lon="30.500162299722433">
        <ele>50.130000000000003</ele>
        <time>2026-08-20T11:42:21Z</time>
      </trkpt>
      <trkpt lat="59.107548203319311" lon="30.500115863978863">
        <ele>51.57</ele>
        <time>2026-08-20T11:42:36Z</time>
      </trkpt>
      <trkpt lat="59.107541162520647" lon="30.500099435448647">
        <ele>50.609999999999999</ele>
        <time>2026-08-20T11:42:50Z</time>
      </trkpt>
      <trkpt lat="59.107538312673569" lon="30.50008594058454">
        <ele>50.609999999999999</ele>
        <time>2026-08-20T11:43:14Z</time>
      </trkpt>
      <trkpt lat="59.107542000710964" lon="30.500069512054324">
        <ele>51.57</ele>
        <time>2026-08-20T11:43:37Z</time>
      </trkpt>
      <trkpt lat="59.107542084529996" lon="30.500066829845309">
        <ele>50.130000000000003</ele>
        <time>2026-08-20T11:43:41Z</time>
      </trkpt>
      <trkpt lat="59.107542335987091" lon="30.500063057988882">
        <ele>50.130000000000003</ele>
        <time>2026-08-20T11:43:43Z</time>
      </trkpt>
      <trkpt lat="59.107546359300613" lon="30.50002483651042">
        <ele>50.130000000000003</ele>
        <time>2026-08-20T11:43:59Z</time>
      </trkpt>
      <trkpt lat="59.107541246339679" lon="30.500013940036297">
        <ele>51.57</ele>
        <time>2026-08-20T11:44:08Z</time>
      </trkpt>
      <trkpt lat="59.107538647949696" lon="30.500001283362508">
        <ele>51.57</ele>
        <time>2026-08-20T11:44:10Z</time>
      </trkpt>
      <trkpt lat="59.107535546645522" lon="30.499987453222275">
        <ele>50.130000000000003</ele>
        <time>2026-08-20T11:44:16Z</time>
      </trkpt>
      <trkpt lat="59.107507467269897" lon="30.499926600605249">
        <ele>50.130000000000003</ele>
        <time>2026-08-20T11:44:31Z</time>
      </trkpt>
      <trkpt lat="59.107493804767728" lon="30.499869855120778">
        <ele>51.57</ele>
        <time>2026-08-20T11:44:42Z</time>
      </trkpt>
      <trkpt lat="59.107484752312303" lon="30.4998479783535">
        <ele>50.609999999999999</ele>
        <time>2026-08-20T11:44:54Z</time>
      </trkpt>
      <trkpt lat="59.107469161972404" lon="30.499810511246324">
        <ele>50.130000000000003</ele>
        <time>2026-08-20T11:45:11Z</time>
      </trkpt>
      <trkpt lat="59.107465222477913" lon="30.499776983633637">
        <ele>51.57</ele>
        <time>2026-08-20T11:45:17Z</time>
      </trkpt>
      <trkpt lat="59.10745139233768" lon="30.499739348888397">
        <ele>50.609999999999999</ele>
        <time>2026-08-20T11:45:31Z</time>
      </trkpt>
      <trkpt lat="59.107427839189768" lon="30.499663995578885">
        <ele>51.57</ele>
        <time>2026-08-20T11:45:46Z</time>
      </trkpt>
      <trkpt lat="59.10741426050663" lon="30.49956114962697">
        <ele>50.609999999999999</ele>
        <time>2026-08-20T11:45:59Z</time>
      </trkpt>
      <trkpt lat="59.107389114797115" lon="30.499410191550851">
        <ele>50.609999999999999</ele>
        <time>2026-08-20T11:46:13Z</time>
      </trkpt>
      <trkpt lat="59.107377463951707" lon="30.499380268156528">
        <ele>52.049999999999997</ele>
        <time>2026-08-20T11:46:18Z</time>
      </trkpt>
      <trkpt lat="59.107369920238853" lon="30.49935344606638">
        <ele>50.130000000000003</ele>
        <time>2026-08-20T11:46:22Z</time>
      </trkpt>
      <trkpt lat="59.107337482273579" lon="30.499129146337509">
        <ele>50.130000000000003</ele>
        <time>2026-08-20T11:46:34Z</time>
      </trkpt>
      <trkpt lat="59.10732826218009" lon="30.499030072242022">
        <ele>52.049999999999997</ele>
        <time>2026-08-20T11:46:39Z</time>
      </trkpt>
      <trkpt lat="59.107348211109638" lon="30.498913899064064">
        <ele>51.090000000000003</ele>
        <time>2026-08-20T11:46:50Z</time>
      </trkpt>
      <trkpt lat="59.107378805056214" lon="30.498767634853721">
        <ele>51.090000000000003</ele>
        <time>2026-08-20T11:47:03Z</time>
      </trkpt>
      <trkpt lat="59.107402693480253" lon="30.498673338443041">
        <ele>51.57</ele>
        <time>2026-08-20T11:47:19Z</time>
      </trkpt>
      <trkpt lat="59.107424151152372" lon="30.498614497482777">
        <ele>51.57</ele>
        <time>2026-08-20T11:47:32Z</time>
      </trkpt>
      <trkpt lat="59.107442256063223" lon="30.498593542724848">
        <ele>50.609999999999999</ele>
        <time>2026-08-20T11:47:36Z</time>
      </trkpt>
      <trkpt lat="59.107465473935008" lon="30.498569319024682">
        <ele>52.049999999999997</ele>
        <time>2026-08-20T11:47:38Z</time>
      </trkpt>
      <trkpt lat="59.107517190277576" lon="30.498457755893469">
        <ele>52.049999999999997</ele>
        <time>2026-08-20T11:47:52Z</time>
      </trkpt>
      <trkpt lat="59.107526997104287" lon="30.498445015400648">
        <ele>50.609999999999999</ele>
        <time>2026-08-20T11:47:55Z</time>
      </trkpt>
      <trkpt lat="59.107566475868225" lon="30.498388940468431">
        <ele>50.609999999999999</ele>
        <time>2026-08-20T11:48:09Z</time>
      </trkpt>
      <trkpt lat="59.107570918276906" lon="30.498386509716511">
        <ele>52.530000000000001</ele>
        <time>2026-08-20T11:48:11Z</time>
      </trkpt>
      <trkpt lat="59.107573851943016" lon="30.498375948518515">
        <ele>51.57</ele>
        <time>2026-08-20T11:48:29Z</time>
      </trkpt>
      <trkpt lat="59.107573768123984" lon="30.498370751738548">
        <ele>51.57</ele>
        <time>2026-08-20T11:48:44Z</time>
      </trkpt>
      <trkpt lat="59.107570750638843" lon="30.498354742303491">
        <ele>51.57</ele>
        <time>2026-08-20T11:48:56Z</time>
      </trkpt>
      <trkpt lat="59.107561949640512" lon="30.498316939920187">
        <ele>51.57</ele>
        <time>2026-08-20T11:49:13Z</time>
      </trkpt>
      <trkpt lat="59.1075608599931" lon="30.498295901343226">
        <ele>51.57</ele>
        <time>2026-08-20T11:49:32Z</time>
      </trkpt>
      <trkpt lat="59.10755448974669" lon="30.498238233849406">
        <ele>52.049999999999997</ele>
        <time>2026-08-20T11:49:46Z</time>
      </trkpt>
      <trkpt lat="59.107540659606457" lon="30.498165981844068">
        <ele>52.049999999999997</ele>
        <time>2026-08-20T11:50:09Z</time>
      </trkpt>
      <trkpt lat="59.10753252916038" lon="30.498108649626374">
        <ele>51.090000000000003</ele>
        <time>2026-08-20T11:50:29Z</time>
      </trkpt>
      <trkpt lat="59.107534037902951" lon="30.498130945488811">
        <ele>52.530000000000001</ele>
        <time>2026-08-20T11:50:40Z</time>
      </trkpt>
      <trkpt lat="59.107531523332" lon="30.498138405382633">
        <ele>51.090000000000003</ele>
        <time>2026-08-20T11:50:49Z</time>
      </trkpt>
      <trkpt lat="59.107531774789095" lon="30.498140500858426">
        <ele>51.090000000000003</ele>
        <time>2026-08-20T11:50:52Z</time>
      </trkpt>
      <trkpt lat="59.107521381229162" lon="30.498257763683796">
        <ele>51.090000000000003</ele>
        <time>2026-08-20T11:51:04Z</time>
      </trkpt>
      <trkpt lat="59.107521632686257" lon="30.498328506946564">
        <ele>52.530000000000001</ele>
        <time>2026-08-20T11:51:18Z</time>
      </trkpt>
      <trkpt lat="59.107496738433838" lon="30.498479213565588">
        <ele>52.530000000000001</ele>
        <time>2026-08-20T11:51:31Z</time>
      </trkpt>
      <trkpt lat="59.107440998777747" lon="30.498633943498135">
        <ele>52.530000000000001</ele>
        <time>2026-08-20T11:51:44Z</time>
      </trkpt>
      <trkpt lat="59.107413087040186" lon="30.498678283765912">
        <ele>52.530000000000001</ele>
        <time>2026-08-20T11:51:59Z</time>
      </trkpt>
      <trkpt lat="59.107354581356049" lon="30.498620616272092">
        <ele>52.530000000000001</ele>
        <time>2026-08-20T11:52:18Z</time>
      </trkpt>
      <trkpt lat="59.107324741780758" lon="30.498453816398978">
        <ele>52.530000000000001</ele>
        <time>2026-08-20T11:52:33Z</time>
      </trkpt>
      <trkpt lat="59.107293142005801" lon="30.498341079801321">
        <ele>52.530000000000001</ele>
        <time>2026-08-20T11:52:47Z</time>
      </trkpt>
      <trkpt lat="59.107287442311645" lon="30.498234797269106">
        <ele>52.049999999999997</ele>
        <time>2026-08-20T11:53:06Z</time>
      </trkpt>
      <trkpt lat="59.107285011559725" lon="30.497990548610687">
        <ele>52.049999999999997</ele>
        <time>2026-08-20T11:53:22Z</time>
      </trkpt>
      <trkpt lat="59.107277886942029" lon="30.49780597910285">
        <ele>51.57</ele>
        <time>2026-08-20T11:53:35Z</time>
      </trkpt>
      <trkpt lat="59.107276126742363" lon="30.497759375721216">
        <ele>51.57</ele>
        <time>2026-08-20T11:53:56Z</time>
      </trkpt>
      <trkpt lat="59.107272354885936" lon="30.497754765674472">
        <ele>52.049999999999997</ele>
        <time>2026-08-20T11:54:18Z</time>
      </trkpt>
      <trkpt lat="59.107283754274249" lon="30.49773515202105">
        <ele>51.57</ele>
        <time>2026-08-20T11:54:36Z</time>
      </trkpt>
      <trkpt lat="59.107312588021159" lon="30.497688381001353">
        <ele>51.090000000000003</ele>
        <time>2026-08-20T11:54:50Z</time>
      </trkpt>
      <trkpt lat="59.107321640476584" lon="30.497674718499184">
        <ele>50.609999999999999</ele>
        <time>2026-08-20T11:54:58Z</time>
      </trkpt>
      <trkpt lat="59.107343517243862" lon="30.497646387666464">
        <ele>50.609999999999999</ele>
        <time>2026-08-20T11:55:10Z</time>
      </trkpt>
      <trkpt lat="59.107409063726664" lon="30.497598946094513">
        <ele>52.049999999999997</ele>
        <time>2026-08-20T11:55:23Z</time>
      </trkpt>
      <trkpt lat="59.107428342103958" lon="30.497586289420724">
        <ele>50.609999999999999</ele>
        <time>2026-08-20T11:55:37Z</time>
      </trkpt>
      <trkpt lat="59.107500342652202" lon="30.497424686327577">
        <ele>50.609999999999999</ele>
        <time>2026-08-20T11:55:53Z</time>
      </trkpt>
      <trkpt lat="59.107512412592769" lon="30.497346147894859">
        <ele>51.57</ele>
        <time>2026-08-20T11:56:06Z</time>
      </trkpt>
      <trkpt lat="59.107514843344688" lon="30.497302561998367">
        <ele>51.57</ele>
        <time>2026-08-20T11:56:23Z</time>
      </trkpt>
      <trkpt lat="59.107507048174739" lon="30.497291833162308">
        <ele>50.609999999999999</ele>
        <time>2026-08-20T11:56:31Z</time>
      </trkpt>
      <trkpt lat="59.107490368187428" lon="30.497236847877502">
        <ele>51.57</ele>
        <time>2026-08-20T11:56:40Z</time>
      </trkpt>
      <trkpt lat="59.107437478378415" lon="30.497165769338608">
        <ele>51.57</ele>
        <time>2026-08-20T11:56:54Z</time>
      </trkpt>
      <trkpt lat="59.107398586347699" lon="30.497128972783685">
        <ele>51.57</ele>
        <time>2026-08-20T11:57:12Z</time>
      </trkpt>
      <trkpt lat="59.107356425374746" lon="30.497084548696876">
        <ele>51.57</ele>
        <time>2026-08-20T11:57:26Z</time>
      </trkpt>
      <trkpt lat="59.107342595234513" lon="30.497060408815742">
        <ele>50.130000000000003</ele>
        <time>2026-08-20T11:57:29Z</time>
      </trkpt>
      <trkpt lat="59.107296243309975" lon="30.496969800442457">
        <ele>52.049999999999997</ele>
        <time>2026-08-20T11:57:44Z</time>
      </trkpt>
      <trkpt lat="59.107267577201128" lon="30.496939793229103">
        <ele>50.609999999999999</ele>
        <time>2026-08-20T11:57:52Z</time>
      </trkpt>
      <trkpt lat="59.107254920527339" lon="30.496882041916251">
        <ele>50.609999999999999</ele>
        <time>2026-08-20T11:58:04Z</time>
      </trkpt>
      <trkpt lat="59.107244778424501" lon="30.496790260076523">
        <ele>52.049999999999997</ele>
        <time>2026-08-20T11:58:09Z</time>
      </trkpt>
      <trkpt lat="59.107226170599461" lon="30.496721863746643">
        <ele>50.609999999999999</ele>
        <time>2026-08-20T11:58:13Z</time>
      </trkpt>
      <trkpt lat="59.107227092608809" lon="30.49667676910758">
        <ele>50.609999999999999</ele>
        <time>2026-08-20T11:58:30Z</time>
      </trkpt>
      <trkpt lat="59.107217621058226" lon="30.496598314493895">
        <ele>52.049999999999997</ele>
        <time>2026-08-20T11:58:42Z</time>
      </trkpt>
      <trkpt lat="59.107217704877257" lon="30.496588088572025">
        <ele>50.609999999999999</ele>
        <time>2026-08-20T11:58:45Z</time>
      </trkpt>
      <trkpt lat="59.107205467298627" lon="30.496498737484217">
        <ele>50.609999999999999</ele>
        <time>2026-08-20T11:59:05Z</time>
      </trkpt>
      <trkpt lat="59.107193229719996" lon="30.496319029480219">
        <ele>50.130000000000003</ele>
        <time>2026-08-20T11:59:21Z</time>
      </trkpt>
      <trkpt lat="59.107207814231515" lon="30.496153067797422">
        <ele>50.130000000000003</ele>
        <time>2026-08-20T11:59:35Z</time>
      </trkpt>
      <trkpt lat="59.107219213619828" lon="30.496147451922297">
        <ele>51.57</ele>
        <time>2026-08-20T11:59:37Z</time>
      </trkpt>
      <trkpt lat="59.10724519751966" lon="30.496046030893922">
        <ele>50.130000000000003</ele>
        <time>2026-08-20T11:59:53Z</time>
      </trkpt>
      <trkpt lat="59.107246790081263" lon="30.496030692011118">
        <ele>50.130000000000003</ele>
        <time>2026-08-20T11:59:54Z</time>
      </trkpt>
      <trkpt lat="59.107261123135686" lon="30.495855426415801">
        <ele>50.130000000000003</ele>
        <time>2026-08-20T12:00:08Z</time>
      </trkpt>
      <trkpt lat="59.107269756495953" lon="30.495828855782747">
        <ele>52.049999999999997</ele>
        <time>2026-08-20T12:00:13Z</time>
      </trkpt>
      <trkpt lat="59.107270175591111" lon="30.495667085051537">
        <ele>50.130000000000003</ele>
        <time>2026-08-20T12:00:29Z</time>
      </trkpt>
      <trkpt lat="59.10727109760046" lon="30.495662475004792">
        <ele>51.57</ele>
        <time>2026-08-20T12:00:32Z</time>
      </trkpt>
      <trkpt lat="59.107332620769739" lon="30.495531130582094">
        <ele>51.090000000000003</ele>
        <time>2026-08-20T12:00:49Z</time>
      </trkpt>
      <trkpt lat="59.107330022379756" lon="30.49550112336874">
        <ele>51.090000000000003</ele>
        <time>2026-08-20T12:00:52Z</time>
      </trkpt>
      <trkpt lat="59.107316695153713" lon="30.495382184162736">
        <ele>51.57</ele>
        <time>2026-08-20T12:01:08Z</time>
      </trkpt>
      <trkpt lat="59.107320802286267" lon="30.495362151414156">
        <ele>50.609999999999999</ele>
        <time>2026-08-20T12:01:11Z</time>
      </trkpt>
      <trkpt lat="59.107297668233514" lon="30.495230471715331">
        <ele>50.609999999999999</ele>
        <time>2026-08-20T12:01:24Z</time>
      </trkpt>
      <trkpt lat="59.107258189469576" lon="30.495141874998808">
        <ele>50.609999999999999</ele>
        <time>2026-08-20T12:01:36Z</time>
      </trkpt>
      <trkpt lat="59.107227092608809" lon="30.495044812560081">
        <ele>50.609999999999999</ele>
        <time>2026-08-20T12:01:48Z</time>
      </trkpt>
      <trkpt lat="59.107216950505972" lon="30.494976500049233">
        <ele>50.130000000000003</ele>
        <time>2026-08-20T12:02:01Z</time>
      </trkpt>
      <trkpt lat="59.107210244983435" lon="30.494938613846898">
        <ele>51.090000000000003</ele>
        <time>2026-08-20T12:02:21Z</time>
      </trkpt>
      <trkpt lat="59.107204210013151" lon="30.49494163133204">
        <ele>50.609999999999999</ele>
        <time>2026-08-20T12:02:33Z</time>
      </trkpt>
      <trkpt lat="59.107191888615489" lon="30.494910031557083">
        <ele>51.57</ele>
        <time>2026-08-20T12:02:52Z</time>
      </trkpt>
      <trkpt lat="59.107179064303637" lon="30.494892345741391">
        <ele>50.130000000000003</ele>
        <time>2026-08-20T12:02:55Z</time>
      </trkpt>
      <trkpt lat="59.107153080403805" lon="30.494647761806846">
        <ele>50.130000000000003</ele>
        <time>2026-08-20T12:03:11Z</time>
      </trkpt>
      <trkpt lat="59.107131455093622" lon="30.494604175910354">
        <ele>50.130000000000003</ele>
        <time>2026-08-20T12:03:27Z</time>
      </trkpt>
      <trkpt lat="59.107109410688281" lon="30.49443980678916">
        <ele>50.130000000000003</ele>
        <time>2026-08-20T12:03:39Z</time>
      </trkpt>
      <trkpt lat="59.107095999643207" lon="30.494369734078646">
        <ele>51.57</ele>
        <time>2026-08-20T12:03:54Z</time>
      </trkpt>
      <trkpt lat="59.107086192816496" lon="30.494271833449602">
        <ele>51.57</ele>
        <time>2026-08-20T12:04:06Z</time>
      </trkpt>
      <trkpt lat="59.10708149895072" lon="30.494200922548771">
        <ele>50.609999999999999</ele>
        <time>2026-08-20T12:04:19Z</time>
      </trkpt>
      <trkpt lat="59.107069848105311" lon="30.49399665556848">
        <ele>52.049999999999997</ele>
        <time>2026-08-20T12:04:34Z</time>
      </trkpt>
      <trkpt lat="59.107060879468918" lon="30.493864640593529">
        <ele>52.049999999999997</ele>
        <time>2026-08-20T12:04:50Z</time>
      </trkpt>
      <trkpt lat="59.107056017965078" lon="30.493808146566153">
        <ele>52.049999999999997</ele>
        <time>2026-08-20T12:05:04Z</time>
      </trkpt>
      <trkpt lat="59.10703556612134" lon="30.493712676689029">
        <ele>52.049999999999997</ele>
        <time>2026-08-20T12:05:21Z</time>
      </trkpt>
      <trkpt lat="59.107040176168084" lon="30.493527855724096">
        <ele>52.049999999999997</ele>
        <time>2026-08-20T12:05:34Z</time>
      </trkpt>
      <trkpt lat="59.1070497315377" lon="30.493439259007573">
        <ele>52.049999999999997</ele>
        <time>2026-08-20T12:05:47Z</time>
      </trkpt>
      <trkpt lat="59.10705559886992" lon="30.493354015052319">
        <ele>52.049999999999997</ele>
        <time>2026-08-20T12:06:03Z</time>
      </trkpt>
      <trkpt lat="59.107056772336364" lon="30.493347896263003">
        <ele>52.049999999999997</ele>
        <time>2026-08-20T12:06:18Z</time>
      </trkpt>
      <trkpt lat="59.107042690739036" lon="30.493296682834625">
        <ele>52.049999999999997</ele>
        <time>2026-08-20T12:06:34Z</time>
      </trkpt>
      <trkpt lat="59.107031794264913" lon="30.49322459846735">
        <ele>52.049999999999997</ele>
        <time>2026-08-20T12:06:47Z</time>
      </trkpt>
      <trkpt lat="59.10701846703887" lon="30.493096522986889">
        <ele>51.090000000000003</ele>
        <time>2026-08-20T12:07:01Z</time>
      </trkpt>
      <trkpt lat="59.106988962739706" lon="30.49287524074316">
        <ele>52.530000000000001</ele>
        <time>2026-08-20T12:07:09Z</time>
      </trkpt>
      <trkpt lat="59.106975719332695" lon="30.492817237973213">
        <ele>51.57</ele>
        <time>2026-08-20T12:07:22Z</time>
      </trkpt>
      <trkpt lat="59.106962140649557" lon="30.49276283942163">
        <ele>51.57</ele>
        <time>2026-08-20T12:07:40Z</time>
      </trkpt>
      <trkpt lat="59.106966415420175" lon="30.492730233818293">
        <ele>52.049999999999997</ele>
        <time>2026-08-20T12:07:59Z</time>
      </trkpt>
      <trkpt lat="59.106952752918005" lon="30.492744147777557">
        <ele>50.609999999999999</ele>
        <time>2026-08-20T12:08:15Z</time>
      </trkpt>
      <trkpt lat="59.10694906488061" lon="30.492744231596589">
        <ele>50.609999999999999</ele>
        <time>2026-08-20T12:08:41Z</time>
      </trkpt>
      <trkpt lat="59.106964906677604" lon="30.49275797791779">
        <ele>51.57</ele>
        <time>2026-08-20T12:08:59Z</time>
      </trkpt>
      <trkpt lat="59.10697940737009" lon="30.492727886885405">
        <ele>51.57</ele>
        <time>2026-08-20T12:09:18Z</time>
      </trkpt>
      <trkpt lat="59.106977730989456" lon="30.492728557437658">
        <ele>51.57</ele>
        <time>2026-08-20T12:09:34Z</time>
      </trkpt>
      <trkpt lat="59.106984185054898" lon="30.492745488882065">
        <ele>51.57</ele>
        <time>2026-08-20T12:10:01Z</time>
      </trkpt>
      <trkpt lat="59.106987956911325" lon="30.492741381749511">
        <ele>51.57</ele>
        <time>2026-08-20T12:10:25Z</time>
      </trkpt>
      <trkpt lat="59.106987537816167" lon="30.492760157212615">
        <ele>51.57</ele>
        <time>2026-08-20T12:11:04Z</time>
      </trkpt>
      <trkpt lat="59.106992734596133" lon="30.492762755602598">
        <ele>51.57</ele>
        <time>2026-08-20T12:11:39Z</time>
      </trkpt>
      <trkpt lat="59.107006648555398" lon="30.492744902148843">
        <ele>52.530000000000001</ele>
        <time>2026-08-20T12:12:00Z</time>
      </trkpt>
      <trkpt lat="59.107010336592793" lon="30.492742219939828">
        <ele>52.530000000000001</ele>
        <time>2026-08-20T12:12:37Z</time>
      </trkpt>
      <trkpt lat="59.107018802314997" lon="30.492735765874386">
        <ele>52.530000000000001</ele>
        <time>2026-08-20T12:12:59Z</time>
      </trkpt>
      <trkpt lat="59.107022574171424" lon="30.492751440033317">
        <ele>52.530000000000001</ele>
        <time>2026-08-20T12:13:21Z</time>
      </trkpt>
      <trkpt lat="59.10704143345356" lon="30.492740962654352">
        <ele>52.530000000000001</ele>
        <time>2026-08-20T12:13:49Z</time>
      </trkpt>
      <trkpt lat="59.107041265815496" lon="30.492741214111447">
        <ele>52.530000000000001</ele>
        <time>2026-08-20T12:13:50Z</time>
      </trkpt>
      <trkpt lat="59.10704193636775" lon="30.492745907977223">
        <ele>52.530000000000001</ele>
        <time>2026-08-20T12:14:16Z</time>
      </trkpt>
      <trkpt lat="59.107041768729687" lon="30.492744902148843">
        <ele>51.57</ele>
        <time>2026-08-20T12:14:21Z</time>
      </trkpt>
      <trkpt lat="59.107042858377099" lon="30.492742471396923">
        <ele>51.57</ele>
        <time>2026-08-20T12:14:53Z</time>
      </trkpt>
      <trkpt lat="59.107041601091623" lon="30.492740795016289">
        <ele>52.530000000000001</ele>
        <time>2026-08-20T12:15:30Z</time>
      </trkpt>
      <trkpt lat="59.107041098177433" lon="30.492755882441998">
        <ele>52.530000000000001</ele>
        <time>2026-08-20T12:15:59Z</time>
      </trkpt>
      <trkpt lat="59.107040092349052" lon="30.49276040866971">
        <ele>52.530000000000001</ele>
        <time>2026-08-20T12:16:23Z</time>
      </trkpt>
      <trkpt lat="59.107031458988786" lon="30.49274037592113">
        <ele>53.009999999999998</ele>
        <time>2026-08-20T12:16:53Z</time>
      </trkpt>
      <trkpt lat="59.107027938589454" lon="30.492728473618627">
        <ele>53.009999999999998</ele>
        <time>2026-08-20T12:17:07Z</time>
      </trkpt>
      <trkpt lat="59.107015281915665" lon="30.492707518860698">
        <ele>53.009999999999998</ele>
        <time>2026-08-20T12:17:27Z</time>
      </trkpt>
      <trkpt lat="59.106998015195131" lon="30.492619089782238">
        <ele>52.049999999999997</ele>
        <time>2026-08-20T12:17:45Z</time>
      </trkpt>
      <trkpt lat="59.106991477310658" lon="30.49255614168942">
        <ele>52.049999999999997</ele>
        <time>2026-08-20T12:18:07Z</time>
      </trkpt>
      <trkpt lat="59.107016203925014" lon="30.492488415911794">
        <ele>53.490000000000002</ele>
        <time>2026-08-20T12:18:20Z</time>
      </trkpt>
      <trkpt lat="59.107017209753394" lon="30.492472825571895">
        <ele>52.049999999999997</ele>
        <time>2026-08-20T12:18:23Z</time>
      </trkpt>
      <trkpt lat="59.107014611363411" lon="30.492330668494105">
        <ele>53.009999999999998</ele>
        <time>2026-08-20T12:18:42Z</time>
      </trkpt>
      <trkpt lat="59.107019305229187" lon="30.492308121174574">
        <ele>52.049999999999997</ele>
        <time>2026-08-20T12:18:45Z</time>
      </trkpt>
      <trkpt lat="59.107040679082274" lon="30.492160599678755">
        <ele>52.049999999999997</ele>
        <time>2026-08-20T12:19:01Z</time>
      </trkpt>
      <trkpt lat="59.107048390433192" lon="30.49211785197258">
        <ele>53.009999999999998</ele>
        <time>2026-08-20T12:19:14Z</time>
      </trkpt>
      <trkpt lat="59.107064986601472" lon="30.492047276347876">
        <ele>53.009999999999998</ele>
        <time>2026-08-20T12:19:32Z</time>
      </trkpt>
      <trkpt lat="59.107065908610821" lon="30.492038978263736">
        <ele>52.049999999999997</ele>
        <time>2026-08-20T12:19:38Z</time>
      </trkpt>
      <trkpt lat="59.107067249715328" lon="30.491979969665408">
        <ele>53.009999999999998</ele>
        <time>2026-08-20T12:19:55Z</time>
      </trkpt>
      <trkpt lat="59.107034727931023" lon="30.491706887260079">
        <ele>53.009999999999998</ele>
        <time>2026-08-20T12:20:12Z</time>
      </trkpt>
      <trkpt lat="59.107049144804478" lon="30.491614015772939">
        <ele>53.009999999999998</ele>
        <time>2026-08-20T12:20:29Z</time>
      </trkpt>
      <trkpt lat="59.107044199481606" lon="30.4915124271065">
        <ele>52.049999999999997</ele>
        <time>2026-08-20T12:20:44Z</time>
      </trkpt>
      <trkpt lat="59.107046630233526" lon="30.491407066583633">
        <ele>52.049999999999997</ele>
        <time>2026-08-20T12:21:01Z</time>
      </trkpt>
      <trkpt lat="59.107022490352392" lon="30.491288462653756">
        <ele>52.049999999999997</ele>
        <time>2026-08-20T12:21:30Z</time>
      </trkpt>
      <trkpt lat="59.107015449553728" lon="30.491143288090825">
        <ele>52.049999999999997</ele>
        <time>2026-08-20T12:21:47Z</time>
      </trkpt>
      <trkpt lat="59.107040762901306" lon="30.490802228450775">
        <ele>52.049999999999997</ele>
        <time>2026-08-20T12:22:04Z</time>
      </trkpt>
      <trkpt lat="59.107041601091623" lon="30.490688737481833">
        <ele>53.009999999999998</ele>
        <time>2026-08-20T12:22:18Z</time>
      </trkpt>
      <trkpt lat="59.107041517272592" lon="30.490602906793356">
        <ele>53.009999999999998</ele>
        <time>2026-08-20T12:22:34Z</time>
      </trkpt>
      <trkpt lat="59.107034308835864" lon="30.490516237914562">
        <ele>51.57</ele>
        <time>2026-08-20T12:22:38Z</time>
      </trkpt>
      <trkpt lat="59.107031878083944" lon="30.490366704761982">
        <ele>53.009999999999998</ele>
        <time>2026-08-20T12:22:49Z</time>
      </trkpt>
      <trkpt lat="59.106993488967419" lon="30.49005045555532">
        <ele>52.049999999999997</ele>
        <time>2026-08-20T12:23:06Z</time>
      </trkpt>
      <trkpt lat="59.106979072093964" lon="30.489876782521605">
        <ele>52.049999999999997</ele>
        <time>2026-08-20T12:23:19Z</time>
      </trkpt>
      <trkpt lat="59.106955518946052" lon="30.489797741174698">
        <ele>53.009999999999998</ele>
        <time>2026-08-20T12:23:33Z</time>
      </trkpt>
      <trkpt lat="59.106952836737037" lon="30.489762704819441">
        <ele>51.57</ele>
        <time>2026-08-20T12:23:38Z</time>
      </trkpt>
      <trkpt lat="59.106951160356402" lon="30.489642340689898">
        <ele>51.57</ele>
        <time>2026-08-20T12:23:53Z</time>
      </trkpt>
      <trkpt lat="59.106929702684283" lon="30.489572519436479">
        <ele>51.57</ele>
        <time>2026-08-20T12:24:04Z</time>
      </trkpt>
      <trkpt lat="59.106909334659576" lon="30.489500015974045">
        <ele>53.009999999999998</ele>
        <time>2026-08-20T12:24:11Z</time>
      </trkpt>
      <trkpt lat="59.106882344931364" lon="30.489400941878557">
        <ele>52.049999999999997</ele>
        <time>2026-08-20T12:24:26Z</time>
      </trkpt>
      <trkpt lat="59.106842949986458" lon="30.48919877037406">
        <ele>52.049999999999997</ele>
        <time>2026-08-20T12:24:41Z</time>
      </trkpt>
      <trkpt lat="59.106842111796141" lon="30.489071197807789">
        <ele>52.049999999999997</ele>
        <time>2026-08-20T12:24:54Z</time>
      </trkpt>
      <trkpt lat="59.106820318847895" lon="30.48897254280746">
        <ele>52.049999999999997</ele>
        <time>2026-08-20T12:25:08Z</time>
      </trkpt>
      <trkpt lat="59.106776565313339" lon="30.488834492862225">
        <ele>51.57</ele>
        <time>2026-08-20T12:25:21Z</time>
      </trkpt>
      <trkpt lat="59.1067233402282" lon="30.488706920295954">
        <ele>53.009999999999998</ele>
        <time>2026-08-20T12:25:45Z</time>
      </trkpt>
      <trkpt lat="59.106721580028534" lon="30.488702142611146">
        <ele>51.57</ele>
        <time>2026-08-20T12:25:50Z</time>
      </trkpt>
      <trkpt lat="59.106729794293642" lon="30.488601643592119">
        <ele>51.57</ele>
        <time>2026-08-20T12:26:05Z</time>
      </trkpt>
      <trkpt lat="59.106745300814509" lon="30.488553866744041">
        <ele>53.009999999999998</ele>
        <time>2026-08-20T12:26:18Z</time>
      </trkpt>
      <trkpt lat="59.106768351048231" lon="30.488436939194798">
        <ele>51.57</ele>
        <time>2026-08-20T12:26:34Z</time>
      </trkpt>
      <trkpt lat="59.106817385181785" lon="30.488318921998143">
        <ele>51.57</ele>
        <time>2026-08-20T12:26:58Z</time>
      </trkpt>
      <trkpt lat="59.10683574154973" lon="30.488317748531699">
        <ele>51.57</ele>
        <time>2026-08-20T12:27:16Z</time>
      </trkpt>
      <trkpt lat="59.10692123696208" lon="30.488341385498643">
        <ele>52.530000000000001</ele>
        <time>2026-08-20T12:27:35Z</time>
      </trkpt>
      <trkpt lat="59.107036823406816" lon="30.488391509279609">
        <ele>53.009999999999998</ele>
        <time>2026-08-20T12:27:54Z</time>
      </trkpt>
      <trkpt lat="59.107171185314655" lon="30.488343229517341">
        <ele>52.530000000000001</ele>
        <time>2026-08-20T12:28:09Z</time>
      </trkpt>
      <trkpt lat="59.107160959392786" lon="30.48836468718946">
        <ele>53.969999999999999</ele>
        <time>2026-08-20T12:28:23Z</time>
      </trkpt>
      <trkpt lat="59.107160372659564" lon="30.488365860655904">
        <ele>53.969999999999999</ele>
        <time>2026-08-20T12:28:24Z</time>
      </trkpt>
      <trkpt lat="59.107154421508312" lon="30.488379020243883">
        <ele>53.969999999999999</ele>
        <time>2026-08-20T12:28:26Z</time>
      </trkpt>
      <trkpt lat="59.107129443436861" lon="30.488394107669592">
        <ele>52.530000000000001</ele>
        <time>2026-08-20T12:28:29Z</time>
      </trkpt>
      <trkpt lat="59.107032213360071" lon="30.488403243944049">
        <ele>52.530000000000001</ele>
        <time>2026-08-20T12:28:44Z</time>
      </trkpt>
      <trkpt lat="59.106987956911325" lon="30.488351108506322">
        <ele>53.969999999999999</ele>
        <time>2026-08-20T12:28:52Z</time>
      </trkpt>
      <trkpt lat="59.106978150084615" lon="30.488344319164753">
        <ele>52.530000000000001</ele>
        <time>2026-08-20T12:28:54Z</time>
      </trkpt>
      <trkpt lat="59.106963397935033" lon="30.488286316394806">
        <ele>53.969999999999999</ele>
        <time>2026-08-20T12:29:05Z</time>
      </trkpt>
      <trkpt lat="59.106963062658906" lon="30.488287406042218">
        <ele>52.530000000000001</ele>
        <time>2026-08-20T12:29:09Z</time>
      </trkpt>
      <trkpt lat="59.106955686584115" lon="30.488265780732036">
        <ele>52.530000000000001</ele>
        <time>2026-08-20T12:29:35Z</time>
      </trkpt>
      <trkpt lat="59.106957446783781" lon="30.48825815320015">
        <ele>53.969999999999999</ele>
        <time>2026-08-20T12:29:43Z</time>
      </trkpt>
      <trkpt lat="59.106952250003815" lon="30.488255470991135">
        <ele>52.530000000000001</ele>
        <time>2026-08-20T12:29:51Z</time>
      </trkpt>
      <trkpt lat="59.106916543096304" lon="30.488243065774441">
        <ele>53.969999999999999</ele>
        <time>2026-08-20T12:30:03Z</time>
      </trkpt>
      <trkpt lat="59.106893157586455" lon="30.488114906474948">
        <ele>54.450000000000003</ele>
        <time>2026-08-20T12:30:23Z</time>
      </trkpt>
      <trkpt lat="59.106893660500646" lon="30.488036200404167">
        <ele>53.490000000000002</ele>
        <time>2026-08-20T12:30:29Z</time>
      </trkpt>
      <trkpt lat="59.106872035190463" lon="30.487965121865273">
        <ele>54.450000000000003</ele>
        <time>2026-08-20T12:30:47Z</time>
      </trkpt>
      <trkpt lat="59.106854852288961" lon="30.487929666414857">
        <ele>53.009999999999998</ele>
        <time>2026-08-20T12:30:54Z</time>
      </trkpt>
      <trkpt lat="59.106841860339046" lon="30.487832184880972">
        <ele>53.009999999999998</ele>
        <time>2026-08-20T12:31:14Z</time>
      </trkpt>
      <trkpt lat="59.106844626367092" lon="30.487741827964783">
        <ele>53.009999999999998</ele>
        <time>2026-08-20T12:31:28Z</time>
      </trkpt>
      <trkpt lat="59.106888044625521" lon="30.487683825194836">
        <ele>54.450000000000003</ele>
        <time>2026-08-20T12:31:36Z</time>
      </trkpt>
      <trkpt lat="59.10688603296876" lon="30.487629761919379">
        <ele>54.450000000000003</ele>
        <time>2026-08-20T12:31:51Z</time>
      </trkpt>
      <trkpt lat="59.10688410513103" lon="30.487456759437919">
        <ele>54.450000000000003</ele>
        <time>2026-08-20T12:32:04Z</time>
      </trkpt>
      <trkpt lat="59.106851750984788" lon="30.487357685342431">
        <ele>54.450000000000003</ele>
        <time>2026-08-20T12:32:18Z</time>
      </trkpt>
      <trkpt lat="59.106814535334706" lon="30.487180827185512">
        <ele>54.93</ele>
        <time>2026-08-20T12:32:34Z</time>
      </trkpt>
      <trkpt lat="59.106811517849565" lon="30.487150987610221">
        <ele>53.490000000000002</ele>
        <time>2026-08-20T12:32:37Z</time>
      </trkpt>
      <trkpt lat="59.106806656345725" lon="30.487052919343114">
        <ele>54.93</ele>
        <time>2026-08-20T12:32:44Z</time>
      </trkpt>
      <trkpt lat="59.106813445687294" lon="30.487032048404217">
        <ele>53.490000000000002</ele>
        <time>2026-08-20T12:32:49Z</time>
      </trkpt>
      <trkpt lat="59.106815373525023" lon="30.486953174695373">
        <ele>53.490000000000002</ele>
        <time>2026-08-20T12:33:04Z</time>
      </trkpt>
      <trkpt lat="59.106804812327027" lon="30.486771874129772">
        <ele>54.93</ele>
        <time>2026-08-20T12:33:21Z</time>
      </trkpt>
      <trkpt lat="59.106852086260915" lon="30.486493594944477">
        <ele>54.93</ele>
        <time>2026-08-20T12:33:37Z</time>
      </trkpt>
      <trkpt lat="59.106857031583786" lon="30.486385719850659">
        <ele>53.490000000000002</ele>
        <time>2026-08-20T12:33:49Z</time>
      </trkpt>
      <trkpt lat="59.106852170079947" lon="30.486364765092731">
        <ele>54.93</ele>
        <time>2026-08-20T12:33:59Z</time>
      </trkpt>
      <trkpt lat="59.106778157874942" lon="30.486220177263021">
        <ele>53.969999999999999</ele>
        <time>2026-08-20T12:34:18Z</time>
      </trkpt>
      <trkpt lat="59.10676927305758" lon="30.486134346574545">
        <ele>53.969999999999999</ele>
        <time>2026-08-20T12:34:35Z</time>
      </trkpt>
      <trkpt lat="59.106773212552071" lon="30.48609453253448">
        <ele>53.969999999999999</ele>
        <time>2026-08-20T12:34:52Z</time>
      </trkpt>
      <trkpt lat="59.106780085712671" lon="30.486054550856352">
        <ele>54.93</ele>
        <time>2026-08-20T12:35:11Z</time>
      </trkpt>
      <trkpt lat="59.106793832033873" lon="30.486007947474718">
        <ele>53.969999999999999</ele>
        <time>2026-08-20T12:35:29Z</time>
      </trkpt>
      <trkpt lat="59.106808248907328" lon="30.485959919169545">
        <ele>54.93</ele>
        <time>2026-08-20T12:35:47Z</time>
      </trkpt>
      <trkpt lat="59.106826102361083" lon="30.485883727669716">
        <ele>54.93</ele>
        <time>2026-08-20T12:36:06Z</time>
      </trkpt>
      <trkpt lat="59.106795005500317" lon="30.485776690766215">
        <ele>54.93</ele>
        <time>2026-08-20T12:36:23Z</time>
      </trkpt>
      <trkpt lat="59.106757789850235" lon="30.485715419054031">
        <ele>54.93</ele>
        <time>2026-08-20T12:36:44Z</time>
      </trkpt>
      <trkpt lat="59.106749827042222" lon="30.485663702711463">
        <ele>54.93</ele>
        <time>2026-08-20T12:37:02Z</time>
      </trkpt>
      <trkpt lat="59.106728369370103" lon="30.485625816509128">
        <ele>53.490000000000002</ele>
        <time>2026-08-20T12:37:14Z</time>
      </trkpt>
      <trkpt lat="59.106656955555081" lon="30.485484413802624">
        <ele>54.93</ele>
        <time>2026-08-20T12:37:25Z</time>
      </trkpt>
      <trkpt lat="59.106644466519356" lon="30.485339658334851">
        <ele>53.969999999999999</ele>
        <time>2026-08-20T12:37:37Z</time>
      </trkpt>
      <trkpt lat="59.106619656085968" lon="30.485252235084772">
        <ele>53.969999999999999</ele>
        <time>2026-08-20T12:37:59Z</time>
      </trkpt>
      <trkpt lat="59.106629127636552" lon="30.485201189294457">
        <ele>53.969999999999999</ele>
        <time>2026-08-20T12:38:13Z</time>
      </trkpt>
      <trkpt lat="59.106634827330709" lon="30.485194735229015">
        <ele>54.93</ele>
        <time>2026-08-20T12:38:14Z</time>
      </trkpt>
      <trkpt lat="59.106665337458253" lon="30.485194567590952">
        <ele>53.490000000000002</ele>
        <time>2026-08-20T12:38:24Z</time>
      </trkpt>
      <trkpt lat="59.106678497046232" lon="30.48519448377192">
        <ele>54.93</ele>
        <time>2026-08-20T12:38:27Z</time>
      </trkpt>
      <trkpt lat="59.106723926961422" lon="30.485173612833023">
        <ele>55.409999999999997</ele>
        <time>2026-08-20T12:38:42Z</time>
      </trkpt>
      <trkpt lat="59.106765249744058" lon="30.485094655305147">
        <ele>54.450000000000003</ele>
        <time>2026-08-20T12:38:57Z</time>
      </trkpt>
      <trkpt lat="59.1067458037287" lon="30.48501712270081">
        <ele>55.409999999999997</ele>
        <time>2026-08-20T12:39:11Z</time>
      </trkpt>
      <trkpt lat="59.106729878112674" lon="30.484958197921515">
        <ele>55.409999999999997</ele>
        <time>2026-08-20T12:39:23Z</time>
      </trkpt>
      <trkpt lat="59.10673507489264" lon="30.484928023070097">
        <ele>53.969999999999999</ele>
        <time>2026-08-20T12:39:30Z</time>
      </trkpt>
      <trkpt lat="59.106745300814509" lon="30.48491109162569">
        <ele>55.409999999999997</ele>
        <time>2026-08-20T12:39:45Z</time>
      </trkpt>
      <trkpt lat="59.106718311086297" lon="30.484844958409667">
        <ele>55.409999999999997</ele>
        <time>2026-08-20T12:39:57Z</time>
      </trkpt>
      <trkpt lat="59.106672126799822" lon="30.48476348631084">
        <ele>55.409999999999997</ele>
        <time>2026-08-20T12:40:10Z</time>
      </trkpt>
      <trkpt lat="59.106661481782794" lon="30.484745632857084">
        <ele>55.890000000000001</ele>
        <time>2026-08-20T12:40:38Z</time>
      </trkpt>
      <trkpt lat="59.106661984696984" lon="30.484745632857084">
        <ele>54.450000000000003</ele>
        <time>2026-08-20T12:40:44Z</time>
      </trkpt>
      <trkpt lat="59.10666273906827" lon="30.484717385843396">
        <ele>54.450000000000003</ele>
        <time>2026-08-20T12:41:06Z</time>
      </trkpt>
      <trkpt lat="59.106650333851576" lon="30.484747644513845">
        <ele>55.890000000000001</ele>
        <time>2026-08-20T12:41:20Z</time>
      </trkpt>
      <trkpt lat="59.106621919199824" lon="30.484796762466431">
        <ele>55.890000000000001</ele>
        <time>2026-08-20T12:41:34Z</time>
      </trkpt>
      <trkpt lat="59.10656894557178" lon="30.484820567071438">
        <ele>55.890000000000001</ele>
        <time>2026-08-20T12:41:46Z</time>
      </trkpt>
      <trkpt lat="59.106543716043234" lon="30.484787877649069">
        <ele>55.890000000000001</ele>
        <time>2026-08-20T12:42:01Z</time>
      </trkpt>
      <trkpt lat="59.106462579220533" lon="30.484769772738218">
        <ele>54.450000000000003</ele>
        <time>2026-08-20T12:42:14Z</time>
      </trkpt>
      <trkpt lat="59.106427878141403" lon="30.484777735546231">
        <ele>54.93</ele>
        <time>2026-08-20T12:42:33Z</time>
      </trkpt>
      <trkpt lat="59.106326624751091" lon="30.484627615660429">
        <ele>54.93</ele>
        <time>2026-08-20T12:42:45Z</time>
      </trkpt>
      <trkpt lat="59.106302065774798" lon="30.484630381688476">
        <ele>54.93</ele>
        <time>2026-08-20T12:43:02Z</time>
      </trkpt>
      <trkpt lat="59.106238447129726" lon="30.484610768035054">
        <ele>54.450000000000003</ele>
        <time>2026-08-20T12:43:20Z</time>
      </trkpt>
      <trkpt lat="59.106224197894335" lon="30.484603559598327">
        <ele>54.450000000000003</ele>
        <time>2026-08-20T12:43:45Z</time>
      </trkpt>
      <trkpt lat="59.106180779635906" lon="30.484606577083468">
        <ele>55.409999999999997</ele>
        <time>2026-08-20T12:44:03Z</time>
      </trkpt>
      <trkpt lat="59.106161249801517" lon="30.484624765813351">
        <ele>54.450000000000003</ele>
        <time>2026-08-20T12:44:10Z</time>
      </trkpt>
      <trkpt lat="59.106085896492004" lon="30.484547819942236">
        <ele>55.409999999999997</ele>
        <time>2026-08-20T12:44:24Z</time>
      </trkpt>
      <trkpt lat="59.106067288666964" lon="30.484608253464103">
        <ele>55.409999999999997</ele>
        <time>2026-08-20T12:44:41Z</time>
      </trkpt>
      <trkpt lat="59.106066031381488" lon="30.484613450244069">
        <ele>53.969999999999999</ele>
        <time>2026-08-20T12:44:50Z</time>
      </trkpt>
      <trkpt lat="59.10606125369668" lon="30.484623927623034">
        <ele>53.969999999999999</ele>
        <time>2026-08-20T12:45:24Z</time>
      </trkpt>
      <trkpt lat="59.106047507375479" lon="30.484629292041063">
        <ele>55.409999999999997</ele>
        <time>2026-08-20T12:45:30Z</time>
      </trkpt>
      <trkpt lat="59.106041304767132" lon="30.484625436365604">
        <ele>55.409999999999997</ele>
        <time>2026-08-20T12:45:46Z</time>
      </trkpt>
      <trkpt lat="59.106006938964128" lon="30.484636919572949">
        <ele>55.409999999999997</ele>
        <time>2026-08-20T12:46:03Z</time>
      </trkpt>
      <trkpt lat="59.106002245098352" lon="30.484621496871114">
        <ele>55.890000000000001</ele>
        <time>2026-08-20T12:46:30Z</time>
      </trkpt>
      <trkpt lat="59.105996293947101" lon="30.484613701701164">
        <ele>54.450000000000003</ele>
        <time>2026-08-20T12:46:38Z</time>
      </trkpt>
      <trkpt lat="59.105971986427903" lon="30.484635578468442">
        <ele>54.450000000000003</ele>
        <time>2026-08-20T12:47:06Z</time>
      </trkpt>
      <trkpt lat="59.105968968942761" lon="30.48469265922904">
        <ele>55.890000000000001</ele>
        <time>2026-08-20T12:47:22Z</time>
      </trkpt>
      <trkpt lat="59.105968633666635" lon="30.48469752073288">
        <ele>54.450000000000003</ele>
        <time>2026-08-20T12:47:26Z</time>
      </trkpt>
      <trkpt lat="59.105966370552778" lon="30.484756361693144">
        <ele>54.450000000000003</ele>
        <time>2026-08-20T12:47:44Z</time>
      </trkpt>
      <trkpt lat="59.105947678908706" lon="30.484828529879451">
        <ele>54.450000000000003</ele>
        <time>2026-08-20T12:48:03Z</time>
      </trkpt>
      <trkpt lat="59.105922868475318" lon="30.484883096069098">
        <ele>55.409999999999997</ele>
        <time>2026-08-20T12:48:19Z</time>
      </trkpt>
      <trkpt lat="59.10592102445662" lon="30.484922491014004">
        <ele>54.450000000000003</ele>
        <time>2026-08-20T12:48:31Z</time>
      </trkpt>
      <trkpt lat="59.105908535420895" lon="30.484968088567257">
        <ele>55.409999999999997</ele>
        <time>2026-08-20T12:48:37Z</time>
      </trkpt>
      <trkpt lat="59.105905685573816" lon="30.485021397471428">
        <ele>55.409999999999997</ele>
        <time>2026-08-20T12:49:00Z</time>
      </trkpt>
      <trkpt lat="59.105907026678324" lon="30.485022654756904">
        <ele>54.450000000000003</ele>
        <time>2026-08-20T12:49:04Z</time>
      </trkpt>
      <trkpt lat="59.105908451601863" lon="30.485034976154566">
        <ele>54.450000000000003</ele>
        <time>2026-08-20T12:49:24Z</time>
      </trkpt>
      <trkpt lat="59.105907948687673" lon="30.485055260360241">
        <ele>55.409999999999997</ele>
        <time>2026-08-20T12:49:32Z</time>
      </trkpt>
      <trkpt lat="59.105927059426904" lon="30.485104462131858">
        <ele>55.409999999999997</ele>
        <time>2026-08-20T12:49:50Z</time>
      </trkpt>
      <trkpt lat="59.105933597311378" lon="30.48512164503336">
        <ele>53.969999999999999</ele>
        <time>2026-08-20T12:49:52Z</time>
      </trkpt>
      <trkpt lat="59.105961006134748" lon="30.485238824039698">
        <ele>53.969999999999999</ele>
        <time>2026-08-20T12:50:06Z</time>
      </trkpt>
      <trkpt lat="59.10596938803792" lon="30.485262461006641">
        <ele>53.969999999999999</ele>
        <time>2026-08-20T12:50:21Z</time>
      </trkpt>
      <trkpt lat="59.105983804911375" lon="30.485276877880096">
        <ele>55.409999999999997</ele>
        <time>2026-08-20T12:50:38Z</time>
      </trkpt>
      <trkpt lat="59.105994617566466" lon="30.485298503190279">
        <ele>55.409999999999997</ele>
        <time>2026-08-20T12:50:57Z</time>
      </trkpt>
      <trkpt lat="59.106035018339753" lon="30.485406713560224">
        <ele>55.409999999999997</ele>
        <time>2026-08-20T12:51:16Z</time>
      </trkpt>
      <trkpt lat="59.106037197634578" lon="30.485424650833011">
        <ele>55.409999999999997</ele>
        <time>2026-08-20T12:51:34Z</time>
      </trkpt>
      <trkpt lat="59.106042813509703" lon="30.485457424074411">
        <ele>55.409999999999997</ele>
        <time>2026-08-20T12:51:53Z</time>
      </trkpt>
      <trkpt lat="59.106047423556447" lon="30.485499501228333">
        <ele>53.969999999999999</ele>
        <time>2026-08-20T12:52:09Z</time>
      </trkpt>
      <trkpt lat="59.106057733297348" lon="30.485590109601617">
        <ele>53.969999999999999</ele>
        <time>2026-08-20T12:52:24Z</time>
      </trkpt>
      <trkpt lat="59.106064271181822" lon="30.485613495111465">
        <ele>55.409999999999997</ele>
        <time>2026-08-20T12:52:31Z</time>
      </trkpt>
      <trkpt lat="59.106057062745094" lon="30.485653812065721">
        <ele>53.969999999999999</ele>
        <time>2026-08-20T12:52:48Z</time>
      </trkpt>
      <trkpt lat="59.106039460748434" lon="30.485725812613964">
        <ele>53.969999999999999</ele>
        <time>2026-08-20T12:53:05Z</time>
      </trkpt>
      <trkpt lat="59.106052201241255" lon="30.485780546441674">
        <ele>53.490000000000002</ele>
        <time>2026-08-20T12:53:21Z</time>
      </trkpt>
      <trkpt lat="59.106065025553107" lon="30.485815582796931">
        <ele>54.93</ele>
        <time>2026-08-20T12:53:26Z</time>
      </trkpt>
      <trkpt lat="59.10610182210803" lon="30.485902251675725">
        <ele>54.93</ele>
        <time>2026-08-20T12:53:43Z</time>
      </trkpt>
      <trkpt lat="59.106112886220217" lon="30.485914573073387">
        <ele>53.490000000000002</ele>
        <time>2026-08-20T12:54:00Z</time>
      </trkpt>
      <trkpt lat="59.106113892048597" lon="30.485976096242666">
        <ele>53.490000000000002</ele>
        <time>2026-08-20T12:54:17Z</time>
      </trkpt>
      <trkpt lat="59.106099307537079" lon="30.486084809526801">
        <ele>53.490000000000002</ele>
        <time>2026-08-20T12:54:33Z</time>
      </trkpt>
      <trkpt lat="59.106087489053607" lon="30.486157732084394">
        <ele>53.490000000000002</ele>
        <time>2026-08-20T12:54:47Z</time>
      </trkpt>
      <trkpt lat="59.106087908148766" lon="30.486175669357181">
        <ele>53.490000000000002</ele>
        <time>2026-08-20T12:55:21Z</time>
      </trkpt>
      <trkpt lat="59.106098134070635" lon="30.486184386536479">
        <ele>54.93</ele>
        <time>2026-08-20T12:55:46Z</time>
      </trkpt>
      <trkpt lat="59.10609788261354" lon="30.486186062917113">
        <ele>53.490000000000002</ele>
        <time>2026-08-20T12:55:52Z</time>
      </trkpt>
      <trkpt lat="59.106097798794508" lon="30.486186649650335">
        <ele>54.93</ele>
        <time>2026-08-20T12:55:55Z</time>
      </trkpt>
      <trkpt lat="59.106098636984825" lon="30.486222440376878">
        <ele>54.93</ele>
        <time>2026-08-20T12:56:11Z</time>
      </trkpt>
      <trkpt lat="59.106074329465628" lon="30.486263679340482">
        <ele>54.93</ele>
        <time>2026-08-20T12:56:27Z</time>
      </trkpt>
      <trkpt lat="59.106046753004193" lon="30.486361244693398">
        <ele>53.490000000000002</ele>
        <time>2026-08-20T12:56:37Z</time>
      </trkpt>
      <trkpt lat="59.106019511818886" lon="30.486446656286716">
        <ele>54.93</ele>
        <time>2026-08-20T12:56:48Z</time>
      </trkpt>
      <trkpt lat="59.106021355837584" lon="30.486483201384544">
        <ele>54.93</ele>
        <time>2026-08-20T12:57:06Z</time>
      </trkpt>
      <trkpt lat="59.106022277846932" lon="30.486509185284376">
        <ele>53.969999999999999</ele>
        <time>2026-08-20T12:57:13Z</time>
      </trkpt>
      <trkpt lat="59.106044825166464" lon="30.48667942173779">
        <ele>53.969999999999999</ele>
        <time>2026-08-20T12:57:27Z</time>
      </trkpt>
      <trkpt lat="59.106054715812206" lon="30.486791990697384">
        <ele>53.969999999999999</ele>
        <time>2026-08-20T12:57:42Z</time>
      </trkpt>
      <trkpt lat="59.106058739125729" lon="30.486856196075678">
        <ele>53.490000000000002</ele>
        <time>2026-08-20T12:57:49Z</time>
      </trkpt>
      <trkpt lat="59.106065779924393" lon="30.486875139176846">
        <ele>54.93</ele>
        <time>2026-08-20T12:58:00Z</time>
      </trkpt>
      <trkpt lat="59.106077766045928" lon="30.486896261572838">
        <ele>54.93</ele>
        <time>2026-08-20T12:58:19Z</time>
      </trkpt>
      <trkpt lat="59.106102576479316" lon="30.486969519406557">
        <ele>54.93</ele>
        <time>2026-08-20T12:58:46Z</time>
      </trkpt>
      <trkpt lat="59.106105007231236" lon="30.486988546326756">
        <ele>53.490000000000002</ele>
        <time>2026-08-20T12:58:51Z</time>
      </trkpt>
      <trkpt lat="59.106122273951769" lon="30.487101366743445">
        <ele>54.450000000000003</ele>
        <time>2026-08-20T12:59:07Z</time>
      </trkpt>
      <trkpt lat="59.106135098263621" lon="30.487224915996194">
        <ele>53.969999999999999</ele>
        <time>2026-08-20T12:59:21Z</time>
      </trkpt>
      <trkpt lat="59.106151610612869" lon="30.487299095839262">
        <ele>54.93</ele>
        <time>2026-08-20T12:59:28Z</time>
      </trkpt>
      <trkpt lat="59.10615311935544" lon="30.487367827445269">
        <ele>53.969999999999999</ele>
        <time>2026-08-20T12:59:49Z</time>
      </trkpt>
      <trkpt lat="59.106138786301017" lon="30.487585254013538">
        <ele>53.969999999999999</ele>
        <time>2026-08-20T13:00:06Z</time>
      </trkpt>
      <trkpt lat="59.106155969202518" lon="30.487599670886993">
        <ele>53.969999999999999</ele>
        <time>2026-08-20T13:00:20Z</time>
      </trkpt>
      <trkpt lat="59.106166698038578" lon="30.48767670057714">
        <ele>55.409999999999997</ele>
        <time>2026-08-20T13:00:34Z</time>
      </trkpt>
      <trkpt lat="59.106186898425221" lon="30.487728416919708">
        <ele>55.409999999999997</ele>
        <time>2026-08-20T13:00:53Z</time>
      </trkpt>
      <trkpt lat="59.106188239529729" lon="30.487732104957104">
        <ele>53.969999999999999</ele>
        <time>2026-08-20T13:00:58Z</time>
      </trkpt>
      <trkpt lat="59.106174828484654" lon="30.48788683488965">
        <ele>53.969999999999999</ele>
        <time>2026-08-20T13:01:14Z</time>
      </trkpt>
      <trkpt lat="59.106127303093672" lon="30.488038212060928">
        <ele>54.93</ele>
        <time>2026-08-20T13:01:26Z</time>
      </trkpt>
      <trkpt lat="59.106113472953439" lon="30.488164275884628">
        <ele>54.93</ele>
        <time>2026-08-20T13:01:41Z</time>
      </trkpt>
      <trkpt lat="59.106130907312036" lon="30.488280449062586">
        <ele>54.93</ele>
        <time>2026-08-20T13:01:56Z</time>
      </trkpt>
      <trkpt lat="59.106139624491334" lon="30.488461581990123">
        <ele>54.93</ele>
        <time>2026-08-20T13:02:12Z</time>
      </trkpt>
      <trkpt lat="59.10614725202322" lon="30.488528553396463">
        <ele>54.93</ele>
        <time>2026-08-20T13:02:27Z</time>
      </trkpt>
      <trkpt lat="59.106170050799847" lon="30.488645983859897">
        <ele>54.93</ele>
        <time>2026-08-20T13:02:40Z</time>
      </trkpt>
      <trkpt lat="59.106193603947759" lon="30.488730892539024">
        <ele>54.93</ele>
        <time>2026-08-20T13:02:55Z</time>
      </trkpt>
      <trkpt lat="59.106216738000512" lon="30.488798702135682">
        <ele>54.93</ele>
        <time>2026-08-20T13:03:12Z</time>
      </trkpt>
      <trkpt lat="59.106250014156103" lon="30.488879838958383">
        <ele>54.93</ele>
        <time>2026-08-20T13:03:28Z</time>
      </trkpt>
      <trkpt lat="59.106261497363448" lon="30.488928453996778">
        <ele>53.490000000000002</ele>
        <time>2026-08-20T13:03:37Z</time>
      </trkpt>
      <trkpt lat="59.106246829032898" lon="30.48903507180512">
        <ele>54.450000000000003</ele>
        <time>2026-08-20T13:03:56Z</time>
      </trkpt>
      <trkpt lat="59.10625378601253" lon="30.489061055704951">
        <ele>54.450000000000003</ele>
        <time>2026-08-20T13:04:10Z</time>
      </trkpt>
      <trkpt lat="59.106271471828222" lon="30.489137917757034">
        <ele>53.490000000000002</ele>
        <time>2026-08-20T13:04:29Z</time>
      </trkpt>
      <trkpt lat="59.106283960863948" lon="30.489151915535331">
        <ele>54.93</ele>
        <time>2026-08-20T13:04:35Z</time>
      </trkpt>
      <trkpt lat="59.106309022754431" lon="30.489258617162704">
        <ele>53.490000000000002</ele>
        <time>2026-08-20T13:04:53Z</time>
      </trkpt>
      <trkpt lat="59.106300976127386" lon="30.489325420930982">
        <ele>53.490000000000002</ele>
        <time>2026-08-20T13:05:08Z</time>
      </trkpt>
      <trkpt lat="59.106292258948088" lon="30.489385100081563">
        <ele>53.490000000000002</ele>
        <time>2026-08-20T13:05:26Z</time>
      </trkpt>
      <trkpt lat="59.106290079653263" lon="30.489428518339992">
        <ele>53.009999999999998</ele>
        <time>2026-08-20T13:05:41Z</time>
      </trkpt>
      <trkpt lat="59.106287565082312" lon="30.489476965740323">
        <ele>53.009999999999998</ele>
        <time>2026-08-20T13:05:57Z</time>
      </trkpt>
      <trkpt lat="59.106283541768789" lon="30.489495322108269">
        <ele>53.009999999999998</ele>
        <time>2026-08-20T13:06:03Z</time>
      </trkpt>
      <trkpt lat="59.106288151815534" lon="30.489519210532308">
        <ele>54.450000000000003</ele>
        <time>2026-08-20T13:06:21Z</time>
      </trkpt>
      <trkpt lat="59.106277422979474" lon="30.489541171118617">
        <ele>54.450000000000003</ele>
        <time>2026-08-20T13:06:35Z</time>
      </trkpt>
      <trkpt lat="59.106276081874967" lon="30.489545529708266">
        <ele>53.009999999999998</ele>
        <time>2026-08-20T13:06:42Z</time>
      </trkpt>
      <trkpt lat="59.106264682486653" lon="30.489577800035477">
        <ele>53.009999999999998</ele>
        <time>2026-08-20T13:07:00Z</time>
      </trkpt>
      <trkpt lat="59.106207098811865" lon="30.489677796140313">
        <ele>53.009999999999998</ele>
        <time>2026-08-20T13:07:16Z</time>
      </trkpt>
      <trkpt lat="59.106207685545087" lon="30.489685339853168">
        <ele>53.969999999999999</ele>
        <time>2026-08-20T13:07:21Z</time>
      </trkpt>
      <trkpt lat="59.106203159317374" lon="30.48975239507854">
        <ele>53.009999999999998</ele>
        <time>2026-08-20T13:07:38Z</time>
      </trkpt>
      <trkpt lat="59.106197208166122" lon="30.489767147228122">
        <ele>53.009999999999998</ele>
        <time>2026-08-20T13:07:55Z</time>
      </trkpt>
      <trkpt lat="59.106200896203518" lon="30.489782905206084">
        <ele>53.969999999999999</ele>
        <time>2026-08-20T13:08:18Z</time>
      </trkpt>
      <trkpt lat="59.106185641139746" lon="30.489790784195065">
        <ele>53.969999999999999</ele>
        <time>2026-08-20T13:08:32Z</time>
      </trkpt>
      <trkpt lat="59.106171056628227" lon="30.489830933511257">
        <ele>53.969999999999999</ele>
        <time>2026-08-20T13:08:49Z</time>
      </trkpt>
      <trkpt lat="59.106146497651935" lon="30.489937886595726">
        <ele>53.969999999999999</ele>
        <time>2026-08-20T13:09:05Z</time>
      </trkpt>
      <trkpt lat="59.106163596734405" lon="30.489982226863503">
        <ele>53.969999999999999</ele>
        <time>2026-08-20T13:09:27Z</time>
      </trkpt>
      <trkpt lat="59.106174157932401" lon="30.490094795823097">
        <ele>53.969999999999999</ele>
        <time>2026-08-20T13:09:42Z</time>
      </trkpt>
      <trkpt lat="59.106217157095671" lon="30.490209795534611">
        <ele>53.969999999999999</ele>
        <time>2026-08-20T13:09:55Z</time>
      </trkpt>
      <trkpt lat="59.106239033862948" lon="30.490260170772672">
        <ele>53.969999999999999</ele>
        <time>2026-08-20T13:10:12Z</time>
      </trkpt>
      <trkpt lat="59.106269627809525" lon="30.490277269855142">
        <ele>53.969999999999999</ele>
        <time>2026-08-20T13:10:29Z</time>
      </trkpt>
      <trkpt lat="59.106286056339741" lon="30.490313144400716">
        <ele>53.009999999999998</ele>
        <time>2026-08-20T13:10:45Z</time>
      </trkpt>
      <trkpt lat="59.106323858723044" lon="30.490362597629428">
        <ele>53.969999999999999</ele>
        <time>2026-08-20T13:11:00Z</time>
      </trkpt>
      <trkpt lat="59.106325786560774" lon="30.490390760824084">
        <ele>53.009999999999998</ele>
        <time>2026-08-20T13:11:14Z</time>
      </trkpt>
      <trkpt lat="59.106325870379806" lon="30.490428227931261">
        <ele>53.969999999999999</ele>
        <time>2026-08-20T13:11:26Z</time>
      </trkpt>
      <trkpt lat="59.106285637244582" lon="30.490497127175331">
        <ele>53.009999999999998</ele>
        <time>2026-08-20T13:11:39Z</time>
      </trkpt>
      <trkpt lat="59.106288319453597" lon="30.490505592897534">
        <ele>54.450000000000003</ele>
        <time>2026-08-20T13:11:41Z</time>
      </trkpt>
      <trkpt lat="59.106283206492662" lon="30.490515567362309">
        <ele>53.009999999999998</ele>
        <time>2026-08-20T13:11:46Z</time>
      </trkpt>
      <trkpt lat="59.106271136552095" lon="30.490634506568313">
        <ele>53.009999999999998</ele>
        <time>2026-08-20T13:12:04Z</time>
      </trkpt>
      <trkpt lat="59.106284882873297" lon="30.490691838786006">
        <ele>53.009999999999998</ele>
        <time>2026-08-20T13:12:20Z</time>
      </trkpt>
      <trkpt lat="59.106292258948088" lon="30.49072477966547">
        <ele>53.009999999999998</ele>
        <time>2026-08-20T13:12:35Z</time>
      </trkpt>
      <trkpt lat="59.106301227584481" lon="30.490754032507539">
        <ele>54.450000000000003</ele>
        <time>2026-08-20T13:12:50Z</time>
      </trkpt>
      <trkpt lat="59.10628848709166" lon="30.49089333973825">
        <ele>54.450000000000003</ele>
        <time>2026-08-20T13:13:05Z</time>
      </trkpt>
      <trkpt lat="59.106283290311694" lon="30.490916725248098">
        <ele>54.450000000000003</ele>
        <time>2026-08-20T13:13:24Z</time>
      </trkpt>
      <trkpt lat="59.106272310018539" lon="30.490981433540583">
        <ele>54.450000000000003</ele>
        <time>2026-08-20T13:13:42Z</time>
      </trkpt>
      <trkpt lat="59.106293180957437" lon="30.49103214405477">
        <ele>54.450000000000003</ele>
        <time>2026-08-20T13:13:56Z</time>
      </trkpt>
      <trkpt lat="59.106308855116367" lon="30.491129625588655">
        <ele>53.490000000000002</ele>
        <time>2026-08-20T13:14:13Z</time>
      </trkpt>
      <trkpt lat="59.106324277818203" lon="30.491203553974628">
        <ele>54.93</ele>
        <time>2026-08-20T13:14:22Z</time>
      </trkpt>
      <trkpt lat="59.106324026361108" lon="30.491219311952591">
        <ele>54.93</ele>
        <time>2026-08-20T13:14:37Z</time>
      </trkpt>
      <trkpt lat="59.106325702741742" lon="30.491230459883809">
        <ele>53.490000000000002</ele>
        <time>2026-08-20T13:14:39Z</time>
      </trkpt>
      <trkpt lat="59.106322852894664" lon="30.491344034671783">
        <ele>54.93</ele>
        <time>2026-08-20T13:14:51Z</time>
      </trkpt>
      <trkpt lat="59.106309274211526" lon="30.49138342961669">
        <ele>54.93</ele>
        <time>2026-08-20T13:15:08Z</time>
      </trkpt>
      <trkpt lat="59.106307681649923" lon="30.491411341354251">
        <ele>54.93</ele>
        <time>2026-08-20T13:15:31Z</time>
      </trkpt>
      <trkpt lat="59.106307346373796" lon="30.491508236154914">
        <ele>54.93</ele>
        <time>2026-08-20T13:15:45Z</time>
      </trkpt>
      <trkpt lat="59.106277339160442" lon="30.491570765152574">
        <ele>54.93</ele>
        <time>2026-08-20T13:16:03Z</time>
      </trkpt>
      <trkpt lat="59.106286056339741" lon="30.491639077663422">
        <ele>53.969999999999999</ele>
        <time>2026-08-20T13:16:24Z</time>
      </trkpt>
      <trkpt lat="59.106281697750092" lon="30.49163656309247">
        <ele>54.93</ele>
        <time>2026-08-20T13:17:02Z</time>
      </trkpt>
      <trkpt lat="59.10628848709166" lon="30.491692135110497">
        <ele>53.490000000000002</ele>
        <time>2026-08-20T13:17:38Z</time>
      </trkpt>
      <trkpt lat="59.106269376352429" lon="30.491771595552564">
        <ele>53.490000000000002</ele>
        <time>2026-08-20T13:18:09Z</time>
      </trkpt>
      <trkpt lat="59.106274992227554" lon="30.491778971627355">
        <ele>54.93</ele>
        <time>2026-08-20T13:18:37Z</time>
      </trkpt>
      <trkpt lat="59.106280775740743" lon="30.491802608594298">
        <ele>53.969999999999999</ele>
        <time>2026-08-20T13:18:59Z</time>
      </trkpt>
      <trkpt lat="59.106278596445918" lon="30.49178902991116">
        <ele>54.93</ele>
        <time>2026-08-20T13:19:28Z</time>
      </trkpt>
      <trkpt lat="59.106283877044916" lon="30.491775535047054">
        <ele>54.93</ele>
        <time>2026-08-20T13:20:01Z</time>
      </trkpt>
      <trkpt lat="59.106287313625216" lon="30.491764638572931">
        <ele>53.969999999999999</ele>
        <time>2026-08-20T13:20:31Z</time>
      </trkpt>
      <trkpt lat="59.106285721063614" lon="30.491768242791295">
        <ele>54.93</ele>
        <time>2026-08-20T13:20:53Z</time>
      </trkpt>
      <trkpt lat="59.106258479878306" lon="30.491819623857737">
        <ele>54.93</ele>
        <time>2026-08-20T13:21:08Z</time>
      </trkpt>
      <trkpt lat="59.106277255341411" lon="30.491833705455065">
        <ele>55.409999999999997</ele>
        <time>2026-08-20T13:21:27Z</time>
      </trkpt>
      <trkpt lat="59.106291756033897" lon="30.491849463433027">
        <ele>54.450000000000003</ele>
        <time>2026-08-20T13:21:42Z</time>
      </trkpt>
      <trkpt lat="59.106296533718705" lon="30.491853738203645">
        <ele>55.890000000000001</ele>
        <time>2026-08-20T13:21:44Z</time>
      </trkpt>
      <trkpt lat="59.106334168463945" lon="30.491896821185946">
        <ele>54.450000000000003</ele>
        <time>2026-08-20T13:22:12Z</time>
      </trkpt>
      <trkpt lat="59.106359900906682" lon="30.491912327706814">
        <ele>55.890000000000001</ele>
        <time>2026-08-20T13:22:41Z</time>
      </trkpt>
      <trkpt lat="59.106361828744411" lon="30.491912327706814">
        <ele>55.890000000000001</ele>
        <time>2026-08-20T13:22:43Z</time>
      </trkpt>
      <trkpt lat="59.10636518150568" lon="30.491908639669418">
        <ele>54.450000000000003</ele>
        <time>2026-08-20T13:22:49Z</time>
      </trkpt>
      <trkpt lat="59.106376161798835" lon="30.491907047107816">
        <ele>56.369999999999997</ele>
        <time>2026-08-20T13:22:55Z</time>
      </trkpt>
      <trkpt lat="59.106386387720704" lon="30.491901263594627">
        <ele>54.93</ele>
        <time>2026-08-20T13:23:14Z</time>
      </trkpt>
      <trkpt lat="59.106451934203506" lon="30.492018694058061">
        <ele>54.93</ele>
        <time>2026-08-20T13:23:31Z</time>
      </trkpt>
      <trkpt lat="59.106467524543405" lon="30.492046773433685">
        <ele>56.369999999999997</ele>
        <time>2026-08-20T13:23:59Z</time>
      </trkpt>
      <trkpt lat="59.106460986658931" lon="30.492058424279094">
        <ele>56.369999999999997</ele>
        <time>2026-08-20T13:24:28Z</time>
      </trkpt>
      <trkpt lat="59.106456376612186" lon="30.492093209177256">
        <ele>56.369999999999997</ele>
        <time>2026-08-20T13:24:40Z</time>
      </trkpt>
      <trkpt lat="59.106422681361437" lon="30.492155151441693">
        <ele>56.369999999999997</ele>
        <time>2026-08-20T13:24:50Z</time>
      </trkpt>
      <trkpt lat="59.106427375227213" lon="30.492274174466729">
        <ele>56.369999999999997</ele>
        <time>2026-08-20T13:25:07Z</time>
      </trkpt>
      <trkpt lat="59.10641991533339" lon="30.492391772568226">
        <ele>56.859999999999999</ele>
        <time>2026-08-20T13:25:21Z</time>
      </trkpt>
      <trkpt lat="59.106402648612857" lon="30.492483302950859">
        <ele>56.859999999999999</ele>
        <time>2026-08-20T13:25:36Z</time>
      </trkpt>
      <trkpt lat="59.106391249224544" lon="30.49258254468441">
        <ele>56.859999999999999</ele>
        <time>2026-08-20T13:25:50Z</time>
      </trkpt>
      <trkpt lat="59.106400385499001" lon="30.492703747004271">
        <ele>56.859999999999999</ele>
        <time>2026-08-20T13:26:05Z</time>
      </trkpt>
      <trkpt lat="59.106427794322371" lon="30.492802234366536">
        <ele>56.859999999999999</ele>
        <time>2026-08-20T13:26:26Z</time>
      </trkpt>
      <trkpt lat="59.106433326378465" lon="30.492856884375215">
        <ele>56.859999999999999</ele>
        <time>2026-08-20T13:27:01Z</time>
      </trkpt>
      <trkpt lat="59.106418825685978" lon="30.492954617366195">
        <ele>56.859999999999999</ele>
        <time>2026-08-20T13:27:18Z</time>
      </trkpt>
      <trkpt lat="59.106400469318032" lon="30.493020163848996">
        <ele>55.409999999999997</ele>
        <time>2026-08-20T13:27:29Z</time>
      </trkpt>
      <trkpt lat="59.106393093243241" lon="30.493046902120113">
        <ele>55.409999999999997</ele>
        <time>2026-08-20T13:27:54Z</time>
      </trkpt>
      <trkpt lat="59.106396613642573" lon="30.493052266538143">
        <ele>55.409999999999997</ele>
        <time>2026-08-20T13:28:24Z</time>
      </trkpt>
      <trkpt lat="59.106393763795495" lon="30.493058050051332">
        <ele>55.890000000000001</ele>
        <time>2026-08-20T13:28:38Z</time>
      </trkpt>
      <trkpt lat="59.106394182890654" lon="30.493067689239979">
        <ele>54.93</ele>
        <time>2026-08-20T13:28:47Z</time>
      </trkpt>
      <trkpt lat="59.106398122385144" lon="30.493105407804251">
        <ele>54.93</ele>
        <time>2026-08-20T13:29:05Z</time>
      </trkpt>
      <trkpt lat="59.106415221467614" lon="30.49314396455884">
        <ele>56.369999999999997</ele>
        <time>2026-08-20T13:29:23Z</time>
      </trkpt>
      <trkpt lat="59.106419999152422" lon="30.493157124146819">
        <ele>54.93</ele>
        <time>2026-08-20T13:29:42Z</time>
      </trkpt>
      <trkpt lat="59.10643307492137" lon="30.493220742791891">
        <ele>56.369999999999997</ele>
        <time>2026-08-20T13:29:55Z</time>
      </trkpt>
      <trkpt lat="59.106442462652922" lon="30.493320403620601">
        <ele>56.369999999999997</ele>
        <time>2026-08-20T13:30:11Z</time>
      </trkpt>
      <trkpt lat="59.106452101841569" lon="30.493427189067006">
        <ele>56.369999999999997</ele>
        <time>2026-08-20T13:30:25Z</time>
      </trkpt>
      <trkpt lat="59.10645361058414" lon="30.493430541828275">
        <ele>56.369999999999997</ele>
        <time>2026-08-20T13:30:53Z</time>
      </trkpt>
      <trkpt lat="59.106452520936728" lon="30.493476558476686">
        <ele>56.369999999999997</ele>
        <time>2026-08-20T13:31:09Z</time>
      </trkpt>
      <trkpt lat="59.106448832899332" lon="30.493500279262662">
        <ele>56.369999999999997</ele>
        <time>2026-08-20T13:31:27Z</time>
      </trkpt>
      <trkpt lat="59.106437349691987" lon="30.493552582338452">
        <ele>56.369999999999997</ele>
        <time>2026-08-20T13:31:44Z</time>
      </trkpt>
      <trkpt lat="59.106458052992821" lon="30.493680154904723">
        <ele>55.409999999999997</ele>
        <time>2026-08-20T13:32:00Z</time>
      </trkpt>
      <trkpt lat="59.106462495401502" lon="30.4936882853508">
        <ele>56.859999999999999</ele>
        <time>2026-08-20T13:32:03Z</time>
      </trkpt>
      <trkpt lat="59.106463417410851" lon="30.493701109662652">
        <ele>55.409999999999997</ele>
        <time>2026-08-20T13:32:10Z</time>
      </trkpt>
      <trkpt lat="59.106484707444906" lon="30.493770930916071">
        <ele>55.409999999999997</ele>
        <time>2026-08-20T13:32:23Z</time>
      </trkpt>
      <trkpt lat="59.106514882296324" lon="30.493876961991191">
        <ele>55.409999999999997</ele>
        <time>2026-08-20T13:32:33Z</time>
      </trkpt>
      <trkpt lat="59.10649954341352" lon="30.493945106863976">
        <ele>55.409999999999997</ele>
        <time>2026-08-20T13:32:50Z</time>
      </trkpt>
      <trkpt lat="59.106483366340399" lon="30.493997996672988">
        <ele>55.409999999999997</ele>
        <time>2026-08-20T13:33:04Z</time>
      </trkpt>
      <trkpt lat="59.106483198702335" lon="30.494000427424908">
        <ele>56.859999999999999</ele>
        <time>2026-08-20T13:33:06Z</time>
      </trkpt>
      <trkpt lat="59.106485210359097" lon="30.494085755199194">
        <ele>55.890000000000001</ele>
        <time>2026-08-20T13:33:23Z</time>
      </trkpt>
      <trkpt lat="59.106491999700665" lon="30.494141159579158">
        <ele>55.890000000000001</ele>
        <time>2026-08-20T13:33:32Z</time>
      </trkpt>
      <trkpt lat="59.106507422402501" lon="30.494189020246267">
        <ele>55.890000000000001</ele>
        <time>2026-08-20T13:33:48Z</time>
      </trkpt>
      <trkpt lat="59.106518654152751" lon="30.494247023016214">
        <ele>56.369999999999997</ele>
        <time>2026-08-20T13:34:03Z</time>
      </trkpt>
      <trkpt lat="59.106529215350747" lon="30.494306450709701">
        <ele>55.409999999999997</ele>
        <time>2026-08-20T13:34:09Z</time>
      </trkpt>
      <trkpt lat="59.10652787424624" lon="30.494325561448932">
        <ele>56.369999999999997</ele>
        <time>2026-08-20T13:34:17Z</time>
      </trkpt>
      <trkpt lat="59.106535501778126" lon="30.494367806240916">
        <ele>56.369999999999997</ele>
        <time>2026-08-20T13:34:34Z</time>
      </trkpt>
      <trkpt lat="59.106557630002499" lon="30.494440142065287">
        <ele>56.859999999999999</ele>
        <time>2026-08-20T13:34:48Z</time>
      </trkpt>
      <trkpt lat="59.106555031612515" lon="30.494453301653266">
        <ele>55.409999999999997</ele>
        <time>2026-08-20T13:34:53Z</time>
      </trkpt>
      <trkpt lat="59.106557881459594" lon="30.494469059631228">
        <ele>56.859999999999999</ele>
        <time>2026-08-20T13:35:00Z</time>
      </trkpt>
      <trkpt lat="59.106567269191146" lon="30.494550112634897">
        <ele>56.859999999999999</ele>
        <time>2026-08-20T13:35:16Z</time>
      </trkpt>
      <trkpt lat="59.106572633609176" lon="30.494687156751752">
        <ele>56.859999999999999</ele>
        <time>2026-08-20T13:35:28Z</time>
      </trkpt>
      <trkpt lat="59.106555199250579" lon="30.49485077150166">
        <ele>55.409999999999997</ele>
        <time>2026-08-20T13:35:37Z</time>
      </trkpt>
      <trkpt lat="59.106552181765437" lon="30.494865523651242">
        <ele>56.859999999999999</ele>
        <time>2026-08-20T13:35:38Z</time>
      </trkpt>
      <trkpt lat="59.106511445716023" lon="30.494973734021187">
        <ele>56.859999999999999</ele>
        <time>2026-08-20T13:35:57Z</time>
      </trkpt>
      <trkpt lat="59.106492502614856" lon="30.495213624089956">
        <ele>56.859999999999999</ele>
        <time>2026-08-20T13:36:13Z</time>
      </trkpt>
      <trkpt lat="59.106501471251249" lon="30.495315296575427">
        <ele>56.859999999999999</ele>
        <time>2026-08-20T13:36:42Z</time>
      </trkpt>
      <trkpt lat="59.106495603919029" lon="30.495354356244206">
        <ele>56.859999999999999</ele>
        <time>2026-08-20T13:36:57Z</time>
      </trkpt>
      <trkpt lat="59.106481773778796" lon="30.495417471975088">
        <ele>55.409999999999997</ele>
        <time>2026-08-20T13:37:06Z</time>
      </trkpt>
      <trkpt lat="59.106455119326711" lon="30.495515875518322">
        <ele>56.859999999999999</ele>
        <time>2026-08-20T13:37:10Z</time>
      </trkpt>
      <trkpt lat="59.106437433511019" lon="30.49566138535738">
        <ele>55.890000000000001</ele>
        <time>2026-08-20T13:37:24Z</time>
      </trkpt>
      <trkpt lat="59.106431566178799" lon="30.49567848443985">
        <ele>57.340000000000003</ele>
        <time>2026-08-20T13:37:32Z</time>
      </trkpt>
      <trkpt lat="59.106455203145742" lon="30.495693990960717">
        <ele>55.890000000000001</ele>
        <time>2026-08-20T13:37:45Z</time>
      </trkpt>
      <trkpt lat="59.106513625010848" lon="30.495705474168062">
        <ele>55.890000000000001</ele>
        <time>2026-08-20T13:37:57Z</time>
      </trkpt>
      <trkpt lat="59.106556959450245" lon="30.49572542309761">
        <ele>55.890000000000001</ele>
        <time>2026-08-20T13:38:15Z</time>
      </trkpt>
      <trkpt lat="59.106665002182126" lon="30.495718801394105">
        <ele>55.890000000000001</ele>
        <time>2026-08-20T13:38:31Z</time>
      </trkpt>
      <trkpt lat="59.106717640534043" lon="30.495702121406794">
        <ele>55.890000000000001</ele>
        <time>2026-08-20T13:38:44Z</time>
      </trkpt>
      <trkpt lat="59.106722418218851" lon="30.495692146942019">
        <ele>57.340000000000003</ele>
        <time>2026-08-20T13:38:58Z</time>
      </trkpt>
      <trkpt lat="59.106723256409168" lon="30.495697762817144">
        <ele>55.890000000000001</ele>
        <time>2026-08-20T13:39:01Z</time>
      </trkpt>
      <trkpt lat="59.10669450648129" lon="30.49583438783884">
        <ele>55.890000000000001</ele>
        <time>2026-08-20T13:39:17Z</time>
      </trkpt>
      <trkpt lat="59.106671456247568" lon="30.495962211862206">
        <ele>56.859999999999999</ele>
        <time>2026-08-20T13:39:28Z</time>
      </trkpt>
      <trkpt lat="59.106670701876283" lon="30.496001858264208">
        <ele>55.409999999999997</ele>
        <time>2026-08-20T13:39:31Z</time>
      </trkpt>
      <trkpt lat="59.106671623885632" lon="30.496036559343338">
        <ele>56.859999999999999</ele>
        <time>2026-08-20T13:39:34Z</time>
      </trkpt>
      <trkpt lat="59.10666860640049" lon="30.496060280129313">
        <ele>55.409999999999997</ele>
        <time>2026-08-20T13:39:36Z</time>
      </trkpt>
      <trkpt lat="59.106656536459923" lon="30.496186763048172">
        <ele>55.409999999999997</ele>
        <time>2026-08-20T13:39:50Z</time>
      </trkpt>
      <trkpt lat="59.106689812615514" lon="30.496271336451173">
        <ele>55.409999999999997</ele>
        <time>2026-08-20T13:40:09Z</time>
      </trkpt>
      <trkpt lat="59.106711354106665" lon="30.496290614828467">
        <ele>55.409999999999997</ele>
        <time>2026-08-20T13:40:30Z</time>
      </trkpt>
      <trkpt lat="59.106709929183125" lon="30.496311234310269">
        <ele>56.859999999999999</ele>
        <time>2026-08-20T13:40:39Z</time>
      </trkpt>
      <trkpt lat="59.106711857020855" lon="30.49631760455668">
        <ele>55.409999999999997</ele>
        <time>2026-08-20T13:40:45Z</time>
      </trkpt>
      <trkpt lat="59.106708839535713" lon="30.496332524344325">
        <ele>56.859999999999999</ele>
        <time>2026-08-20T13:41:01Z</time>
      </trkpt>
      <trkpt lat="59.106709593906999" lon="30.496339900419116">
        <ele>55.409999999999997</ele>
        <time>2026-08-20T13:41:03Z</time>
      </trkpt>
      <trkpt lat="59.106711437925696" lon="30.496416930109262">
        <ele>56.859999999999999</ele>
        <time>2026-08-20T13:41:17Z</time>
      </trkpt>
      <trkpt lat="59.106712359935045" lon="30.496429167687893">
        <ele>56.859999999999999</ele>
        <time>2026-08-20T13:41:18Z</time>
      </trkpt>
      <trkpt lat="59.106728117913008" lon="30.496538132429123">
        <ele>55.409999999999997</ele>
        <time>2026-08-20T13:41:29Z</time>
      </trkpt>
      <trkpt lat="59.106726190075278" lon="30.496755056083202">
        <ele>55.409999999999997</ele>
        <time>2026-08-20T13:41:42Z</time>
      </trkpt>
      <trkpt lat="59.106691908091307" lon="30.496927220374346">
        <ele>55.409999999999997</ele>
        <time>2026-08-20T13:41:57Z</time>
      </trkpt>
      <trkpt lat="59.106677072122693" lon="30.497071389108896">
        <ele>55.409999999999997</ele>
        <time>2026-08-20T13:42:11Z</time>
      </trkpt>
      <trkpt lat="59.106704900041223" lon="30.497160907834768">
        <ele>55.409999999999997</ele>
        <time>2026-08-20T13:42:26Z</time>
      </trkpt>
      <trkpt lat="59.10672577098012" lon="30.497379088774323">
        <ele>56.369999999999997</ele>
        <time>2026-08-20T13:42:42Z</time>
      </trkpt>
      <trkpt lat="59.106724681332707" lon="30.497395182028413">
        <ele>54.93</ele>
        <time>2026-08-20T13:42:45Z</time>
      </trkpt>
      <trkpt lat="59.106713533401489" lon="30.497613530606031">
        <ele>56.369999999999997</ele>
        <time>2026-08-20T13:42:57Z</time>
      </trkpt>
      <trkpt lat="59.106706660240889" lon="30.49777521751821">
        <ele>54.93</ele>
        <time>2026-08-20T13:43:10Z</time>
      </trkpt>
      <trkpt lat="59.106702050194144" lon="30.497867250815034">
        <ele>54.93</ele>
        <time>2026-08-20T13:43:25Z</time>
      </trkpt>
      <trkpt lat="59.106690231710672" lon="30.497975377365947">
        <ele>54.450000000000003</ele>
        <time>2026-08-20T13:43:37Z</time>
      </trkpt>
      <trkpt lat="59.106709761545062" lon="30.498107308521867">
        <ele>54.450000000000003</ele>
        <time>2026-08-20T13:43:50Z</time>
      </trkpt>
      <trkpt lat="59.106707666069269" lon="30.498345857486129">
        <ele>54.450000000000003</ele>
        <time>2026-08-20T13:44:05Z</time>
      </trkpt>
      <trkpt lat="59.106697775423527" lon="30.498531768098474">
        <ele>55.890000000000001</ele>
        <time>2026-08-20T13:44:19Z</time>
      </trkpt>
      <trkpt lat="59.10669987089932" lon="30.498537300154567">
        <ele>55.890000000000001</ele>
        <time>2026-08-20T13:44:21Z</time>
      </trkpt>
      <trkpt lat="59.106707833707333" lon="30.49858633428812">
        <ele>54.450000000000003</ele>
        <time>2026-08-20T13:44:39Z</time>
      </trkpt>
      <trkpt lat="59.106697356328368" lon="30.49862832762301">
        <ele>54.450000000000003</ele>
        <time>2026-08-20T13:44:53Z</time>
      </trkpt>
      <trkpt lat="59.106713701039553" lon="30.49876419827342">
        <ele>54.450000000000003</ele>
        <time>2026-08-20T13:45:07Z</time>
      </trkpt>
      <trkpt lat="59.106728453189135" lon="30.498816417530179">
        <ele>54.450000000000003</ele>
        <time>2026-08-20T13:45:21Z</time>
      </trkpt>
      <trkpt lat="59.106739684939384" lon="30.498847765848041">
        <ele>55.890000000000001</ele>
        <time>2026-08-20T13:45:25Z</time>
      </trkpt>
      <trkpt lat="59.106742031872272" lon="30.498876767233014">
        <ele>54.93</ele>
        <time>2026-08-20T13:45:28Z</time>
      </trkpt>
      <trkpt lat="59.106750162318349" lon="30.498929573222995">
        <ele>54.450000000000003</ele>
        <time>2026-08-20T13:45:42Z</time>
      </trkpt>
      <trkpt lat="59.106748988851905" lon="30.498988078907132">
        <ele>54.450000000000003</ele>
        <time>2026-08-20T13:45:57Z</time>
      </trkpt>
      <trkpt lat="59.106750162318349" lon="30.499017415568233">
        <ele>55.409999999999997</ele>
        <time>2026-08-20T13:46:02Z</time>
      </trkpt>
      <trkpt lat="59.106736164540052" lon="30.499143563210964">
        <ele>55.409999999999997</ele>
        <time>2026-08-20T13:46:19Z</time>
      </trkpt>
      <trkpt lat="59.106723507866263" lon="30.499206092208624">
        <ele>55.409999999999997</ele>
        <time>2026-08-20T13:46:43Z</time>
      </trkpt>
      <trkpt lat="59.106721663847566" lon="30.499227046966553">
        <ele>54.450000000000003</ele>
        <time>2026-08-20T13:46:58Z</time>
      </trkpt>
      <trkpt lat="59.106716047972441" lon="30.499269627034664">
        <ele>53.969999999999999</ele>
        <time>2026-08-20T13:47:12Z</time>
      </trkpt>
      <trkpt lat="59.106714203953743" lon="30.499291839078069">
        <ele>53.969999999999999</ele>
        <time>2026-08-20T13:47:23Z</time>
      </trkpt>
      <trkpt lat="59.10672090947628" lon="30.499317655339837">
        <ele>55.409999999999997</ele>
        <time>2026-08-20T13:47:28Z</time>
      </trkpt>
      <trkpt lat="59.106713617220521" lon="30.499412370845675">
        <ele>55.409999999999997</ele>
        <time>2026-08-20T13:47:45Z</time>
      </trkpt>
      <trkpt lat="59.106721328571439" lon="30.499585876241326">
        <ele>55.409999999999997</ele>
        <time>2026-08-20T13:48:01Z</time>
      </trkpt>
      <trkpt lat="59.106772290542722" lon="30.499794166535139">
        <ele>55.409999999999997</ele>
        <time>2026-08-20T13:48:19Z</time>
      </trkpt>
      <trkpt lat="59.106787042692304" lon="30.499842613935471">
        <ele>55.409999999999997</ele>
        <time>2026-08-20T13:48:38Z</time>
      </trkpt>
      <trkpt lat="59.106781175360084" lon="30.499902796000242">
        <ele>53.969999999999999</ele>
        <time>2026-08-20T13:48:53Z</time>
      </trkpt>
      <trkpt lat="59.106885362416506" lon="30.500089880079031">
        <ele>53.969999999999999</ele>
        <time>2026-08-20T13:49:11Z</time>
      </trkpt>
      <trkpt lat="59.106932301074266" lon="30.500171184539795">
        <ele>53.969999999999999</ele>
        <time>2026-08-20T13:49:39Z</time>
      </trkpt>
      <trkpt lat="59.106924338266253" lon="30.500199599191546">
        <ele>53.969999999999999</ele>
        <time>2026-08-20T13:49:55Z</time>
      </trkpt>
      <trkpt lat="59.106926266103983" lon="30.500239413231611">
        <ele>55.409999999999997</ele>
        <time>2026-08-20T13:50:02Z</time>
      </trkpt>
      <trkpt lat="59.106898186728358" lon="30.500273108482361">
        <ele>53.969999999999999</ele>
        <time>2026-08-20T13:50:12Z</time>
      </trkpt>
      <trkpt lat="59.106888128444552" lon="30.500319628044963">
        <ele>53.969999999999999</ele>
        <time>2026-08-20T13:50:39Z</time>
      </trkpt>
      <trkpt lat="59.106867341324687" lon="30.500372685492039">
        <ele>53.490000000000002</ele>
        <time>2026-08-20T13:50:57Z</time>
      </trkpt>
      <trkpt lat="59.106855690479279" lon="30.500440327450633">
        <ele>53.490000000000002</ele>
        <time>2026-08-20T13:51:10Z</time>
      </trkpt>
      <trkpt lat="59.106824845075607" lon="30.50064736045897">
        <ele>53.490000000000002</ele>
        <time>2026-08-20T13:51:24Z</time>
      </trkpt>
      <trkpt lat="59.106819480657578" lon="30.500685917213559">
        <ele>55.409999999999997</ele>
        <time>2026-08-20T13:51:36Z</time>
      </trkpt>
      <trkpt lat="59.106821157038212" lon="30.50073285587132">
        <ele>53.969999999999999</ele>
        <time>2026-08-20T13:51:54Z</time>
      </trkpt>
      <trkpt lat="59.106833729892969" lon="30.500807873904705">
        <ele>53.969999999999999</ele>
        <time>2026-08-20T13:52:08Z</time>
      </trkpt>
      <trkpt lat="59.106844123452902" lon="30.500836623832583">
        <ele>54.450000000000003</ele>
        <time>2026-08-20T13:52:24Z</time>
      </trkpt>
      <trkpt lat="59.106872454285622" lon="30.500908959656954">
        <ele>53.490000000000002</ele>
        <time>2026-08-20T13:52:43Z</time>
      </trkpt>
      <trkpt lat="59.106911346316338" lon="30.501154297962785">
        <ele>53.490000000000002</ele>
        <time>2026-08-20T13:52:59Z</time>
      </trkpt>
      <trkpt lat="59.106920063495636" lon="30.5014091078192">
        <ele>53.490000000000002</ele>
        <time>2026-08-20T13:53:14Z</time>
      </trkpt>
      <trkpt lat="59.106974462047219" lon="30.501685123890638">
        <ele>54.450000000000003</ele>
        <time>2026-08-20T13:53:32Z</time>
      </trkpt>
      <trkpt lat="59.106975803151727" lon="30.5017164722085">
        <ele>53.490000000000002</ele>
        <time>2026-08-20T13:53:46Z</time>
      </trkpt>
      <trkpt lat="59.106963314116001" lon="30.501924594864249">
        <ele>53.490000000000002</ele>
        <time>2026-08-20T13:54:02Z</time>
      </trkpt>
      <trkpt lat="59.106939760968089" lon="30.502158785238862">
        <ele>54.93</ele>
        <time>2026-08-20T13:54:16Z</time>
      </trkpt>
      <trkpt lat="59.106970522552729" lon="30.502313934266567">
        <ele>54.93</ele>
        <time>2026-08-20T13:54:32Z</time>
      </trkpt>
      <trkpt lat="59.106992734596133" lon="30.502493809908628">
        <ele>54.93</ele>
        <time>2026-08-20T13:54:49Z</time>
      </trkpt>
      <trkpt lat="59.107020562514663" lon="30.502618281170726">
        <ele>54.450000000000003</ele>
        <time>2026-08-20T13:55:04Z</time>
      </trkpt>
      <trkpt lat="59.107034811750054" lon="30.502666309475899">
        <ele>54.450000000000003</ele>
        <time>2026-08-20T13:55:27Z</time>
      </trkpt>
      <trkpt lat="59.107034727931023" lon="30.502652730792761">
        <ele>54.450000000000003</ele>
        <time>2026-08-20T13:55:35Z</time>
      </trkpt>
      <trkpt lat="59.106991142034531" lon="30.502623310312629">
        <ele>54.450000000000003</ele>
        <time>2026-08-20T13:55:48Z</time>
      </trkpt>
      <trkpt lat="59.106965325772762" lon="30.502638649195433">
        <ele>54.450000000000003</ele>
        <time>2026-08-20T13:56:06Z</time>
      </trkpt>
      <trkpt lat="59.106895001605153" lon="30.502714924514294">
        <ele>53.969999999999999</ele>
        <time>2026-08-20T13:56:22Z</time>
      </trkpt>
      <trkpt lat="59.106776146218181" lon="30.502726910635829">
        <ele>54.93</ele>
        <time>2026-08-20T13:56:39Z</time>
      </trkpt>
      <trkpt lat="59.106591660529375" lon="30.50271425396204">
        <ele>54.93</ele>
        <time>2026-08-20T13:56:57Z</time>
      </trkpt>
      <trkpt lat="59.10648051649332" lon="30.502817686647177">
        <ele>54.93</ele>
        <time>2026-08-20T13:57:16Z</time>
      </trkpt>
      <trkpt lat="59.106459897011518" lon="30.502827828750014">
        <ele>54.93</ele>
        <time>2026-08-20T13:57:33Z</time>
      </trkpt>
      <trkpt lat="59.106426537036896" lon="30.502811400219798">
        <ele>53.969999999999999</ele>
        <time>2026-08-20T13:57:56Z</time>
      </trkpt>
      <trkpt lat="59.106296617537737" lon="30.502831852063537">
        <ele>53.969999999999999</ele>
        <time>2026-08-20T13:58:09Z</time>
      </trkpt>
      <trkpt lat="59.106242973357439" lon="30.502869235351682">
        <ele>54.93</ele>
        <time>2026-08-20T13:58:28Z</time>
      </trkpt>
      <trkpt lat="59.1062190849334" lon="30.502889854833484">
        <ele>53.969999999999999</ele>
        <time>2026-08-20T13:58:55Z</time>
      </trkpt>
      <trkpt lat="59.106198884546757" lon="30.502898823469877">
        <ele>54.93</ele>
        <time>2026-08-20T13:58:59Z</time>
      </trkpt>
      <trkpt lat="59.106183378025889" lon="30.502912821248174">
        <ele>54.93</ele>
        <time>2026-08-20T13:59:20Z</time>
      </trkpt>
      <trkpt lat="59.106178767979145" lon="30.502913240343332">
        <ele>53.969999999999999</ele>
        <time>2026-08-20T13:59:33Z</time>
      </trkpt>
      <trkpt lat="59.106188071891665" lon="30.502921622246504">
        <ele>54.93</ele>
        <time>2026-08-20T13:59:55Z</time>
      </trkpt>
      <trkpt lat="59.106237608939409" lon="30.502909133210778">
        <ele>54.93</ele>
        <time>2026-08-20T14:00:24Z</time>
      </trkpt>
      <trkpt lat="59.106229059398174" lon="30.502901840955019">
        <ele>55.409999999999997</ele>
        <time>2026-08-20T14:00:45Z</time>
      </trkpt>
      <trkpt lat="59.106228053569794" lon="30.502921706065536">
        <ele>54.450000000000003</ele>
        <time>2026-08-20T14:01:05Z</time>
      </trkpt>
      <trkpt lat="59.10622444935143" lon="30.502929417416453">
        <ele>54.450000000000003</ele>
        <time>2026-08-20T14:01:28Z</time>
      </trkpt>
      <trkpt lat="59.106226209551096" lon="30.502928495407104">
        <ele>55.409999999999997</ele>
        <time>2026-08-20T14:01:57Z</time>
      </trkpt>
      <trkpt lat="59.106226209551096" lon="30.502920784056187">
        <ele>55.890000000000001</ele>
        <time>2026-08-20T14:02:20Z</time>
      </trkpt>
      <trkpt lat="59.106226125732064" lon="30.502920700237155">
        <ele>55.890000000000001</ele>
        <time>2026-08-20T14:02:45Z</time>
      </trkpt>
      <trkpt lat="59.106227215379477" lon="30.502912066876888">
        <ele>55.890000000000001</ele>
        <time>2026-08-20T14:03:15Z</time>
      </trkpt>
      <trkpt lat="59.106230400502682" lon="30.502901338040829">
        <ele>55.890000000000001</ele>
        <time>2026-08-20T14:03:46Z</time>
      </trkpt>
      <trkpt lat="59.106229897588491" lon="30.502894213423133">
        <ele>54.93</ele>
        <time>2026-08-20T14:04:18Z</time>
      </trkpt>
      <trkpt lat="59.106229981407523" lon="30.50289454869926">
        <ele>54.93</ele>
        <time>2026-08-20T14:04:19Z</time>
      </trkpt>
      <trkpt lat="59.106233920902014" lon="30.502891028299928">
        <ele>54.93</ele>
        <time>2026-08-20T14:04:47Z</time>
      </trkpt>
      <trkpt lat="59.106220928952098" lon="30.502885580062866">
        <ele>54.93</ele>
        <time>2026-08-20T14:05:15Z</time>
      </trkpt>
      <trkpt lat="59.106221348047256" lon="30.502885915338993">
        <ele>56.369999999999997</ele>
        <time>2026-08-20T14:05:23Z</time>
      </trkpt>
      <trkpt lat="59.106283374130726" lon="30.502863032743335">
        <ele>56.369999999999997</ele>
        <time>2026-08-20T14:05:40Z</time>
      </trkpt>
      <trkpt lat="59.106381442397833" lon="30.502865966409445">
        <ele>56.369999999999997</ele>
        <time>2026-08-20T14:05:52Z</time>
      </trkpt>
      <trkpt lat="59.106411701068282" lon="30.502852303907275">
        <ele>56.369999999999997</ele>
        <time>2026-08-20T14:06:07Z</time>
      </trkpt>
      <trkpt lat="59.106383286416531" lon="30.502876192331314">
        <ele>56.859999999999999</ele>
        <time>2026-08-20T14:06:35Z</time>
      </trkpt>
      <trkpt lat="59.106383537873626" lon="30.502867810428143">
        <ele>55.409999999999997</ele>
        <time>2026-08-20T14:06:58Z</time>
      </trkpt>
      <trkpt lat="59.10638764500618" lon="30.502838809043169">
        <ele>56.369999999999997</ele>
        <time>2026-08-20T14:07:03Z</time>
      </trkpt>
      <trkpt lat="59.106389489024878" lon="30.502838138490915">
        <ele>55.409999999999997</ele>
        <time>2026-08-20T14:07:15Z</time>
      </trkpt>
      <trkpt lat="59.106400217860937" lon="30.50284132361412">
        <ele>56.369999999999997</ele>
        <time>2026-08-20T14:07:43Z</time>
      </trkpt>
      <trkpt lat="59.106404995545745" lon="30.502831600606441">
        <ele>55.409999999999997</ele>
        <time>2026-08-20T14:07:59Z</time>
      </trkpt>
      <trkpt lat="59.106402397155762" lon="30.502732945606112">
        <ele>55.409999999999997</ele>
        <time>2026-08-20T14:08:15Z</time>
      </trkpt>
      <trkpt lat="59.106408013030887" lon="30.502644181251526">
        <ele>56.369999999999997</ele>
        <time>2026-08-20T14:08:20Z</time>
      </trkpt>
      <trkpt lat="59.10639300942421" lon="30.502451900392771">
        <ele>56.369999999999997</ele>
        <time>2026-08-20T14:08:32Z</time>
      </trkpt>
      <trkpt lat="59.10636518150568" lon="30.502314520999789">
        <ele>56.369999999999997</ele>
        <time>2026-08-20T14:08:43Z</time>
      </trkpt>
      <trkpt lat="59.106336263939738" lon="30.502219302579761">
        <ele>56.369999999999997</ele>
        <time>2026-08-20T14:08:53Z</time>
      </trkpt>
      <trkpt lat="59.106345986947417" lon="30.502057699486613">
        <ele>56.859999999999999</ele>
        <time>2026-08-20T14:09:09Z</time>
      </trkpt>
      <trkpt lat="59.106324529275298" lon="30.501912105828524">
        <ele>56.859999999999999</ele>
        <time>2026-08-20T14:09:26Z</time>
      </trkpt>
      <trkpt lat="59.106258815154433" lon="30.501754190772772">
        <ele>56.859999999999999</ele>
        <time>2026-08-20T14:09:36Z</time>
      </trkpt>
      <trkpt lat="59.106253618374467" lon="30.5015869718045">
        <ele>56.859999999999999</ele>
        <time>2026-08-20T14:09:51Z</time>
      </trkpt>
      <trkpt lat="59.106263425201178" lon="30.501389997079968">
        <ele>56.859999999999999</ele>
        <time>2026-08-20T14:10:07Z</time>
      </trkpt>
      <trkpt lat="59.106279434636235" lon="30.501244319602847">
        <ele>56.859999999999999</ele>
        <time>2026-08-20T14:10:20Z</time>
      </trkpt>
      <trkpt lat="59.10622444935143" lon="30.501075005158782">
        <ele>57.340000000000003</ele>
        <time>2026-08-20T14:10:37Z</time>
      </trkpt>
      <trkpt lat="59.106202321127057" lon="30.500911725685">
        <ele>57.340000000000003</ele>
        <time>2026-08-20T14:10:51Z</time>
      </trkpt>
      <trkpt lat="59.106202907860279" lon="30.500884400680661">
        <ele>55.890000000000001</ele>
        <time>2026-08-20T14:10:53Z</time>
      </trkpt>
      <trkpt lat="59.106204165145755" lon="30.500819943845272">
        <ele>57.340000000000003</ele>
        <time>2026-08-20T14:10:58Z</time>
      </trkpt>
      <trkpt lat="59.106224114075303" lon="30.5006492882967">
        <ele>57.340000000000003</ele>
        <time>2026-08-20T14:11:13Z</time>
      </trkpt>
      <trkpt lat="59.106245487928391" lon="30.500499587506056">
        <ele>56.369999999999997</ele>
        <time>2026-08-20T14:11:27Z</time>
      </trkpt>
      <trkpt lat="59.106250265613198" lon="30.500463880598545">
        <ele>56.369999999999997</ele>
        <time>2026-08-20T14:11:35Z</time>
      </trkpt>
      <trkpt lat="59.106229646131396" lon="30.500394310802221">
        <ele>56.369999999999997</ele>
        <time>2026-08-20T14:11:46Z</time>
      </trkpt>
      <trkpt lat="59.106224533170462" lon="30.500322729349136">
        <ele>56.369999999999997</ele>
        <time>2026-08-20T14:11:56Z</time>
      </trkpt>
      <trkpt lat="59.106228640303016" lon="30.500163305550814">
        <ele>56.369999999999997</ele>
        <time>2026-08-20T14:12:10Z</time>
      </trkpt>
      <trkpt lat="59.106225538998842" lon="30.500117037445307">
        <ele>57.340000000000003</ele>
        <time>2026-08-20T14:12:31Z</time>
      </trkpt>
      <trkpt lat="59.106225622817874" lon="30.500120725482702">
        <ele>56.859999999999999</ele>
        <time>2026-08-20T14:12:48Z</time>
      </trkpt>
      <trkpt lat="59.106221683323383" lon="30.50008786842227">
        <ele>56.369999999999997</ele>
        <time>2026-08-20T14:13:11Z</time>
      </trkpt>
      <trkpt lat="59.106223694980145" lon="30.500075127929449">
        <ele>56.369999999999997</ele>
        <time>2026-08-20T14:13:29Z</time>
      </trkpt>
      <trkpt lat="59.106207601726055" lon="30.500015029683709">
        <ele>57.82</ele>
        <time>2026-08-20T14:13:54Z</time>
      </trkpt>
      <trkpt lat="59.106216318905354" lon="30.500032799318433">
        <ele>57.82</ele>
        <time>2026-08-20T14:14:21Z</time>
      </trkpt>
      <trkpt lat="59.106215983629227" lon="30.500028021633625">
        <ele>57.82</ele>
        <time>2026-08-20T14:14:51Z</time>
      </trkpt>
      <trkpt lat="59.106216821819544" lon="30.500025674700737">
        <ele>56.859999999999999</ele>
        <time>2026-08-20T14:15:22Z</time>
      </trkpt>
      <trkpt lat="59.106227969750762" lon="30.500043695792556">
        <ele>56.859999999999999</ele>
        <time>2026-08-20T14:15:54Z</time>
      </trkpt>
      <trkpt lat="59.106233417987823" lon="30.500042270869017">
        <ele>58.780000000000001</ele>
        <time>2026-08-20T14:16:23Z</time>
      </trkpt>
      <trkpt lat="59.106237106025219" lon="30.500038247555494">
        <ele>58.780000000000001</ele>
        <time>2026-08-20T14:16:47Z</time>
      </trkpt>
      <trkpt lat="59.106235513463616" lon="30.500031709671021">
        <ele>58.780000000000001</ele>
        <time>2026-08-20T14:16:59Z</time>
      </trkpt>
      <trkpt lat="59.106234926730394" lon="30.500034391880035">
        <ele>57.340000000000003</ele>
        <time>2026-08-20T14:17:02Z</time>
      </trkpt>
      <trkpt lat="59.106222353875637" lon="30.500037409365177">
        <ele>57.340000000000003</ele>
        <time>2026-08-20T14:17:25Z</time>
      </trkpt>
      <trkpt lat="59.106219839304686" lon="30.500029362738132">
        <ele>58.780000000000001</ele>
        <time>2026-08-20T14:17:39Z</time>
      </trkpt>
      <trkpt lat="59.106219336390495" lon="30.500028859823942">
        <ele>58.780000000000001</ele>
        <time>2026-08-20T14:18:08Z</time>
      </trkpt>
      <trkpt lat="59.106212630867958" lon="30.500033888965845">
        <ele>58.780000000000001</ele>
        <time>2026-08-20T14:18:29Z</time>
      </trkpt>
      <trkpt lat="59.106209529563785" lon="30.500042773783207">
        <ele>59.259999999999998</ele>
        <time>2026-08-20T14:18:49Z</time>
      </trkpt>
      <trkpt lat="59.106210954487324" lon="30.500044785439968">
        <ele>59.259999999999998</ele>
        <time>2026-08-20T14:19:11Z</time>
      </trkpt>
      <trkpt lat="59.106207601726055" lon="30.500060878694057">
        <ele>59.259999999999998</ele>
        <time>2026-08-20T14:19:38Z</time>
      </trkpt>
      <trkpt lat="59.106203829869628" lon="30.500052496790886">
        <ele>59.259999999999998</ele>
        <time>2026-08-20T14:20:02Z</time>
      </trkpt>
      <trkpt lat="59.106205087155104" lon="30.500040929764509">
        <ele>59.740000000000002</ele>
        <time>2026-08-20T14:20:19Z</time>
      </trkpt>
      <trkpt lat="59.106205925345421" lon="30.500039421021938">
        <ele>58.299999999999997</ele>
        <time>2026-08-20T14:20:22Z</time>
      </trkpt>
      <trkpt lat="59.106206176802516" lon="30.500039169564843">
        <ele>58.299999999999997</ele>
        <time>2026-08-20T14:20:48Z</time>
      </trkpt>
      <trkpt lat="59.106211205944419" lon="30.500038415193558">
        <ele>59.740000000000002</ele>
        <time>2026-08-20T14:21:00Z</time>
      </trkpt>
      <trkpt lat="59.106217995285988" lon="30.500032296404243">
        <ele>59.740000000000002</ele>
        <time>2026-08-20T14:21:23Z</time>
      </trkpt>
      <trkpt lat="59.106223024427891" lon="30.500022321939468">
        <ele>59.740000000000002</ele>
        <time>2026-08-20T14:21:48Z</time>
      </trkpt>
      <trkpt lat="59.106216318905354" lon="30.499978484585881">
        <ele>59.740000000000002</ele>
        <time>2026-08-20T14:22:02Z</time>
      </trkpt>
      <trkpt lat="59.106206931173801" lon="30.499909250065684">
        <ele>59.740000000000002</ele>
        <time>2026-08-20T14:22:15Z</time>
      </trkpt>
      <trkpt lat="59.106195280328393" lon="30.499723423272371">
        <ele>59.740000000000002</ele>
        <time>2026-08-20T14:22:28Z</time>
      </trkpt>
      <trkpt lat="59.106200141832232" lon="30.499499123543501">
        <ele>58.299999999999997</ele>
        <time>2026-08-20T14:22:39Z</time>
      </trkpt>
      <trkpt lat="59.106194861233234" lon="30.499377585947514">
        <ele>58.780000000000001</ele>
        <time>2026-08-20T14:22:55Z</time>
      </trkpt>
      <trkpt lat="59.106220426037908" lon="30.499304328113794">
        <ele>59.740000000000002</ele>
        <time>2026-08-20T14:23:08Z</time>
      </trkpt>
      <trkpt lat="59.106221683323383" lon="30.499228639528155">
        <ele>58.299999999999997</ele>
        <time>2026-08-20T14:23:20Z</time>
      </trkpt>
      <trkpt lat="59.106216989457607" lon="30.499215396121144">
        <ele>59.740000000000002</ele>
        <time>2026-08-20T14:23:24Z</time>
      </trkpt>
      <trkpt lat="59.10619561560452" lon="30.499061672016978">
        <ele>59.740000000000002</ele>
        <time>2026-08-20T14:23:37Z</time>
      </trkpt>
      <trkpt lat="59.106118669733405" lon="30.498836869373918">
        <ele>59.740000000000002</ele>
        <time>2026-08-20T14:23:52Z</time>
      </trkpt>
      <trkpt lat="59.106107521802187" lon="30.498783476650715">
        <ele>58.299999999999997</ele>
        <time>2026-08-20T14:23:55Z</time>
      </trkpt>
      <trkpt lat="59.106072401627898" lon="30.498632099479437">
        <ele>58.299999999999997</ele>
        <time>2026-08-20T14:24:09Z</time>
      </trkpt>
      <trkpt lat="59.10604415461421" lon="30.498554483056068">
        <ele>59.740000000000002</ele>
        <time>2026-08-20T14:24:18Z</time>
      </trkpt>
      <trkpt lat="59.106021858751774" lon="30.498466473072767">
        <ele>57.82</ele>
        <time>2026-08-20T14:24:25Z</time>
      </trkpt>
      <trkpt lat="59.105982547625899" lon="30.498259523883462">
        <ele>57.82</ele>
        <time>2026-08-20T14:24:38Z</time>
      </trkpt>
      <trkpt lat="59.105993527919054" lon="30.498147709295154">
        <ele>59.259999999999998</ele>
        <time>2026-08-20T14:24:52Z</time>
      </trkpt>
      <trkpt lat="59.106031581759453" lon="30.498014688491821">
        <ele>58.299999999999997</ele>
        <time>2026-08-20T14:25:07Z</time>
      </trkpt>
      <trkpt lat="59.106043316423893" lon="30.497911926358938">
        <ele>58.299999999999997</ele>
        <time>2026-08-20T14:25:23Z</time>
      </trkpt>
      <trkpt lat="59.106057230383158" lon="30.497685363516212">
        <ele>58.299999999999997</ele>
        <time>2026-08-20T14:25:35Z</time>
      </trkpt>
      <trkpt lat="59.106078017503023" lon="30.49743658863008">
        <ele>58.299999999999997</ele>
        <time>2026-08-20T14:25:48Z</time>
      </trkpt>
      <trkpt lat="59.10606469027698" lon="30.497175073251128">
        <ele>58.299999999999997</ele>
        <time>2026-08-20T14:26:04Z</time>
      </trkpt>
      <trkpt lat="59.106044489890337" lon="30.497012296691537">
        <ele>58.299999999999997</ele>
        <time>2026-08-20T14:26:20Z</time>
      </trkpt>
      <trkpt lat="59.106024457141757" lon="30.496827056631446">
        <ele>58.299999999999997</ele>
        <time>2026-08-20T14:26:37Z</time>
      </trkpt>
      <trkpt lat="59.105996377766132" lon="30.496709458529949">
        <ele>58.299999999999997</ele>
        <time>2026-08-20T14:26:50Z</time>
      </trkpt>
      <trkpt lat="59.105889676138759" lon="30.496532348915935">
        <ele>58.299999999999997</ele>
        <time>2026-08-20T14:27:03Z</time>
      </trkpt>
      <trkpt lat="59.105894202366471" lon="30.49647250212729">
        <ele>58.780000000000001</ele>
        <time>2026-08-20T14:27:18Z</time>
      </trkpt>
      <trkpt lat="59.105916246771812" lon="30.496323304250836">
        <ele>58.780000000000001</ele>
        <time>2026-08-20T14:27:31Z</time>
      </trkpt>
      <trkpt lat="59.105899147689342" lon="30.496139656752348">
        <ele>58.780000000000001</ele>
        <time>2026-08-20T14:27:43Z</time>
      </trkpt>
      <trkpt lat="59.105876265093684" lon="30.496056424453855">
        <ele>59.740000000000002</ele>
        <time>2026-08-20T14:28:04Z</time>
      </trkpt>
      <trkpt lat="59.105862267315388" lon="30.495992973446846">
        <ele>57.82</ele>
        <time>2026-08-20T14:28:43Z</time>
      </trkpt>
      <trkpt lat="59.105872074142098" lon="30.495970174670219">
        <ele>57.82</ele>
        <time>2026-08-20T14:28:56Z</time>
      </trkpt>
      <trkpt lat="59.105898728594184" lon="30.495825335383415">
        <ele>57.82</ele>
        <time>2026-08-20T14:29:10Z</time>
      </trkpt>
      <trkpt lat="59.105917504057288" lon="30.495622828602791">
        <ele>57.82</ele>
        <time>2026-08-20T14:29:25Z</time>
      </trkpt>
      <trkpt lat="59.105898225679994" lon="30.495418393984437">
        <ele>57.82</ele>
        <time>2026-08-20T14:29:39Z</time>
      </trkpt>
      <trkpt lat="59.105882216244936" lon="30.495325271040201">
        <ele>57.82</ele>
        <time>2026-08-20T14:29:54Z</time>
      </trkpt>
      <trkpt lat="59.105879031121731" lon="30.495205577462912">
        <ele>57.82</ele>
        <time>2026-08-20T14:30:06Z</time>
      </trkpt>
      <trkpt lat="59.10587802529335" lon="30.495176408439875">
        <ele>59.259999999999998</ele>
        <time>2026-08-20T14:30:18Z</time>
      </trkpt>
      <trkpt lat="59.105870146304369" lon="30.495135420933366">
        <ele>59.259999999999998</ele>
        <time>2026-08-20T14:30:21Z</time>
      </trkpt>
      <trkpt lat="59.105872241780162" lon="30.495067359879613">
        <ele>59.259999999999998</ele>
        <time>2026-08-20T14:30:33Z</time>
      </trkpt>
      <trkpt lat="59.10586629062891" lon="30.494980020448565">
        <ele>59.259999999999998</ele>
        <time>2026-08-20T14:30:46Z</time>
      </trkpt>
      <trkpt lat="59.105866039171815" lon="30.494882790371776">
        <ele>57.82</ele>
        <time>2026-08-20T14:31:00Z</time>
      </trkpt>
      <trkpt lat="59.105868972837925" lon="30.494799558073282">
        <ele>59.259999999999998</ele>
        <time>2026-08-20T14:31:16Z</time>
      </trkpt>
      <trkpt lat="59.105866709724069" lon="30.494714649394155">
        <ele>57.82</ele>
        <time>2026-08-20T14:31:31Z</time>
      </trkpt>
      <trkpt lat="59.105847263708711" lon="30.49456050619483">
        <ele>57.82</ele>
        <time>2026-08-20T14:31:44Z</time>
      </trkpt>
      <trkpt lat="59.105835864320397" lon="30.494375601410866">
        <ele>57.82</ele>
        <time>2026-08-20T14:31:56Z</time>
      </trkpt>
      <trkpt lat="59.10582086071372" lon="30.49430544488132">
        <ele>59.259999999999998</ele>
        <time>2026-08-20T14:32:01Z</time>
      </trkpt>
      <trkpt lat="59.105811892077327" lon="30.494274348020554">
        <ele>57.82</ele>
        <time>2026-08-20T14:32:04Z</time>
      </trkpt>
      <trkpt lat="59.105811640620232" lon="30.494247023016214">
        <ele>59.259999999999998</ele>
        <time>2026-08-20T14:32:07Z</time>
      </trkpt>
      <trkpt lat="59.105823626741767" lon="30.494183320552111">
        <ele>58.299999999999997</ele>
        <time>2026-08-20T14:32:18Z</time>
      </trkpt>
      <trkpt lat="59.105839133262634" lon="30.494042253121734">
        <ele>57.82</ele>
        <time>2026-08-20T14:32:32Z</time>
      </trkpt>
      <trkpt lat="59.105793451890349" lon="30.49397905357182">
        <ele>58.780000000000001</ele>
        <time>2026-08-20T14:32:46Z</time>
      </trkpt>
      <trkpt lat="59.105755314230919" lon="30.493890373036265">
        <ele>58.780000000000001</ele>
        <time>2026-08-20T14:32:57Z</time>
      </trkpt>
      <trkpt lat="59.105747435241938" lon="30.493842344731092">
        <ele>58.299999999999997</ele>
        <time>2026-08-20T14:33:05Z</time>
      </trkpt>
      <trkpt lat="59.105744585394859" lon="30.493775038048625">
        <ele>57.82</ele>
        <time>2026-08-20T14:33:17Z</time>
      </trkpt>
      <trkpt lat="59.105750033631921" lon="30.49370588734746">
        <ele>57.82</ele>
        <time>2026-08-20T14:33:27Z</time>
      </trkpt>
      <trkpt lat="59.105767048895359" lon="30.493662049993873">
        <ele>57.82</ele>
        <time>2026-08-20T14:33:41Z</time>
      </trkpt>
      <trkpt lat="59.105777023360133" lon="30.493592731654644">
        <ele>57.82</ele>
        <time>2026-08-20T14:34:00Z</time>
      </trkpt>
      <trkpt lat="59.105769898742437" lon="30.493502207100391">
        <ele>58.780000000000001</ele>
        <time>2026-08-20T14:34:15Z</time>
      </trkpt>
      <trkpt lat="59.105786075815558" lon="30.4934171307832">
        <ele>57.340000000000003</ele>
        <time>2026-08-20T14:34:28Z</time>
      </trkpt>
      <trkpt lat="59.105788841843605" lon="30.493354937061667">
        <ele>57.340000000000003</ele>
        <time>2026-08-20T14:34:42Z</time>
      </trkpt>
      <trkpt lat="59.10578615963459" lon="30.493318224325776">
        <ele>57.340000000000003</ele>
        <time>2026-08-20T14:34:58Z</time>
      </trkpt>
      <trkpt lat="59.105791188776493" lon="30.493278494104743">
        <ele>57.340000000000003</ele>
        <time>2026-08-20T14:35:14Z</time>
      </trkpt>
      <trkpt lat="59.105801666155457" lon="30.493159722536802">
        <ele>56.859999999999999</ele>
        <time>2026-08-20T14:35:30Z</time>
      </trkpt>
      <trkpt lat="59.105819016695023" lon="30.49308336339891">
        <ele>58.299999999999997</ele>
        <time>2026-08-20T14:35:40Z</time>
      </trkpt>
      <trkpt lat="59.105838797986507" lon="30.49304086714983">
        <ele>58.299999999999997</ele>
        <time>2026-08-20T14:35:52Z</time>
      </trkpt>
      <trkpt lat="59.105875845998526" lon="30.492880018427968">
        <ele>57.340000000000003</ele>
        <time>2026-08-20T14:36:08Z</time>
      </trkpt>
      <trkpt lat="59.10588045604527" lon="30.492701316252351">
        <ele>57.340000000000003</ele>
        <time>2026-08-20T14:36:22Z</time>
      </trkpt>
      <trkpt lat="59.105880288407207" lon="30.492653455585241">
        <ele>58.780000000000001</ele>
        <time>2026-08-20T14:36:30Z</time>
      </trkpt>
      <trkpt lat="59.105877690017223" lon="30.492635518312454">
        <ele>57.340000000000003</ele>
        <time>2026-08-20T14:36:33Z</time>
      </trkpt>
      <trkpt lat="59.10587215796113" lon="30.492568546906114">
        <ele>56.859999999999999</ele>
        <time>2026-08-20T14:36:45Z</time>
      </trkpt>
      <trkpt lat="59.105870313942432" lon="30.492557482793927">
        <ele>58.299999999999997</ele>
        <time>2026-08-20T14:36:47Z</time>
      </trkpt>
      <trkpt lat="59.105858495458961" lon="30.492507442831993">
        <ele>56.859999999999999</ele>
        <time>2026-08-20T14:36:54Z</time>
      </trkpt>
      <trkpt lat="59.105854639783502" lon="30.492480872198939">
        <ele>58.299999999999997</ele>
        <time>2026-08-20T14:37:02Z</time>
      </trkpt>
      <trkpt lat="59.105847347527742" lon="30.492440303787589">
        <ele>56.859999999999999</ele>
        <time>2026-08-20T14:37:10Z</time>
      </trkpt>
      <trkpt lat="59.105846090242267" lon="30.492428820580244">
        <ele>56.859999999999999</ele>
        <time>2026-08-20T14:37:30Z</time>
      </trkpt>
      <trkpt lat="59.105858663097024" lon="30.492424545809627">
        <ele>56.859999999999999</ele>
        <time>2026-08-20T14:38:05Z</time>
      </trkpt>
      <trkpt lat="59.105857573449612" lon="30.492427898570895">
        <ele>56.859999999999999</ele>
        <time>2026-08-20T14:38:30Z</time>
      </trkpt>
      <trkpt lat="59.105857321992517" lon="30.492423372343183">
        <ele>56.859999999999999</ele>
        <time>2026-08-20T14:38:51Z</time>
      </trkpt>
      <trkpt lat="59.105859501287341" lon="30.49239587970078">
        <ele>56.859999999999999</ele>
        <time>2026-08-20T14:39:07Z</time>
      </trkpt>
      <trkpt lat="59.105858914554119" lon="30.492378193885088">
        <ele>57.82</ele>
        <time>2026-08-20T14:39:16Z</time>
      </trkpt>
      <trkpt lat="59.105856651440263" lon="30.492325890809298">
        <ele>56.859999999999999</ele>
        <time>2026-08-20T14:39:31Z</time>
      </trkpt>
      <trkpt lat="59.105850197374821" lon="30.492308372631669">
        <ele>58.299999999999997</ele>
        <time>2026-08-20T14:39:34Z</time>
      </trkpt>
      <trkpt lat="59.105844246223569" lon="30.492242993786931">
        <ele>58.299999999999997</ele>
        <time>2026-08-20T14:39:47Z</time>
      </trkpt>
      <trkpt lat="59.10584039054811" lon="30.492103770375252">
        <ele>56.859999999999999</ele>
        <time>2026-08-20T14:39:56Z</time>
      </trkpt>
      <trkpt lat="59.105839384719729" lon="30.492083234712481">
        <ele>58.299999999999997</ele>
        <time>2026-08-20T14:39:57Z</time>
      </trkpt>
      <trkpt lat="59.105827398598194" lon="30.492008551955223">
        <ele>56.859999999999999</ele>
        <time>2026-08-20T14:40:15Z</time>
      </trkpt>
      <trkpt lat="59.105822453275323" lon="30.491971503943205">
        <ele>56.859999999999999</ele>
        <time>2026-08-20T14:40:28Z</time>
      </trkpt>
      <trkpt lat="59.105820273980498" lon="30.491953482851386">
        <ele>56.859999999999999</ele>
        <time>2026-08-20T14:40:41Z</time>
      </trkpt>
      <trkpt lat="59.10582379437983" lon="30.491925990208983">
        <ele>57.82</ele>
        <time>2026-08-20T14:40:54Z</time>
      </trkpt>
      <trkpt lat="59.1058149933815" lon="30.491882236674428">
        <ele>57.82</ele>
        <time>2026-08-20T14:41:10Z</time>
      </trkpt>
      <trkpt lat="59.105803677812219" lon="30.491830436512828">
        <ele>57.82</ele>
        <time>2026-08-20T14:41:22Z</time>
      </trkpt>
      <trkpt lat="59.105787584558129" lon="30.491790287196636">
        <ele>57.82</ele>
        <time>2026-08-20T14:41:35Z</time>
      </trkpt>
      <trkpt lat="59.105778196826577" lon="30.491765476763248">
        <ele>57.82</ele>
        <time>2026-08-20T14:41:54Z</time>
      </trkpt>
      <trkpt lat="59.105755565688014" lon="30.491717532277107">
        <ele>57.82</ele>
        <time>2026-08-20T14:42:08Z</time>
      </trkpt>
      <trkpt lat="59.105745675042272" lon="30.491633042693138">
        <ele>57.82</ele>
        <time>2026-08-20T14:42:20Z</time>
      </trkpt>
      <trkpt lat="59.105744501575828" lon="30.491616446524858">
        <ele>56.859999999999999</ele>
        <time>2026-08-20T14:42:24Z</time>
      </trkpt>
      <trkpt lat="59.105712315067649" lon="30.491509074345231">
        <ele>57.82</ele>
        <time>2026-08-20T14:42:40Z</time>
      </trkpt>
      <trkpt lat="59.105708040297031" lon="30.491500440984964">
        <ele>57.82</ele>
        <time>2026-08-20T14:42:41Z</time>
      </trkpt>
      <trkpt lat="59.105697898194194" lon="30.491454005241394">
        <ele>57.82</ele>
        <time>2026-08-20T14:42:55Z</time>
      </trkpt>
      <trkpt lat="59.105695802718401" lon="30.491433888673782">
        <ele>58.780000000000001</ele>
        <time>2026-08-20T14:43:11Z</time>
      </trkpt>
      <trkpt lat="59.105693958699703" lon="30.491399690508842">
        <ele>57.340000000000003</ele>
        <time>2026-08-20T14:43:15Z</time>
      </trkpt>
      <trkpt lat="59.105669734999537" lon="30.49131017178297">
        <ele>57.340000000000003</ele>
        <time>2026-08-20T14:43:34Z</time>
      </trkpt>
      <trkpt lat="59.105675350874662" lon="30.491259964182973">
        <ele>57.340000000000003</ele>
        <time>2026-08-20T14:43:45Z</time>
      </trkpt>
      <trkpt lat="59.105676524341106" lon="30.491213360801339">
        <ele>57.340000000000003</ele>
        <time>2026-08-20T14:44:03Z</time>
      </trkpt>
      <trkpt lat="59.105677613988519" lon="30.49115183763206">
        <ele>58.780000000000001</ele>
        <time>2026-08-20T14:44:23Z</time>
      </trkpt>
      <trkpt lat="59.105677530169487" lon="30.491133062168956">
        <ele>57.340000000000003</ele>
        <time>2026-08-20T14:44:28Z</time>
      </trkpt>
      <trkpt lat="59.105671662837267" lon="30.491062318906188">
        <ele>57.340000000000003</ele>
        <time>2026-08-20T14:44:45Z</time>
      </trkpt>
      <trkpt lat="59.105668142437935" lon="30.491020157933235">
        <ele>57.340000000000003</ele>
        <time>2026-08-20T14:44:59Z</time>
      </trkpt>
      <trkpt lat="59.105680547654629" lon="30.490965591743588">
        <ele>57.340000000000003</ele>
        <time>2026-08-20T14:45:14Z</time>
      </trkpt>
      <trkpt lat="59.105690522119403" lon="30.490909516811371">
        <ele>57.340000000000003</ele>
        <time>2026-08-20T14:45:31Z</time>
      </trkpt>
      <trkpt lat="59.105693288147449" lon="30.49089627340436">
        <ele>57.340000000000003</ele>
        <time>2026-08-20T14:45:45Z</time>
      </trkpt>
      <trkpt lat="59.105698987841606" lon="30.490845562890172">
        <ele>56.369999999999997</ele>
        <time>2026-08-20T14:46:02Z</time>
      </trkpt>
      <trkpt lat="59.105714662000537" lon="30.490717319771647">
        <ele>57.82</ele>
        <time>2026-08-20T14:46:11Z</time>
      </trkpt>
      <trkpt lat="59.105724217370152" lon="30.490683037787676">
        <ele>56.369999999999997</ele>
        <time>2026-08-20T14:46:18Z</time>
      </trkpt>
      <trkpt lat="59.105721116065979" lon="30.490619335323572">
        <ele>55.890000000000001</ele>
        <time>2026-08-20T14:46:34Z</time>
      </trkpt>
      <trkpt lat="59.105718685314059" lon="30.490575665608048">
        <ele>57.340000000000003</ele>
        <time>2026-08-20T14:46:43Z</time>
      </trkpt>
      <trkpt lat="59.10569379106164" lon="30.490435268729925">
        <ele>57.340000000000003</ele>
        <time>2026-08-20T14:46:56Z</time>
      </trkpt>
      <trkpt lat="59.105684487149119" lon="30.490384139120579">
        <ele>57.340000000000003</ele>
        <time>2026-08-20T14:47:09Z</time>
      </trkpt>
      <trkpt lat="59.1056820563972" lon="30.490288669243455">
        <ele>56.369999999999997</ele>
        <time>2026-08-20T14:47:35Z</time>
      </trkpt>
      <trkpt lat="59.105670405551791" lon="30.490264110267162">
        <ele>57.340000000000003</ele>
        <time>2026-08-20T14:47:54Z</time>
      </trkpt>
      <trkpt lat="59.105661269277334" lon="30.490241060033441">
        <ele>55.890000000000001</ele>
        <time>2026-08-20T14:47:59Z</time>
      </trkpt>
      <trkpt lat="59.105648025870323" lon="30.490220692008734">
        <ele>55.890000000000001</ele>
        <time>2026-08-20T14:48:18Z</time>
      </trkpt>
      <trkpt lat="59.105650372803211" lon="30.490224547684193">
        <ele>57.340000000000003</ele>
        <time>2026-08-20T14:48:23Z</time>
      </trkpt>
      <trkpt lat="59.1056371293962" lon="30.490226978436112">
        <ele>55.890000000000001</ele>
        <time>2026-08-20T14:48:43Z</time>
      </trkpt>
      <trkpt lat="59.105637967586517" lon="30.490209627896547">
        <ele>57.340000000000003</ele>
        <time>2026-08-20T14:48:57Z</time>
      </trkpt>
      <trkpt lat="59.105613911524415" lon="30.490206945687532">
        <ele>56.369999999999997</ele>
        <time>2026-08-20T14:49:11Z</time>
      </trkpt>
      <trkpt lat="59.105607541278005" lon="30.490206526592374">
        <ele>56.369999999999997</ele>
        <time>2026-08-20T14:49:38Z</time>
      </trkpt>
      <trkpt lat="59.1056112293154" lon="30.490154391154647">
        <ele>55.890000000000001</ele>
        <time>2026-08-20T14:49:58Z</time>
      </trkpt>
      <trkpt lat="59.105614079162478" lon="30.490125473588705">
        <ele>56.859999999999999</ele>
        <time>2026-08-20T14:50:12Z</time>
      </trkpt>
      <trkpt lat="59.105620365589857" lon="30.490057747811079">
        <ele>56.859999999999999</ele>
        <time>2026-08-20T14:50:27Z</time>
      </trkpt>
      <trkpt lat="59.105627574026585" lon="30.490010641515255">
        <ele>57.82</ele>
        <time>2026-08-20T14:50:41Z</time>
      </trkpt>
      <trkpt lat="59.105618773028255" lon="30.489967223256826">
        <ele>57.82</ele>
        <time>2026-08-20T14:50:56Z</time>
      </trkpt>
      <trkpt lat="59.105619443580508" lon="30.489963786676526">
        <ele>56.369999999999997</ele>
        <time>2026-08-20T14:50:58Z</time>
      </trkpt>
      <trkpt lat="59.105621874332428" lon="30.489919781684875">
        <ele>57.82</ele>
        <time>2026-08-20T14:51:04Z</time>
      </trkpt>
      <trkpt lat="59.105619275942445" lon="30.489895641803741">
        <ele>56.859999999999999</ele>
        <time>2026-08-20T14:51:12Z</time>
      </trkpt>
      <trkpt lat="59.105635285377502" lon="30.489811236038804">
        <ele>56.859999999999999</ele>
        <time>2026-08-20T14:51:28Z</time>
      </trkpt>
      <trkpt lat="59.105641823261976" lon="30.489786090329289">
        <ele>56.859999999999999</ele>
        <time>2026-08-20T14:51:44Z</time>
      </trkpt>
      <trkpt lat="59.105641571804881" lon="30.489727668464184">
        <ele>55.890000000000001</ele>
        <time>2026-08-20T14:51:53Z</time>
      </trkpt>
      <trkpt lat="59.105632016435266" lon="30.489719118922949">
        <ele>57.82</ele>
        <time>2026-08-20T14:51:59Z</time>
      </trkpt>
      <trkpt lat="59.105626484379172" lon="30.489683663472533">
        <ele>56.369999999999997</ele>
        <time>2026-08-20T14:52:16Z</time>
      </trkpt>
      <trkpt lat="59.105612318962812" lon="30.489627169445157">
        <ele>56.369999999999997</ele>
        <time>2026-08-20T14:52:30Z</time>
      </trkpt>
      <trkpt lat="59.105631094425917" lon="30.489610657095909">
        <ele>56.369999999999997</ele>
        <time>2026-08-20T14:52:43Z</time>
      </trkpt>
      <trkpt lat="59.105623969808221" lon="30.489516193047166">
        <ele>56.369999999999997</ele>
        <time>2026-08-20T14:53:03Z</time>
      </trkpt>
      <trkpt lat="59.105604523792863" lon="30.489425165578723">
        <ele>57.340000000000003</ele>
        <time>2026-08-20T14:53:16Z</time>
      </trkpt>
      <trkpt lat="59.105582982301712" lon="30.489311339333653">
        <ele>56.369999999999997</ele>
        <time>2026-08-20T14:53:31Z</time>
      </trkpt>
      <trkpt lat="59.105563620105386" lon="30.489265490323305">
        <ele>55.890000000000001</ele>
        <time>2026-08-20T14:53:44Z</time>
      </trkpt>
      <trkpt lat="59.105541408061981" lon="30.489193322136998">
        <ele>55.890000000000001</ele>
        <time>2026-08-20T14:53:56Z</time>
      </trkpt>
      <trkpt lat="59.105557836592197" lon="30.489152334630489">
        <ele>55.890000000000001</ele>
        <time>2026-08-20T14:54:17Z</time>
      </trkpt>
      <trkpt lat="59.105560770258307" lon="30.48916700296104">
        <ele>55.890000000000001</ele>
        <time>2026-08-20T14:54:37Z</time>
      </trkpt>
      <trkpt lat="59.105561943724751" lon="30.48915677703917">
        <ele>55.890000000000001</ele>
        <time>2026-08-20T14:54:50Z</time>
      </trkpt>
      <trkpt lat="59.105585496872663" lon="30.489168846979737">
        <ele>55.409999999999997</ele>
        <time>2026-08-20T14:55:07Z</time>
      </trkpt>
      <trkpt lat="59.105589352548122" lon="30.489167589694262">
        <ele>56.859999999999999</ele>
        <time>2026-08-20T14:55:11Z</time>
      </trkpt>
      <trkpt lat="59.105638386681676" lon="30.489148562774062">
        <ele>55.890000000000001</ele>
        <time>2026-08-20T14:55:27Z</time>
      </trkpt>
      <trkpt lat="59.105676775798202" lon="30.489152166992426">
        <ele>55.890000000000001</ele>
        <time>2026-08-20T14:55:40Z</time>
      </trkpt>
      <trkpt lat="59.105770736932755" lon="30.489116543903947">
        <ele>55.890000000000001</ele>
        <time>2026-08-20T14:55:59Z</time>
      </trkpt>
      <trkpt lat="59.105778867378831" lon="30.489092655479908">
        <ele>55.890000000000001</ele>
        <time>2026-08-20T14:56:16Z</time>
      </trkpt>
      <trkpt lat="59.105776520445943" lon="30.48908251337707">
        <ele>55.890000000000001</ele>
        <time>2026-08-20T14:56:43Z</time>
      </trkpt>
      <trkpt lat="59.105766378343105" lon="30.4890654142946">
        <ele>55.890000000000001</ele>
        <time>2026-08-20T14:57:00Z</time>
      </trkpt>
      <trkpt lat="59.105694545432925" lon="30.488968435674906">
        <ele>56.859999999999999</ele>
        <time>2026-08-20T14:57:12Z</time>
      </trkpt>
      <trkpt lat="59.105686834082007" lon="30.488951671868563">
        <ele>56.859999999999999</ele>
        <time>2026-08-20T14:57:28Z</time>
      </trkpt>
      <trkpt lat="59.105671579018235" lon="30.488925185054541">
        <ele>56.859999999999999</ele>
        <time>2026-08-20T14:57:53Z</time>
      </trkpt>
      <trkpt lat="59.10566009581089" lon="30.488896518945694">
        <ele>55.409999999999997</ele>
        <time>2026-08-20T14:58:12Z</time>
      </trkpt>
      <trkpt lat="59.105654815211892" lon="30.488850669935346">
        <ele>55.409999999999997</ele>
        <time>2026-08-20T14:58:25Z</time>
      </trkpt>
      <trkpt lat="59.105643918737769" lon="30.488780932500958">
        <ele>55.409999999999997</ele>
        <time>2026-08-20T14:58:35Z</time>
      </trkpt>
      <trkpt lat="59.105616258457303" lon="30.488689905032516">
        <ele>55.409999999999997</ele>
        <time>2026-08-20T14:58:48Z</time>
      </trkpt>
      <trkpt lat="59.105611061677337" lon="30.488607678562403">
        <ele>54.93</ele>
        <time>2026-08-20T14:59:02Z</time>
      </trkpt>
      <trkpt lat="59.105558674782515" lon="30.488439789041877">
        <ele>56.369999999999997</ele>
        <time>2026-08-20T14:59:12Z</time>
      </trkpt>
      <trkpt lat="59.105575103312731" lon="30.488364854827523">
        <ele>55.409999999999997</ele>
        <time>2026-08-20T14:59:18Z</time>
      </trkpt>
      <trkpt lat="59.105566302314401" lon="30.488300900906324">
        <ele>55.409999999999997</ele>
        <time>2026-08-20T14:59:31Z</time>
      </trkpt>
      <trkpt lat="59.105560770258307" lon="30.488201826810837">
        <ele>54.93</ele>
        <time>2026-08-20T14:59:48Z</time>
      </trkpt>
      <trkpt lat="59.105545179918408" lon="30.488123456016183">
        <ele>54.93</ele>
        <time>2026-08-20T15:00:07Z</time>
      </trkpt>
      <trkpt lat="59.105491954833269" lon="30.487987250089645">
        <ele>54.93</ele>
        <time>2026-08-20T15:00:20Z</time>
      </trkpt>
      <trkpt lat="59.105494385585189" lon="30.487976856529713">
        <ele>55.890000000000001</ele>
        <time>2026-08-20T15:00:29Z</time>
      </trkpt>
      <trkpt lat="59.105472592636943" lon="30.487868981435895">
        <ele>55.890000000000001</ele>
        <time>2026-08-20T15:00:41Z</time>
      </trkpt>
      <trkpt lat="59.10544803366065" lon="30.487782564014196">
        <ele>55.890000000000001</ele>
        <time>2026-08-20T15:00:58Z</time>
      </trkpt>
      <trkpt lat="59.105446692556143" lon="30.487766889855266">
        <ele>54.93</ele>
        <time>2026-08-20T15:01:03Z</time>
      </trkpt>
      <trkpt lat="59.105448285117745" lon="30.487730344757438">
        <ele>55.890000000000001</ele>
        <time>2026-08-20T15:01:32Z</time>
      </trkpt>
      <trkpt lat="59.105450045317411" lon="30.487715424969792">
        <ele>56.369999999999997</ele>
        <time>2026-08-20T15:01:47Z</time>
      </trkpt>
      <trkpt lat="59.10544803366065" lon="30.48770846799016">
        <ele>56.369999999999997</ele>
        <time>2026-08-20T15:02:18Z</time>
      </trkpt>
      <trkpt lat="59.105449290946126" lon="30.487711653113365">
        <ele>56.369999999999997</ele>
        <time>2026-08-20T15:02:48Z</time>
      </trkpt>
      <trkpt lat="59.105449626222253" lon="30.48769966699183">
        <ele>56.369999999999997</ele>
        <time>2026-08-20T15:03:19Z</time>
      </trkpt>
      <trkpt lat="59.105451973155141" lon="30.48767083324492">
        <ele>56.369999999999997</ele>
        <time>2026-08-20T15:03:35Z</time>
      </trkpt>
      <trkpt lat="59.105452056974173" lon="30.487628001719713">
        <ele>56.369999999999997</ele>
        <time>2026-08-20T15:03:48Z</time>
      </trkpt>
      <trkpt lat="59.105462366715074" lon="30.48750864341855">
        <ele>56.369999999999997</ele>
        <time>2026-08-20T15:04:03Z</time>
      </trkpt>
      <trkpt lat="59.105481645092368" lon="30.487349219620228">
        <ele>55.409999999999997</ele>
        <time>2026-08-20T15:04:17Z</time>
      </trkpt>
      <trkpt lat="59.105513328686357" lon="30.487256431952119">
        <ele>55.409999999999997</ele>
        <time>2026-08-20T15:04:32Z</time>
      </trkpt>
      <trkpt lat="59.105515088886023" lon="30.487167835235596">
        <ele>56.369999999999997</ele>
        <time>2026-08-20T15:04:44Z</time>
      </trkpt>
      <trkpt lat="59.105509389191866" lon="30.487032132223248">
        <ele>56.369999999999997</ele>
        <time>2026-08-20T15:04:57Z</time>
      </trkpt>
      <trkpt lat="59.105509221553802" lon="30.486991479992867">
        <ele>56.369999999999997</ele>
        <time>2026-08-20T15:05:10Z</time>
      </trkpt>
      <trkpt lat="59.105505784973502" lon="30.486954934895039">
        <ele>55.409999999999997</ele>
        <time>2026-08-20T15:05:20Z</time>
      </trkpt>
      <trkpt lat="59.105499247089028" lon="30.486866924911737">
        <ele>55.409999999999997</ele>
        <time>2026-08-20T15:05:32Z</time>
      </trkpt>
      <trkpt lat="59.105502599850297" lon="30.486698113381863">
        <ele>56.369999999999997</ele>
        <time>2026-08-20T15:05:46Z</time>
      </trkpt>
      <trkpt lat="59.105483153834939" lon="30.486627453938127">
        <ele>56.369999999999997</ele>
        <time>2026-08-20T15:05:58Z</time>
      </trkpt>
      <trkpt lat="59.105448117479682" lon="30.486398041248322">
        <ele>55.890000000000001</ele>
        <time>2026-08-20T15:06:09Z</time>
      </trkpt>
      <trkpt lat="59.105408638715744" lon="30.486207688227296">
        <ele>55.890000000000001</ele>
        <time>2026-08-20T15:06:23Z</time>
      </trkpt>
      <trkpt lat="59.105398245155811" lon="30.48612386919558">
        <ele>55.890000000000001</ele>
        <time>2026-08-20T15:06:34Z</time>
      </trkpt>
      <trkpt lat="59.105389025062323" lon="30.486035607755184">
        <ele>55.890000000000001</ele>
        <time>2026-08-20T15:06:45Z</time>
      </trkpt>
      <trkpt lat="59.105357676744461" lon="30.485893534496427">
        <ele>56.859999999999999</ele>
        <time>2026-08-20T15:06:54Z</time>
      </trkpt>
      <trkpt lat="59.105322305113077" lon="30.485730171203613">
        <ele>55.890000000000001</ele>
        <time>2026-08-20T15:07:08Z</time>
      </trkpt>
      <trkpt lat="59.105300260707736" lon="30.485537387430668">
        <ele>55.890000000000001</ele>
        <time>2026-08-20T15:07:21Z</time>
      </trkpt>
      <trkpt lat="59.105308474972844" lon="30.485440157353878">
        <ele>55.409999999999997</ele>
        <time>2026-08-20T15:07:34Z</time>
      </trkpt>
      <trkpt lat="59.105316353961825" lon="30.485367989167571">
        <ele>56.859999999999999</ele>
        <time>2026-08-20T15:07:45Z</time>
      </trkpt>
      <trkpt lat="59.105304535478354" lon="30.485387854278088">
        <ele>56.859999999999999</ele>
        <time>2026-08-20T15:08:06Z</time>
      </trkpt>
      <trkpt lat="59.105298751965165" lon="30.485335467383265">
        <ele>56.859999999999999</ele>
        <time>2026-08-20T15:08:31Z</time>
      </trkpt>
      <trkpt lat="59.105268325656652" lon="30.485136229544878">
        <ele>56.859999999999999</ele>
        <time>2026-08-20T15:08:45Z</time>
      </trkpt>
      <trkpt lat="59.105246113613248" lon="30.485085099935532">
        <ele>56.859999999999999</ele>
        <time>2026-08-20T15:08:58Z</time>
      </trkpt>
      <trkpt lat="59.105208981782198" lon="30.485101360827684">
        <ele>55.890000000000001</ele>
        <time>2026-08-20T15:09:12Z</time>
      </trkpt>
      <trkpt lat="59.105135975405574" lon="30.485112760215998">
        <ele>55.890000000000001</ele>
        <time>2026-08-20T15:09:26Z</time>
      </trkpt>
      <trkpt lat="59.105057688429952" lon="30.485108736902475">
        <ele>55.890000000000001</ele>
        <time>2026-08-20T15:09:39Z</time>
      </trkpt>
      <trkpt lat="59.105022652074695" lon="30.485131703317165">
        <ele>55.890000000000001</ele>
        <time>2026-08-20T15:09:54Z</time>
      </trkpt>
      <trkpt lat="59.104931373149157" lon="30.485164560377598">
        <ele>56.859999999999999</ele>
        <time>2026-08-20T15:10:08Z</time>
      </trkpt>
      <trkpt lat="59.104852499440312" lon="30.485216360539198">
        <ele>55.409999999999997</ele>
        <time>2026-08-20T15:10:17Z</time>
      </trkpt>
      <trkpt lat="59.104741858318448" lon="30.485249971970916">
        <ele>55.409999999999997</ele>
        <time>2026-08-20T15:10:31Z</time>
      </trkpt>
      <trkpt lat="59.104677150025964" lon="30.48530638217926">
        <ele>55.409999999999997</ele>
        <time>2026-08-20T15:10:44Z</time>
      </trkpt>
      <trkpt lat="59.104681089520454" lon="30.485342256724834">
        <ele>56.859999999999999</ele>
        <time>2026-08-20T15:10:59Z</time>
      </trkpt>
      <trkpt lat="59.104673126712441" lon="30.485379975289106">
        <ele>55.890000000000001</ele>
        <time>2026-08-20T15:11:20Z</time>
      </trkpt>
      <trkpt lat="59.104626942425966" lon="30.485502183437347">
        <ele>55.890000000000001</ele>
        <time>2026-08-20T15:11:32Z</time>
      </trkpt>
      <trkpt lat="59.10461587831378" lon="30.485605532303452">
        <ele>56.859999999999999</ele>
        <time>2026-08-20T15:11:38Z</time>
      </trkpt>
      <trkpt lat="59.104644963517785" lon="30.485798986628652">
        <ele>55.890000000000001</ele>
        <time>2026-08-20T15:11:52Z</time>
      </trkpt>
      <trkpt lat="59.104685867205262" lon="30.485983807593584">
        <ele>55.890000000000001</ele>
        <time>2026-08-20T15:12:08Z</time>
      </trkpt>
      <trkpt lat="59.10470774397254" lon="30.486091850325465">
        <ele>55.890000000000001</ele>
        <time>2026-08-20T15:12:22Z</time>
      </trkpt>
      <trkpt lat="59.104705145582557" lon="30.486105177551508">
        <ele>56.859999999999999</ele>
        <time>2026-08-20T15:12:29Z</time>
      </trkpt>
      <trkpt lat="59.104706402868032" lon="30.486109284684062">
        <ele>55.890000000000001</ele>
        <time>2026-08-20T15:12:35Z</time>
      </trkpt>
      <trkpt lat="59.10471067763865" lon="30.486136777326465">
        <ele>55.890000000000001</ele>
        <time>2026-08-20T15:12:48Z</time>
      </trkpt>
      <trkpt lat="59.104700619354844" lon="30.486269295215607">
        <ele>55.890000000000001</ele>
        <time>2026-08-20T15:13:00Z</time>
      </trkpt>
      <trkpt lat="59.104647561907768" lon="30.486556878313422">
        <ele>55.890000000000001</ele>
        <time>2026-08-20T15:13:15Z</time>
      </trkpt>
      <trkpt lat="59.104655357077718" lon="30.486763911321759">
        <ele>55.409999999999997</ele>
        <time>2026-08-20T15:13:27Z</time>
      </trkpt>
      <trkpt lat="59.104670947417617" lon="30.486891735345125">
        <ele>56.859999999999999</ele>
        <time>2026-08-20T15:13:41Z</time>
      </trkpt>
      <trkpt lat="59.104675473645329" lon="30.486978571861982">
        <ele>56.859999999999999</ele>
        <time>2026-08-20T15:13:58Z</time>
      </trkpt>
      <trkpt lat="59.104708917438984" lon="30.487142438068986">
        <ele>56.859999999999999</ele>
        <time>2026-08-20T15:14:12Z</time>
      </trkpt>
      <trkpt lat="59.104727441444993" lon="30.48728090710938">
        <ele>55.890000000000001</ele>
        <time>2026-08-20T15:14:27Z</time>
      </trkpt>
      <trkpt lat="59.104738086462021" lon="30.487551977857947">
        <ele>56.859999999999999</ele>
        <time>2026-08-20T15:14:44Z</time>
      </trkpt>
      <trkpt lat="59.104767423123121" lon="30.487673515453935">
        <ele>55.409999999999997</ele>
        <time>2026-08-20T15:14:55Z</time>
      </trkpt>
      <trkpt lat="59.104774631559849" lon="30.487734451889992">
        <ele>55.409999999999997</ele>
        <time>2026-08-20T15:15:13Z</time>
      </trkpt>
      <trkpt lat="59.104781169444323" lon="30.487753814086318">
        <ele>56.859999999999999</ele>
        <time>2026-08-20T15:15:40Z</time>
      </trkpt>
      <trkpt lat="59.104797849431634" lon="30.487867221236229">
        <ele>55.409999999999997</ele>
        <time>2026-08-20T15:15:59Z</time>
      </trkpt>
      <trkpt lat="59.104799693450332" lon="30.487878452986479">
        <ele>55.409999999999997</ele>
        <time>2026-08-20T15:16:00Z</time>
      </trkpt>
      <trkpt lat="59.104819726198912" lon="30.487974844872952">
        <ele>55.409999999999997</ele>
        <time>2026-08-20T15:16:14Z</time>
      </trkpt>
      <trkpt lat="59.104815367609262" lon="30.48827332444489">
        <ele>55.409999999999997</ele>
        <time>2026-08-20T15:16:31Z</time>
      </trkpt>
      <trkpt lat="59.104849230498075" lon="30.488425707444549">
        <ele>55.409999999999997</ele>
        <time>2026-08-20T15:16:43Z</time>
      </trkpt>
      <trkpt lat="59.104869682341814" lon="30.488602230325341">
        <ele>55.409999999999997</ele>
        <time>2026-08-20T15:16:56Z</time>
      </trkpt>
      <trkpt lat="59.104865491390228" lon="30.48864807933569">
        <ele>56.859999999999999</ele>
        <time>2026-08-20T15:16:59Z</time>
      </trkpt>
      <trkpt lat="59.104871526360512" lon="30.488692419603467">
        <ele>55.409999999999997</ele>
        <time>2026-08-20T15:17:02Z</time>
      </trkpt>
      <trkpt lat="59.10487923771143" lon="30.488880341872573">
        <ele>55.409999999999997</ele>
        <time>2026-08-20T15:17:18Z</time>
      </trkpt>
      <trkpt lat="59.104893235489726" lon="30.489049069583416">
        <ele>55.409999999999997</ele>
        <time>2026-08-20T15:17:34Z</time>
      </trkpt>
      <trkpt lat="59.104896923527122" lon="30.489111766219139">
        <ele>54.93</ele>
        <time>2026-08-20T15:17:42Z</time>
      </trkpt>
      <trkpt lat="59.10489440895617" lon="30.489227268844843">
        <ele>54.93</ele>
        <time>2026-08-20T15:17:48Z</time>
      </trkpt>
      <trkpt lat="59.104901030659676" lon="30.489332126453519">
        <ele>56.369999999999997</ele>
        <time>2026-08-20T15:17:53Z</time>
      </trkpt>
      <trkpt lat="59.104924919083714" lon="30.489551983773708">
        <ele>56.369999999999997</ele>
        <time>2026-08-20T15:18:09Z</time>
      </trkpt>
      <trkpt lat="59.104928020387888" lon="30.48956036567688">
        <ele>54.93</ele>
        <time>2026-08-20T15:18:12Z</time>
      </trkpt>
      <trkpt lat="59.10492517054081" lon="30.489560030400753">
        <ele>54.93</ele>
        <time>2026-08-20T15:18:33Z</time>
      </trkpt>
      <trkpt lat="59.10492517054081" lon="30.489564053714275">
        <ele>55.890000000000001</ele>
        <time>2026-08-20T15:18:48Z</time>
      </trkpt>
      <trkpt lat="59.104924835264683" lon="30.489565981552005">
        <ele>53.969999999999999</ele>
        <time>2026-08-20T15:18:56Z</time>
      </trkpt>
      <trkpt lat="59.104924248531461" lon="30.489567322656512">
        <ele>55.409999999999997</ele>
        <time>2026-08-20T15:19:01Z</time>
      </trkpt>
      <trkpt lat="59.104924667626619" lon="30.48956673592329">
        <ele>53.969999999999999</ele>
        <time>2026-08-20T15:19:04Z</time>
      </trkpt>
      <trkpt lat="59.104925086721778" lon="30.489569585770369">
        <ele>53.969999999999999</ele>
        <time>2026-08-20T15:19:29Z</time>
      </trkpt>
      <trkpt lat="59.104928523302078" lon="30.489565227180719">
        <ele>53.490000000000002</ele>
        <time>2026-08-20T15:19:53Z</time>
      </trkpt>
      <trkpt lat="59.104928355664015" lon="30.489561203867197">
        <ele>54.93</ele>
        <time>2026-08-20T15:20:07Z</time>
      </trkpt>
      <trkpt lat="59.104927349835634" lon="30.489559946581721">
        <ele>54.93</ele>
        <time>2026-08-20T15:20:27Z</time>
      </trkpt>
      <trkpt lat="59.104925254359841" lon="30.489555587992072">
        <ele>53.969999999999999</ele>
        <time>2026-08-20T15:20:49Z</time>
      </trkpt>
      <trkpt lat="59.104929780587554" lon="30.489571765065193">
        <ele>53.490000000000002</ele>
        <time>2026-08-20T15:21:18Z</time>
      </trkpt>
      <trkpt lat="59.104927014559507" lon="30.489530526101589">
        <ele>53.490000000000002</ele>
        <time>2026-08-20T15:21:33Z</time>
      </trkpt>
      <trkpt lat="59.104967750608921" lon="30.489424746483564">
        <ele>53.490000000000002</ele>
        <time>2026-08-20T15:21:48Z</time>
      </trkpt>
      <trkpt lat="59.10502533428371" lon="30.489396750926971">
        <ele>53.490000000000002</ele>
        <time>2026-08-20T15:22:00Z</time>
      </trkpt>
      <trkpt lat="59.105067327618599" lon="30.489427344873548">
        <ele>53.490000000000002</ele>
        <time>2026-08-20T15:22:13Z</time>
      </trkpt>
      <trkpt lat="59.105159947648644" lon="30.489378478378057">
        <ele>53.490000000000002</ele>
        <time>2026-08-20T15:22:26Z</time>
      </trkpt>
      <trkpt lat="59.105214262381196" lon="30.489378226920962">
        <ele>53.490000000000002</ele>
        <time>2026-08-20T15:22:49Z</time>
      </trkpt>
      <trkpt lat="59.105275114998221" lon="30.4893434420228">
        <ele>53.490000000000002</ele>
        <time>2026-08-20T15:23:05Z</time>
      </trkpt>
      <trkpt lat="59.105326747521758" lon="30.489274375140667">
        <ele>53.490000000000002</ele>
        <time>2026-08-20T15:23:17Z</time>
      </trkpt>
      <trkpt lat="59.105400843545794" lon="30.489178653806448">
        <ele>53.490000000000002</ele>
        <time>2026-08-20T15:23:30Z</time>
      </trkpt>
      <trkpt lat="59.105418529361486" lon="30.489071533083916">
        <ele>53.490000000000002</ele>
        <time>2026-08-20T15:23:45Z</time>
      </trkpt>
      <trkpt lat="59.105422720313072" lon="30.488956701010466">
        <ele>53.009999999999998</ele>
        <time>2026-08-20T15:23:57Z</time>
      </trkpt>
      <trkpt lat="59.105464210733771" lon="30.488831643015146">
        <ele>53.009999999999998</ele>
        <time>2026-08-20T15:24:08Z</time>
      </trkpt>
      <trkpt lat="59.105480890721083" lon="30.488723265007138">
        <ele>53.009999999999998</ele>
        <time>2026-08-20T15:24:21Z</time>
      </trkpt>
      <trkpt lat="59.10549296066165" lon="30.488624358549714">
        <ele>53.009999999999998</ele>
        <time>2026-08-20T15:24:34Z</time>
      </trkpt>
      <trkpt lat="59.105517854914069" lon="30.488536935299635">
        <ele>53.009999999999998</ele>
        <time>2026-08-20T15:24:46Z</time>
      </trkpt>
      <trkpt lat="59.10559119656682" lon="30.488502904772758">
        <ele>53.009999999999998</ele>
        <time>2026-08-20T15:25:00Z</time>
      </trkpt>
      <trkpt lat="59.105635369196534" lon="30.488456804305315">
        <ele>52.530000000000001</ele>
        <time>2026-08-20T15:25:13Z</time>
      </trkpt>
      <trkpt lat="59.105650205165148" lon="30.488437861204147">
        <ele>53.969999999999999</ele>
        <time>2026-08-20T15:25:20Z</time>
      </trkpt>
      <trkpt lat="59.105688091367483" lon="30.488410703837872">
        <ele>52.530000000000001</ele>
        <time>2026-08-20T15:25:33Z</time>
      </trkpt>
      <trkpt lat="59.105749363079667" lon="30.488383127376437">
        <ele>52.530000000000001</ele>
        <time>2026-08-20T15:25:47Z</time>
      </trkpt>
      <trkpt lat="59.105824884027243" lon="30.488335685804486">
        <ele>52.530000000000001</ele>
        <time>2026-08-20T15:26:04Z</time>
      </trkpt>
      <trkpt lat="59.105866877362132" lon="30.48830266110599">
        <ele>51.57</ele>
        <time>2026-08-20T15:26:17Z</time>
      </trkpt>
      <trkpt lat="59.105932507663965" lon="30.488225547596812">
        <ele>51.57</ele>
        <time>2026-08-20T15:26:31Z</time>
      </trkpt>
      <trkpt lat="59.105998137965798" lon="30.488138208165765">
        <ele>51.57</ele>
        <time>2026-08-20T15:26:49Z</time>
      </trkpt>
      <trkpt lat="59.106144402176142" lon="30.487945172935724">
        <ele>51.57</ele>
        <time>2026-08-20T15:27:03Z</time>
      </trkpt>
      <trkpt lat="59.10617214627564" lon="30.487866550683975">
        <ele>51.57</ele>
        <time>2026-08-20T15:27:14Z</time>
      </trkpt>
      <trkpt lat="59.106177678331733" lon="30.487864874303341">
        <ele>53.009999999999998</ele>
        <time>2026-08-20T15:27:21Z</time>
      </trkpt>
      <trkpt lat="59.10617901943624" lon="30.487864036113024">
        <ele>52.049999999999997</ele>
        <time>2026-08-20T15:27:23Z</time>
      </trkpt>
      <trkpt lat="59.106191173195839" lon="30.487834447994828">
        <ele>51.57</ele>
        <time>2026-08-20T15:27:42Z</time>
      </trkpt>
      <trkpt lat="59.106215564534068" lon="30.487768398597836">
        <ele>52.530000000000001</ele>
        <time>2026-08-20T15:27:56Z</time>
      </trkpt>
      <trkpt lat="59.106249343603849" lon="30.487623056396842">
        <ele>53.009999999999998</ele>
        <time>2026-08-20T15:28:11Z</time>
      </trkpt>
      <trkpt lat="59.106254121288657" lon="30.487620458006859">
        <ele>51.57</ele>
        <time>2026-08-20T15:28:14Z</time>
      </trkpt>
      <trkpt lat="59.106333078816533" lon="30.487523311749101">
        <ele>51.57</ele>
        <time>2026-08-20T15:28:26Z</time>
      </trkpt>
      <trkpt lat="59.106377586722374" lon="30.487488526850939">
        <ele>51.57</ele>
        <time>2026-08-20T15:28:43Z</time>
      </trkpt>
      <trkpt lat="59.106415221467614" lon="30.487472768872976">
        <ele>51.57</ele>
        <time>2026-08-20T15:28:57Z</time>
      </trkpt>
      <trkpt lat="59.106461992487311" lon="30.48742750659585">
        <ele>51.57</ele>
        <time>2026-08-20T15:29:12Z</time>
      </trkpt>
      <trkpt lat="59.106507170945406" lon="30.487299095839262">
        <ele>51.57</ele>
        <time>2026-08-20T15:29:28Z</time>
      </trkpt>
      <trkpt lat="59.106569783762097" lon="30.487160962074995">
        <ele>51.57</ele>
        <time>2026-08-20T15:29:45Z</time>
      </trkpt>
      <trkpt lat="59.106591995805502" lon="30.487109497189522">
        <ele>51.090000000000003</ele>
        <time>2026-08-20T15:30:00Z</time>
      </trkpt>
      <trkpt lat="59.106624349951744" lon="30.487012686207891">
        <ele>53.009999999999998</ele>
        <time>2026-08-20T15:30:12Z</time>
      </trkpt>
      <trkpt lat="59.106652345508337" lon="30.486938590183854">
        <ele>51.57</ele>
        <time>2026-08-20T15:30:24Z</time>
      </trkpt>
      <trkpt lat="59.106765333563089" lon="30.486816046759486">
        <ele>51.57</ele>
        <time>2026-08-20T15:30:38Z</time>
      </trkpt>
      <trkpt lat="59.106780588626862" lon="30.486806575208902">
        <ele>51.57</ele>
        <time>2026-08-20T15:31:06Z</time>
      </trkpt>
      <trkpt lat="59.106782432645559" lon="30.486809425055981">
        <ele>53.009999999999998</ele>
        <time>2026-08-20T15:31:10Z</time>
      </trkpt>
      <trkpt lat="59.106782013550401" lon="30.486816884949803">
        <ele>53.009999999999998</ele>
        <time>2026-08-20T15:31:39Z</time>
      </trkpt>
      <trkpt lat="59.106793412938714" lon="30.486807581037283">
        <ele>53.009999999999998</ele>
        <time>2026-08-20T15:31:51Z</time>
      </trkpt>
      <trkpt lat="59.106818055734038" lon="30.486783189699054">
        <ele>53.009999999999998</ele>
        <time>2026-08-20T15:32:04Z</time>
      </trkpt>
      <trkpt lat="59.106836328282952" lon="30.486740944907069">
        <ele>52.049999999999997</ele>
        <time>2026-08-20T15:32:17Z</time>
      </trkpt>
      <trkpt lat="59.106854349374771" lon="30.486702807247639">
        <ele>52.049999999999997</ele>
        <time>2026-08-20T15:32:31Z</time>
      </trkpt>
      <trkpt lat="59.106881842017174" lon="30.486663244664669">
        <ele>52.049999999999997</ele>
        <time>2026-08-20T15:32:46Z</time>
      </trkpt>
      <trkpt lat="59.106941353529692" lon="30.486569786444306">
        <ele>53.490000000000002</ele>
        <time>2026-08-20T15:32:57Z</time>
      </trkpt>
      <trkpt lat="59.106996757909656" lon="30.486465934664011">
        <ele>53.490000000000002</ele>
        <time>2026-08-20T15:33:18Z</time>
      </trkpt>
      <trkpt lat="59.107135813683271" lon="30.486369291320443">
        <ele>53.490000000000002</ele>
        <time>2026-08-20T15:33:36Z</time>
      </trkpt>
      <trkpt lat="59.107150482013822" lon="30.486351270228624">
        <ele>53.490000000000002</ele>
        <time>2026-08-20T15:33:52Z</time>
      </trkpt>
      <trkpt lat="59.107205215841532" lon="30.486261919140816">
        <ele>53.490000000000002</ele>
        <time>2026-08-20T15:34:07Z</time>
      </trkpt>
      <trkpt lat="59.107243353500962" lon="30.486145662143826">
        <ele>53.490000000000002</ele>
        <time>2026-08-20T15:34:22Z</time>
      </trkpt>
      <trkpt lat="59.107243521139026" lon="30.486063184216619">
        <ele>52.049999999999997</ele>
        <time>2026-08-20T15:34:38Z</time>
      </trkpt>
      <trkpt lat="59.10725156776607" lon="30.486029488965869">
        <ele>52.049999999999997</ele>
        <time>2026-08-20T15:35:02Z</time>
      </trkpt>
      <trkpt lat="59.107276797294617" lon="30.486013144254684">
        <ele>51.57</ele>
        <time>2026-08-20T15:35:20Z</time>
      </trkpt>
      <trkpt lat="59.107288364320993" lon="30.486013479530811">
        <ele>53.009999999999998</ele>
        <time>2026-08-20T15:35:22Z</time>
      </trkpt>
      <trkpt lat="59.107309570536017" lon="30.486030410975218">
        <ele>51.57</ele>
        <time>2026-08-20T15:35:38Z</time>
      </trkpt>
      <trkpt lat="59.107325244694948" lon="30.486004091799259">
        <ele>51.57</ele>
        <time>2026-08-20T15:35:53Z</time>
      </trkpt>
      <trkpt lat="59.10735416226089" lon="30.485878279432654">
        <ele>51.090000000000003</ele>
        <time>2026-08-20T15:36:09Z</time>
      </trkpt>
      <trkpt lat="59.107350809499621" lon="30.485855396836996">
        <ele>52.530000000000001</ele>
        <time>2026-08-20T15:36:13Z</time>
      </trkpt>
      <trkpt lat="59.107324741780758" lon="30.485796136781573">
        <ele>52.530000000000001</ele>
        <time>2026-08-20T15:36:30Z</time>
      </trkpt>
      <trkpt lat="59.107297752052546" lon="30.485664205625653">
        <ele>52.530000000000001</ele>
        <time>2026-08-20T15:36:47Z</time>
      </trkpt>
      <trkpt lat="59.10728232935071" lon="30.485597066581249">
        <ele>51.090000000000003</ele>
        <time>2026-08-20T15:37:15Z</time>
      </trkpt>
      <trkpt lat="59.10727889277041" lon="30.485497573390603">
        <ele>51.090000000000003</ele>
        <time>2026-08-20T15:37:31Z</time>
      </trkpt>
      <trkpt lat="59.107281994074583" lon="30.485466308891773">
        <ele>52.530000000000001</ele>
        <time>2026-08-20T15:37:35Z</time>
      </trkpt>
      <trkpt lat="59.107306217774749" lon="30.485362624749541">
        <ele>51.090000000000003</ele>
        <time>2026-08-20T15:37:47Z</time>
      </trkpt>
      <trkpt lat="59.107315018773079" lon="30.485290624201298">
        <ele>51.090000000000003</ele>
        <time>2026-08-20T15:38:06Z</time>
      </trkpt>
      <trkpt lat="59.107266906648874" lon="30.485185598954558">
        <ele>51.090000000000003</ele>
        <time>2026-08-20T15:38:27Z</time>
      </trkpt>
      <trkpt lat="59.107236731797457" lon="30.48495702445507">
        <ele>51.090000000000003</ele>
        <time>2026-08-20T15:38:44Z</time>
      </trkpt>
      <trkpt lat="59.107235139235854" lon="30.484859207645059">
        <ele>51.090000000000003</ele>
        <time>2026-08-20T15:38:57Z</time>
      </trkpt>
      <trkpt lat="59.107255088165402" lon="30.48479869030416">
        <ele>52.530000000000001</ele>
        <time>2026-08-20T15:39:11Z</time>
      </trkpt>
      <trkpt lat="59.107277886942029" lon="30.484686708077788">
        <ele>52.530000000000001</ele>
        <time>2026-08-20T15:39:28Z</time>
      </trkpt>
      <trkpt lat="59.107266487553716" lon="30.484419073909521">
        <ele>51.57</ele>
        <time>2026-08-20T15:39:39Z</time>
      </trkpt>
      <trkpt lat="59.107216950505972" lon="30.484224949032068">
        <ele>51.57</ele>
        <time>2026-08-20T15:39:59Z</time>
      </trkpt>
      <trkpt lat="59.107226002961397" lon="30.484185805544257">
        <ele>51.090000000000003</ele>
        <time>2026-08-20T15:40:15Z</time>
      </trkpt>
      <trkpt lat="59.107225332409143" lon="30.484177591279149">
        <ele>52.530000000000001</ele>
        <time>2026-08-20T15:40:18Z</time>
      </trkpt>
      <trkpt lat="59.107218207791448" lon="30.484113804996014">
        <ele>52.049999999999997</ele>
        <time>2026-08-20T15:40:28Z</time>
      </trkpt>
      <trkpt lat="59.10721686668694" lon="30.484075080603361">
        <ele>52.049999999999997</ele>
        <time>2026-08-20T15:40:42Z</time>
      </trkpt>
      <trkpt lat="59.107278473675251" lon="30.484023531898856">
        <ele>52.049999999999997</ele>
        <time>2026-08-20T15:40:57Z</time>
      </trkpt>
      <trkpt lat="59.107317365705967" lon="30.483980868011713">
        <ele>53.009999999999998</ele>
        <time>2026-08-20T15:41:13Z</time>
      </trkpt>
      <trkpt lat="59.107427000999451" lon="30.483889672905207">
        <ele>53.009999999999998</ele>
        <time>2026-08-20T15:41:30Z</time>
      </trkpt>
      <trkpt lat="59.107477543875575" lon="30.483862683176994">
        <ele>52.049999999999997</ele>
        <time>2026-08-20T15:41:40Z</time>
      </trkpt>
      <trkpt lat="59.107561530545354" lon="30.483858240768313">
        <ele>52.049999999999997</ele>
        <time>2026-08-20T15:41:54Z</time>
      </trkpt>
      <trkpt lat="59.107683235779405" lon="30.48387324437499">
        <ele>52.049999999999997</ele>
        <time>2026-08-20T15:42:11Z</time>
      </trkpt>
      <trkpt lat="59.10771039314568" lon="30.483880033716559">
        <ele>52.049999999999997</ele>
        <time>2026-08-20T15:42:14Z</time>
      </trkpt>
      <trkpt lat="59.107826231047511" lon="30.483860755339265">
        <ele>53.009999999999998</ele>
        <time>2026-08-20T15:42:28Z</time>
      </trkpt>
      <trkpt lat="59.107939302921295" lon="30.483854385092854">
        <ele>53.490000000000002</ele>
        <time>2026-08-20T15:42:45Z</time>
      </trkpt>
      <trkpt lat="59.108042903244495" lon="30.483802584931254">
        <ele>53.490000000000002</ele>
        <time>2026-08-20T15:43:01Z</time>
      </trkpt>
      <trkpt lat="59.108199812471867" lon="30.483771320432425">
        <ele>53.490000000000002</ele>
        <time>2026-08-20T15:43:15Z</time>
      </trkpt>
      <trkpt lat="59.108376251533628" lon="30.483742570504546">
        <ele>53.490000000000002</ele>
        <time>2026-08-20T15:43:29Z</time>
      </trkpt>
      <trkpt lat="59.108515894040465" lon="30.483718514442444">
        <ele>53.490000000000002</ele>
        <time>2026-08-20T15:43:44Z</time>
      </trkpt>
      <trkpt lat="59.108804566785693" lon="30.483547858893871">
        <ele>53.969999999999999</ele>
        <time>2026-08-20T15:44:05Z</time>
      </trkpt>
      <trkpt lat="59.108965415507555" lon="30.483535286039114">
        <ele>53.969999999999999</ele>
        <time>2026-08-20T15:44:23Z</time>
      </trkpt>
      <trkpt lat="59.109042529016733" lon="30.483549451455474">
        <ele>53.009999999999998</ele>
        <time>2026-08-20T15:44:39Z</time>
      </trkpt>
      <trkpt lat="59.109131377190351" lon="30.483538303524256">
        <ele>52.530000000000001</ele>
        <time>2026-08-20T15:44:58Z</time>
      </trkpt>
      <trkpt lat="59.109142608940601" lon="30.48350770957768">
        <ele>52.530000000000001</ele>
        <time>2026-08-20T15:45:14Z</time>
      </trkpt>
      <trkpt lat="59.109171191230416" lon="30.483466554433107">
        <ele>53.490000000000002</ele>
        <time>2026-08-20T15:45:29Z</time>
      </trkpt>
      <trkpt lat="59.109214022755623" lon="30.483428165316582">
        <ele>53.490000000000002</ele>
        <time>2026-08-20T15:45:41Z</time>
      </trkpt>
      <trkpt lat="59.109212346374989" lon="30.483417436480522">
        <ele>53.490000000000002</ele>
        <time>2026-08-20T15:45:42Z</time>
      </trkpt>
      <trkpt lat="59.109323658049107" lon="30.483176708221436">
        <ele>53.490000000000002</ele>
        <time>2026-08-20T15:45:56Z</time>
      </trkpt>
      <trkpt lat="59.10946749150753" lon="30.483054667711258">
        <ele>53.490000000000002</ele>
        <time>2026-08-20T15:46:11Z</time>
      </trkpt>
      <trkpt lat="59.109492050483823" lon="30.483012590557337">
        <ele>53.490000000000002</ele>
        <time>2026-08-20T15:46:26Z</time>
      </trkpt>
      <trkpt lat="59.10950462333858" lon="30.482995240017772">
        <ele>53.969999999999999</ele>
        <time>2026-08-20T15:46:49Z</time>
      </trkpt>
    </trkseg>
  </trk>

</gpx>